<?xml version="1.0" encoding="UTF-8" standalone="no" ?>
<gpx xmlns="http://www.topografix.com/GPX/1/1" xmlns:xsi="http://www.w3.org/2001/XMLSchema-instance" xsi:schemaLocation="http://www.topografix.com/GPX/1/1 http://www.topografix.com/GPX/1/1/gpx.xsd" version="1.1" creator="VisuGPX - https://www.visugpx.com">
  <metadata>
    <name>VTT 04.02.18</name>
    <desc><![CDATA[Totor & Marc
Entrammes, L'huisserie, Laval, Montigné, Nuillé, Entrammes]]></desc>
  </metadata>
  <trk>
    <name><![CDATA[180204093158 on GPSies.com]]></name>
    <trkseg>
      <trkpt lat="47.99902" lon="-0.71803">
        <ele>51.6</ele>
        <time>2018-02-04T09:32:05Z</time>
      </trkpt>
      <trkpt lat="47.99903" lon="-0.71783">
        <ele>51.9</ele>
        <time>2018-02-04T09:32:09Z</time>
      </trkpt>
      <trkpt lat="47.99904" lon="-0.71763">
        <ele>52.2</ele>
        <time>2018-02-04T09:32:13Z</time>
      </trkpt>
      <trkpt lat="47.99903" lon="-0.71744">
        <ele>52.6</ele>
        <time>2018-02-04T09:32:17Z</time>
      </trkpt>
      <trkpt lat="47.99907" lon="-0.71724">
        <ele>53</ele>
        <time>2018-02-04T09:32:21Z</time>
      </trkpt>
      <trkpt lat="47.9991" lon="-0.71704">
        <ele>53.2</ele>
        <time>2018-02-04T09:32:25Z</time>
      </trkpt>
      <trkpt lat="47.99911" lon="-0.71685">
        <ele>53.2</ele>
        <time>2018-02-04T09:32:29Z</time>
      </trkpt>
      <trkpt lat="47.9992" lon="-0.71672">
        <ele>53</ele>
        <time>2018-02-04T09:32:33Z</time>
      </trkpt>
      <trkpt lat="47.99921" lon="-0.71658">
        <ele>53</ele>
        <time>2018-02-04T09:32:37Z</time>
      </trkpt>
      <trkpt lat="47.9992" lon="-0.71641">
        <ele>53</ele>
        <time>2018-02-04T09:32:41Z</time>
      </trkpt>
      <trkpt lat="47.99923" lon="-0.71627">
        <ele>53.2</ele>
        <time>2018-02-04T09:32:45Z</time>
      </trkpt>
      <trkpt lat="47.99921" lon="-0.71618">
        <ele>53.5</ele>
        <time>2018-02-04T09:35:29Z</time>
      </trkpt>
      <trkpt lat="47.99922" lon="-0.71624">
        <ele>53.3</ele>
        <time>2018-02-04T09:35:33Z</time>
      </trkpt>
      <trkpt lat="47.99919" lon="-0.71633">
        <ele>53.2</ele>
        <time>2018-02-04T09:35:37Z</time>
      </trkpt>
      <trkpt lat="47.99918" lon="-0.71652">
        <ele>53</ele>
        <time>2018-02-04T09:35:41Z</time>
      </trkpt>
      <trkpt lat="47.99915" lon="-0.71669">
        <ele>53.1</ele>
        <time>2018-02-04T09:35:45Z</time>
      </trkpt>
      <trkpt lat="47.99905" lon="-0.7168">
        <ele>53.4</ele>
        <time>2018-02-04T09:35:49Z</time>
      </trkpt>
      <trkpt lat="47.99901" lon="-0.71704">
        <ele>53.4</ele>
        <time>2018-02-04T09:35:53Z</time>
      </trkpt>
      <trkpt lat="47.999" lon="-0.71734">
        <ele>52.8</ele>
        <time>2018-02-04T09:35:57Z</time>
      </trkpt>
      <trkpt lat="47.99901" lon="-0.71768">
        <ele>52.2</ele>
        <time>2018-02-04T09:36:01Z</time>
      </trkpt>
      <trkpt lat="47.999" lon="-0.718">
        <ele>51.7</ele>
        <time>2018-02-04T09:36:05Z</time>
      </trkpt>
      <trkpt lat="47.99899" lon="-0.71831">
        <ele>51.6</ele>
        <time>2018-02-04T09:36:09Z</time>
      </trkpt>
      <trkpt lat="47.99899" lon="-0.71864">
        <ele>50.7</ele>
        <time>2018-02-04T09:36:13Z</time>
      </trkpt>
      <trkpt lat="47.999" lon="-0.71898">
        <ele>50.8</ele>
        <time>2018-02-04T09:36:17Z</time>
      </trkpt>
      <trkpt lat="47.99903" lon="-0.71933">
        <ele>50.2</ele>
        <time>2018-02-04T09:36:21Z</time>
      </trkpt>
      <trkpt lat="47.99909" lon="-0.71967">
        <ele>49.2</ele>
        <time>2018-02-04T09:36:25Z</time>
      </trkpt>
      <trkpt lat="47.99915" lon="-0.72001">
        <ele>48.9</ele>
        <time>2018-02-04T09:36:29Z</time>
      </trkpt>
      <trkpt lat="47.99928" lon="-0.72031">
        <ele>46.4</ele>
        <time>2018-02-04T09:36:33Z</time>
      </trkpt>
      <trkpt lat="47.9994" lon="-0.72061">
        <ele>46.2</ele>
        <time>2018-02-04T09:36:37Z</time>
      </trkpt>
      <trkpt lat="47.99954" lon="-0.7209">
        <ele>45.3</ele>
        <time>2018-02-04T09:36:41Z</time>
      </trkpt>
      <trkpt lat="47.99967" lon="-0.7212">
        <ele>46</ele>
        <time>2018-02-04T09:36:45Z</time>
      </trkpt>
      <trkpt lat="47.99979" lon="-0.72146">
        <ele>44.1</ele>
        <time>2018-02-04T09:36:49Z</time>
      </trkpt>
      <trkpt lat="47.9999" lon="-0.72172">
        <ele>45</ele>
        <time>2018-02-04T09:36:53Z</time>
      </trkpt>
      <trkpt lat="48.00003" lon="-0.72196">
        <ele>46.8</ele>
        <time>2018-02-04T09:36:57Z</time>
      </trkpt>
      <trkpt lat="48.00018" lon="-0.72221">
        <ele>45.9</ele>
        <time>2018-02-04T09:37:01Z</time>
      </trkpt>
      <trkpt lat="48.00031" lon="-0.72248">
        <ele>47</ele>
        <time>2018-02-04T09:37:05Z</time>
      </trkpt>
      <trkpt lat="48.00045" lon="-0.72272">
        <ele>47.5</ele>
        <time>2018-02-04T09:37:09Z</time>
      </trkpt>
      <trkpt lat="48.00065" lon="-0.7229">
        <ele>48.8</ele>
        <time>2018-02-04T09:37:13Z</time>
      </trkpt>
      <trkpt lat="48.00079" lon="-0.72307">
        <ele>48.3</ele>
        <time>2018-02-04T09:37:17Z</time>
      </trkpt>
      <trkpt lat="48.00087" lon="-0.72328">
        <ele>49.2</ele>
        <time>2018-02-04T09:37:21Z</time>
      </trkpt>
      <trkpt lat="48.00083" lon="-0.72353">
        <ele>50.4</ele>
        <time>2018-02-04T09:37:25Z</time>
      </trkpt>
      <trkpt lat="48.00073" lon="-0.72375">
        <ele>51.1</ele>
        <time>2018-02-04T09:37:29Z</time>
      </trkpt>
      <trkpt lat="48.00068" lon="-0.72398">
        <ele>51.8</ele>
        <time>2018-02-04T09:37:33Z</time>
      </trkpt>
      <trkpt lat="48.00083" lon="-0.724">
        <ele>52</ele>
        <time>2018-02-04T09:37:37Z</time>
      </trkpt>
      <trkpt lat="48.00096" lon="-0.72393">
        <ele>52.6</ele>
        <time>2018-02-04T09:37:41Z</time>
      </trkpt>
      <trkpt lat="48.00109" lon="-0.72397">
        <ele>53.5</ele>
        <time>2018-02-04T09:37:45Z</time>
      </trkpt>
      <trkpt lat="48.00121" lon="-0.72407">
        <ele>54.4</ele>
        <time>2018-02-04T09:37:49Z</time>
      </trkpt>
      <trkpt lat="48.00132" lon="-0.72418">
        <ele>55.1</ele>
        <time>2018-02-04T09:37:53Z</time>
      </trkpt>
      <trkpt lat="48.00143" lon="-0.72427">
        <ele>56</ele>
        <time>2018-02-04T09:37:57Z</time>
      </trkpt>
      <trkpt lat="48.00154" lon="-0.72438">
        <ele>56.5</ele>
        <time>2018-02-04T09:38:01Z</time>
      </trkpt>
      <trkpt lat="48.00164" lon="-0.72449">
        <ele>56.5</ele>
        <time>2018-02-04T09:38:05Z</time>
      </trkpt>
      <trkpt lat="48.00172" lon="-0.72464">
        <ele>57.1</ele>
        <time>2018-02-04T09:38:09Z</time>
      </trkpt>
      <trkpt lat="48.00177" lon="-0.7248">
        <ele>57.6</ele>
        <time>2018-02-04T09:38:13Z</time>
      </trkpt>
      <trkpt lat="48.00182" lon="-0.72496">
        <ele>59</ele>
        <time>2018-02-04T09:38:17Z</time>
      </trkpt>
      <trkpt lat="48.00186" lon="-0.72512">
        <ele>60.1</ele>
        <time>2018-02-04T09:38:21Z</time>
      </trkpt>
      <trkpt lat="48.0019" lon="-0.72529">
        <ele>61.1</ele>
        <time>2018-02-04T09:38:25Z</time>
      </trkpt>
      <trkpt lat="48.00188" lon="-0.72546">
        <ele>62.2</ele>
        <time>2018-02-04T09:38:29Z</time>
      </trkpt>
      <trkpt lat="48.00178" lon="-0.72554">
        <ele>62.3</ele>
        <time>2018-02-04T09:38:33Z</time>
      </trkpt>
      <trkpt lat="48.00164" lon="-0.72556">
        <ele>61.9</ele>
        <time>2018-02-04T09:38:37Z</time>
      </trkpt>
      <trkpt lat="48.00153" lon="-0.72571">
        <ele>62.4</ele>
        <time>2018-02-04T09:38:41Z</time>
      </trkpt>
      <trkpt lat="48.00144" lon="-0.72592">
        <ele>62.3</ele>
        <time>2018-02-04T09:38:45Z</time>
      </trkpt>
      <trkpt lat="48.00132" lon="-0.72611">
        <ele>61.7</ele>
        <time>2018-02-04T09:38:49Z</time>
      </trkpt>
      <trkpt lat="48.0012" lon="-0.72628">
        <ele>61.3</ele>
        <time>2018-02-04T09:38:53Z</time>
      </trkpt>
      <trkpt lat="48.00116" lon="-0.7265">
        <ele>61.3</ele>
        <time>2018-02-04T09:38:57Z</time>
      </trkpt>
      <trkpt lat="48.00117" lon="-0.72671">
        <ele>61.7</ele>
        <time>2018-02-04T09:39:01Z</time>
      </trkpt>
      <trkpt lat="48.00115" lon="-0.72691">
        <ele>62.8</ele>
        <time>2018-02-04T09:39:05Z</time>
      </trkpt>
      <trkpt lat="48.00113" lon="-0.72709">
        <ele>63.6</ele>
        <time>2018-02-04T09:39:09Z</time>
      </trkpt>
      <trkpt lat="48.00111" lon="-0.72726">
        <ele>64.2</ele>
        <time>2018-02-04T09:39:13Z</time>
      </trkpt>
      <trkpt lat="48.00107" lon="-0.72742">
        <ele>65.5</ele>
        <time>2018-02-04T09:39:17Z</time>
      </trkpt>
      <trkpt lat="48.00102" lon="-0.72758">
        <ele>66.4</ele>
        <time>2018-02-04T09:39:21Z</time>
      </trkpt>
      <trkpt lat="48.00097" lon="-0.72773">
        <ele>67.3</ele>
        <time>2018-02-04T09:39:25Z</time>
      </trkpt>
      <trkpt lat="48.00091" lon="-0.72787">
        <ele>68.2</ele>
        <time>2018-02-04T09:39:29Z</time>
      </trkpt>
      <trkpt lat="48.00084" lon="-0.72802">
        <ele>68.9</ele>
        <time>2018-02-04T09:39:33Z</time>
      </trkpt>
      <trkpt lat="48.00076" lon="-0.72815">
        <ele>70.1</ele>
        <time>2018-02-04T09:39:37Z</time>
      </trkpt>
      <trkpt lat="48.00071" lon="-0.7283">
        <ele>71.2</ele>
        <time>2018-02-04T09:39:41Z</time>
      </trkpt>
      <trkpt lat="48.00064" lon="-0.72847">
        <ele>72.2</ele>
        <time>2018-02-04T09:39:45Z</time>
      </trkpt>
      <trkpt lat="48.00057" lon="-0.72863">
        <ele>72.1</ele>
        <time>2018-02-04T09:39:49Z</time>
      </trkpt>
      <trkpt lat="48.00051" lon="-0.72878">
        <ele>72.8</ele>
        <time>2018-02-04T09:39:53Z</time>
      </trkpt>
      <trkpt lat="48.00045" lon="-0.72895">
        <ele>73.6</ele>
        <time>2018-02-04T09:39:57Z</time>
      </trkpt>
      <trkpt lat="48.00038" lon="-0.72911">
        <ele>74.4</ele>
        <time>2018-02-04T09:40:01Z</time>
      </trkpt>
      <trkpt lat="48.00032" lon="-0.72927">
        <ele>75</ele>
        <time>2018-02-04T09:40:05Z</time>
      </trkpt>
      <trkpt lat="48.00026" lon="-0.72944">
        <ele>75.1</ele>
        <time>2018-02-04T09:40:09Z</time>
      </trkpt>
      <trkpt lat="48.00019" lon="-0.72962">
        <ele>75.9</ele>
        <time>2018-02-04T09:40:13Z</time>
      </trkpt>
      <trkpt lat="48.00011" lon="-0.72981">
        <ele>76.5</ele>
        <time>2018-02-04T09:40:17Z</time>
      </trkpt>
      <trkpt lat="48.00003" lon="-0.73">
        <ele>76.1</ele>
        <time>2018-02-04T09:40:21Z</time>
      </trkpt>
      <trkpt lat="47.99995" lon="-0.73018">
        <ele>76.3</ele>
        <time>2018-02-04T09:40:25Z</time>
      </trkpt>
      <trkpt lat="47.99986" lon="-0.73038">
        <ele>77</ele>
        <time>2018-02-04T09:40:29Z</time>
      </trkpt>
      <trkpt lat="47.99977" lon="-0.73057">
        <ele>77</ele>
        <time>2018-02-04T09:40:33Z</time>
      </trkpt>
      <trkpt lat="47.99968" lon="-0.73078">
        <ele>76.5</ele>
        <time>2018-02-04T09:40:37Z</time>
      </trkpt>
      <trkpt lat="47.99958" lon="-0.731">
        <ele>76.7</ele>
        <time>2018-02-04T09:40:41Z</time>
      </trkpt>
      <trkpt lat="47.99948" lon="-0.73123">
        <ele>76.5</ele>
        <time>2018-02-04T09:40:45Z</time>
      </trkpt>
      <trkpt lat="47.99938" lon="-0.73147">
        <ele>75.9</ele>
        <time>2018-02-04T09:40:49Z</time>
      </trkpt>
      <trkpt lat="47.99928" lon="-0.73173">
        <ele>75.3</ele>
        <time>2018-02-04T09:40:53Z</time>
      </trkpt>
      <trkpt lat="47.99917" lon="-0.73199">
        <ele>73.8</ele>
        <time>2018-02-04T09:40:57Z</time>
      </trkpt>
      <trkpt lat="47.99908" lon="-0.73228">
        <ele>72.7</ele>
        <time>2018-02-04T09:41:01Z</time>
      </trkpt>
      <trkpt lat="47.99899" lon="-0.7326">
        <ele>71.4</ele>
        <time>2018-02-04T09:41:05Z</time>
      </trkpt>
      <trkpt lat="47.99889" lon="-0.73296">
        <ele>71</ele>
        <time>2018-02-04T09:41:09Z</time>
      </trkpt>
      <trkpt lat="47.9988" lon="-0.73332">
        <ele>69.7</ele>
        <time>2018-02-04T09:41:13Z</time>
      </trkpt>
      <trkpt lat="47.99872" lon="-0.73371">
        <ele>68.4</ele>
        <time>2018-02-04T09:41:17Z</time>
      </trkpt>
      <trkpt lat="47.99863" lon="-0.7341">
        <ele>67.3</ele>
        <time>2018-02-04T09:41:21Z</time>
      </trkpt>
      <trkpt lat="47.99854" lon="-0.73447">
        <ele>65.7</ele>
        <time>2018-02-04T09:41:25Z</time>
      </trkpt>
      <trkpt lat="47.99838" lon="-0.73484">
        <ele>64.7</ele>
        <time>2018-02-04T09:41:29Z</time>
      </trkpt>
      <trkpt lat="47.9982" lon="-0.73524">
        <ele>63.6</ele>
        <time>2018-02-04T09:41:33Z</time>
      </trkpt>
      <trkpt lat="47.99801" lon="-0.73558">
        <ele>61.9</ele>
        <time>2018-02-04T09:41:37Z</time>
      </trkpt>
      <trkpt lat="47.99779" lon="-0.7359">
        <ele>59.8</ele>
        <time>2018-02-04T09:41:41Z</time>
      </trkpt>
      <trkpt lat="47.99756" lon="-0.73625">
        <ele>58.5</ele>
        <time>2018-02-04T09:41:45Z</time>
      </trkpt>
      <trkpt lat="47.99732" lon="-0.73665">
        <ele>57.1</ele>
        <time>2018-02-04T09:41:49Z</time>
      </trkpt>
      <trkpt lat="47.99707" lon="-0.73708">
        <ele>55.3</ele>
        <time>2018-02-04T09:41:53Z</time>
      </trkpt>
      <trkpt lat="47.99682" lon="-0.73755">
        <ele>53.6</ele>
        <time>2018-02-04T09:41:57Z</time>
      </trkpt>
      <trkpt lat="47.99658" lon="-0.73803">
        <ele>51.1</ele>
        <time>2018-02-04T09:42:01Z</time>
      </trkpt>
      <trkpt lat="47.9964" lon="-0.73844">
        <ele>49</ele>
        <time>2018-02-04T09:42:05Z</time>
      </trkpt>
      <trkpt lat="47.99627" lon="-0.73872">
        <ele>48.2</ele>
        <time>2018-02-04T09:42:09Z</time>
      </trkpt>
      <trkpt lat="47.99636" lon="-0.73891">
        <ele>47.8</ele>
        <time>2018-02-04T09:42:13Z</time>
      </trkpt>
      <trkpt lat="47.99643" lon="-0.73915">
        <ele>46.9</ele>
        <time>2018-02-04T09:42:17Z</time>
      </trkpt>
      <trkpt lat="47.99645" lon="-0.73946">
        <ele>45.4</ele>
        <time>2018-02-04T09:42:21Z</time>
      </trkpt>
      <trkpt lat="47.99648" lon="-0.73977">
        <ele>43.2</ele>
        <time>2018-02-04T09:42:25Z</time>
      </trkpt>
      <trkpt lat="47.99653" lon="-0.74006">
        <ele>41.1</ele>
        <time>2018-02-04T09:42:29Z</time>
      </trkpt>
      <trkpt lat="47.99657" lon="-0.74032">
        <ele>39.4</ele>
        <time>2018-02-04T09:42:33Z</time>
      </trkpt>
      <trkpt lat="47.99662" lon="-0.7406">
        <ele>38</ele>
        <time>2018-02-04T09:42:37Z</time>
      </trkpt>
      <trkpt lat="47.99666" lon="-0.74087">
        <ele>38</ele>
        <time>2018-02-04T09:42:41Z</time>
      </trkpt>
      <trkpt lat="47.9967" lon="-0.74115">
        <ele>38</ele>
        <time>2018-02-04T09:42:45Z</time>
      </trkpt>
      <trkpt lat="47.99674" lon="-0.74142">
        <ele>38.7</ele>
        <time>2018-02-04T09:42:49Z</time>
      </trkpt>
      <trkpt lat="47.99678" lon="-0.74172">
        <ele>42.1</ele>
        <time>2018-02-04T09:42:53Z</time>
      </trkpt>
      <trkpt lat="47.99682" lon="-0.74204">
        <ele>43.6</ele>
        <time>2018-02-04T09:42:57Z</time>
      </trkpt>
      <trkpt lat="47.99684" lon="-0.74234">
        <ele>45.9</ele>
        <time>2018-02-04T09:43:01Z</time>
      </trkpt>
      <trkpt lat="47.99686" lon="-0.7426">
        <ele>47.8</ele>
        <time>2018-02-04T09:43:05Z</time>
      </trkpt>
      <trkpt lat="47.99687" lon="-0.74284">
        <ele>48.8</ele>
        <time>2018-02-04T09:43:09Z</time>
      </trkpt>
      <trkpt lat="47.99679" lon="-0.74294">
        <ele>49.1</ele>
        <time>2018-02-04T09:43:13Z</time>
      </trkpt>
      <trkpt lat="47.99671" lon="-0.74271">
        <ele>47.1</ele>
        <time>2018-02-04T09:43:17Z</time>
      </trkpt>
      <trkpt lat="47.99667" lon="-0.74237">
        <ele>44.6</ele>
        <time>2018-02-04T09:43:21Z</time>
      </trkpt>
      <trkpt lat="47.99663" lon="-0.74206">
        <ele>42.2</ele>
        <time>2018-02-04T09:43:25Z</time>
      </trkpt>
      <trkpt lat="47.99659" lon="-0.74183">
        <ele>41.3</ele>
        <time>2018-02-04T09:43:29Z</time>
      </trkpt>
      <trkpt lat="47.99661" lon="-0.74162">
        <ele>40.8</ele>
        <time>2018-02-04T09:43:33Z</time>
      </trkpt>
      <trkpt lat="47.99664" lon="-0.7415">
        <ele>39.4</ele>
        <time>2018-02-04T09:43:37Z</time>
      </trkpt>
      <trkpt lat="47.99678" lon="-0.74143">
        <ele>38.9</ele>
        <time>2018-02-04T09:43:41Z</time>
      </trkpt>
      <trkpt lat="47.99693" lon="-0.74144">
        <ele>39.5</ele>
        <time>2018-02-04T09:43:45Z</time>
      </trkpt>
      <trkpt lat="47.99713" lon="-0.74137">
        <ele>39.5</ele>
        <time>2018-02-04T09:43:49Z</time>
      </trkpt>
      <trkpt lat="47.99731" lon="-0.74131">
        <ele>39.2</ele>
        <time>2018-02-04T09:43:53Z</time>
      </trkpt>
      <trkpt lat="47.9975" lon="-0.74125">
        <ele>38.5</ele>
        <time>2018-02-04T09:43:57Z</time>
      </trkpt>
      <trkpt lat="47.99768" lon="-0.7412">
        <ele>39.4</ele>
        <time>2018-02-04T09:44:01Z</time>
      </trkpt>
      <trkpt lat="47.99784" lon="-0.74115">
        <ele>40.2</ele>
        <time>2018-02-04T09:44:05Z</time>
      </trkpt>
      <trkpt lat="47.99801" lon="-0.74109">
        <ele>40.8</ele>
        <time>2018-02-04T09:44:09Z</time>
      </trkpt>
      <trkpt lat="47.99816" lon="-0.74103">
        <ele>41</ele>
        <time>2018-02-04T09:44:13Z</time>
      </trkpt>
      <trkpt lat="47.99833" lon="-0.74097">
        <ele>41</ele>
        <time>2018-02-04T09:44:17Z</time>
      </trkpt>
      <trkpt lat="47.9985" lon="-0.74092">
        <ele>41</ele>
        <time>2018-02-04T09:44:21Z</time>
      </trkpt>
      <trkpt lat="47.99868" lon="-0.74085">
        <ele>41</ele>
        <time>2018-02-04T09:44:25Z</time>
      </trkpt>
      <trkpt lat="47.99885" lon="-0.74079">
        <ele>40.8</ele>
        <time>2018-02-04T09:44:29Z</time>
      </trkpt>
      <trkpt lat="47.99902" lon="-0.74072">
        <ele>40.8</ele>
        <time>2018-02-04T09:44:33Z</time>
      </trkpt>
      <trkpt lat="47.99919" lon="-0.74063">
        <ele>41</ele>
        <time>2018-02-04T09:44:37Z</time>
      </trkpt>
      <trkpt lat="47.99935" lon="-0.7405">
        <ele>40.9</ele>
        <time>2018-02-04T09:44:41Z</time>
      </trkpt>
      <trkpt lat="47.9995" lon="-0.74035">
        <ele>41.1</ele>
        <time>2018-02-04T09:44:45Z</time>
      </trkpt>
      <trkpt lat="47.99965" lon="-0.74018">
        <ele>40.9</ele>
        <time>2018-02-04T09:44:49Z</time>
      </trkpt>
      <trkpt lat="47.99978" lon="-0.74">
        <ele>41</ele>
        <time>2018-02-04T09:44:53Z</time>
      </trkpt>
      <trkpt lat="47.99993" lon="-0.73983">
        <ele>40.9</ele>
        <time>2018-02-04T09:44:57Z</time>
      </trkpt>
      <trkpt lat="48.00008" lon="-0.73967">
        <ele>41.1</ele>
        <time>2018-02-04T09:45:01Z</time>
      </trkpt>
      <trkpt lat="48.00023" lon="-0.7395">
        <ele>41</ele>
        <time>2018-02-04T09:45:05Z</time>
      </trkpt>
      <trkpt lat="48.00037" lon="-0.73934">
        <ele>41.9</ele>
        <time>2018-02-04T09:45:09Z</time>
      </trkpt>
      <trkpt lat="48.00052" lon="-0.7392">
        <ele>41.5</ele>
        <time>2018-02-04T09:45:13Z</time>
      </trkpt>
      <trkpt lat="48.00067" lon="-0.73906">
        <ele>43.8</ele>
        <time>2018-02-04T09:45:17Z</time>
      </trkpt>
      <trkpt lat="48.00081" lon="-0.73893">
        <ele>43.9</ele>
        <time>2018-02-04T09:45:21Z</time>
      </trkpt>
      <trkpt lat="48.00096" lon="-0.73888">
        <ele>43.8</ele>
        <time>2018-02-04T09:45:25Z</time>
      </trkpt>
      <trkpt lat="48.00112" lon="-0.73884">
        <ele>44.1</ele>
        <time>2018-02-04T09:45:29Z</time>
      </trkpt>
      <trkpt lat="48.00131" lon="-0.7388">
        <ele>42.9</ele>
        <time>2018-02-04T09:45:33Z</time>
      </trkpt>
      <trkpt lat="48.00148" lon="-0.73875">
        <ele>41.8</ele>
        <time>2018-02-04T09:45:37Z</time>
      </trkpt>
      <trkpt lat="48.00164" lon="-0.73868">
        <ele>41.2</ele>
        <time>2018-02-04T09:45:41Z</time>
      </trkpt>
      <trkpt lat="48.00184" lon="-0.73868">
        <ele>41.3</ele>
        <time>2018-02-04T09:45:45Z</time>
      </trkpt>
      <trkpt lat="48.00201" lon="-0.73862">
        <ele>41</ele>
        <time>2018-02-04T09:45:49Z</time>
      </trkpt>
      <trkpt lat="48.00217" lon="-0.73857">
        <ele>40.9</ele>
        <time>2018-02-04T09:45:53Z</time>
      </trkpt>
      <trkpt lat="48.00232" lon="-0.7385">
        <ele>41.4</ele>
        <time>2018-02-04T09:45:57Z</time>
      </trkpt>
      <trkpt lat="48.00249" lon="-0.73842">
        <ele>41.9</ele>
        <time>2018-02-04T09:46:01Z</time>
      </trkpt>
      <trkpt lat="48.00267" lon="-0.73835">
        <ele>41.8</ele>
        <time>2018-02-04T09:46:05Z</time>
      </trkpt>
      <trkpt lat="48.00284" lon="-0.73828">
        <ele>41.6</ele>
        <time>2018-02-04T09:46:09Z</time>
      </trkpt>
      <trkpt lat="48.00301" lon="-0.73823">
        <ele>41.2</ele>
        <time>2018-02-04T09:46:13Z</time>
      </trkpt>
      <trkpt lat="48.00317" lon="-0.73822">
        <ele>41.2</ele>
        <time>2018-02-04T09:46:17Z</time>
      </trkpt>
      <trkpt lat="48.00332" lon="-0.73829">
        <ele>41.7</ele>
        <time>2018-02-04T09:46:21Z</time>
      </trkpt>
      <trkpt lat="48.00343" lon="-0.73837">
        <ele>41.6</ele>
        <time>2018-02-04T09:46:25Z</time>
      </trkpt>
      <trkpt lat="48.00354" lon="-0.73848">
        <ele>41.9</ele>
        <time>2018-02-04T09:46:29Z</time>
      </trkpt>
      <trkpt lat="48.00364" lon="-0.73861">
        <ele>42.7</ele>
        <time>2018-02-04T09:46:33Z</time>
      </trkpt>
      <trkpt lat="48.00379" lon="-0.7388">
        <ele>43.3</ele>
        <time>2018-02-04T09:46:37Z</time>
      </trkpt>
      <trkpt lat="48.00395" lon="-0.73898">
        <ele>44.3</ele>
        <time>2018-02-04T09:46:41Z</time>
      </trkpt>
      <trkpt lat="48.00407" lon="-0.73917">
        <ele>44.8</ele>
        <time>2018-02-04T09:46:45Z</time>
      </trkpt>
      <trkpt lat="48.00421" lon="-0.73928">
        <ele>43.5</ele>
        <time>2018-02-04T09:46:49Z</time>
      </trkpt>
      <trkpt lat="48.00443" lon="-0.73933">
        <ele>41.4</ele>
        <time>2018-02-04T09:46:53Z</time>
      </trkpt>
      <trkpt lat="48.00462" lon="-0.73941">
        <ele>41.2</ele>
        <time>2018-02-04T09:46:57Z</time>
      </trkpt>
      <trkpt lat="48.00481" lon="-0.73947">
        <ele>40.9</ele>
        <time>2018-02-04T09:47:01Z</time>
      </trkpt>
      <trkpt lat="48.00499" lon="-0.73955">
        <ele>40.9</ele>
        <time>2018-02-04T09:47:05Z</time>
      </trkpt>
      <trkpt lat="48.00521" lon="-0.73961">
        <ele>41.2</ele>
        <time>2018-02-04T09:47:09Z</time>
      </trkpt>
      <trkpt lat="48.00539" lon="-0.73958">
        <ele>41.2</ele>
        <time>2018-02-04T09:47:13Z</time>
      </trkpt>
      <trkpt lat="48.00556" lon="-0.73955">
        <ele>41.4</ele>
        <time>2018-02-04T09:47:17Z</time>
      </trkpt>
      <trkpt lat="48.00576" lon="-0.73953">
        <ele>41.3</ele>
        <time>2018-02-04T09:47:21Z</time>
      </trkpt>
      <trkpt lat="48.00595" lon="-0.7395">
        <ele>41.2</ele>
        <time>2018-02-04T09:47:25Z</time>
      </trkpt>
      <trkpt lat="48.00613" lon="-0.73949">
        <ele>41.2</ele>
        <time>2018-02-04T09:47:29Z</time>
      </trkpt>
      <trkpt lat="48.00632" lon="-0.73948">
        <ele>41.1</ele>
        <time>2018-02-04T09:47:33Z</time>
      </trkpt>
      <trkpt lat="48.0065" lon="-0.73947">
        <ele>41.1</ele>
        <time>2018-02-04T09:47:37Z</time>
      </trkpt>
      <trkpt lat="48.00668" lon="-0.73947">
        <ele>41.1</ele>
        <time>2018-02-04T09:47:41Z</time>
      </trkpt>
      <trkpt lat="48.00686" lon="-0.73947">
        <ele>41.1</ele>
        <time>2018-02-04T09:47:45Z</time>
      </trkpt>
      <trkpt lat="48.00704" lon="-0.73947">
        <ele>41.1</ele>
        <time>2018-02-04T09:47:49Z</time>
      </trkpt>
      <trkpt lat="48.00722" lon="-0.73947">
        <ele>41.1</ele>
        <time>2018-02-04T09:47:53Z</time>
      </trkpt>
      <trkpt lat="48.0074" lon="-0.73946">
        <ele>41.1</ele>
        <time>2018-02-04T09:47:57Z</time>
      </trkpt>
      <trkpt lat="48.00758" lon="-0.73945">
        <ele>41</ele>
        <time>2018-02-04T09:48:01Z</time>
      </trkpt>
      <trkpt lat="48.00776" lon="-0.73942">
        <ele>40.9</ele>
        <time>2018-02-04T09:48:05Z</time>
      </trkpt>
      <trkpt lat="48.00793" lon="-0.73936">
        <ele>40.7</ele>
        <time>2018-02-04T09:48:09Z</time>
      </trkpt>
      <trkpt lat="48.00811" lon="-0.7393">
        <ele>40.5</ele>
        <time>2018-02-04T09:48:13Z</time>
      </trkpt>
      <trkpt lat="48.00828" lon="-0.7393">
        <ele>40.5</ele>
        <time>2018-02-04T09:48:17Z</time>
      </trkpt>
      <trkpt lat="48.00844" lon="-0.73936">
        <ele>40.7</ele>
        <time>2018-02-04T09:48:21Z</time>
      </trkpt>
      <trkpt lat="48.00861" lon="-0.73944">
        <ele>41</ele>
        <time>2018-02-04T09:48:25Z</time>
      </trkpt>
      <trkpt lat="48.00875" lon="-0.73952">
        <ele>41.3</ele>
        <time>2018-02-04T09:48:29Z</time>
      </trkpt>
      <trkpt lat="48.00891" lon="-0.73959">
        <ele>41.4</ele>
        <time>2018-02-04T09:48:33Z</time>
      </trkpt>
      <trkpt lat="48.00909" lon="-0.73968">
        <ele>41.1</ele>
        <time>2018-02-04T09:48:37Z</time>
      </trkpt>
      <trkpt lat="48.00928" lon="-0.7398">
        <ele>41</ele>
        <time>2018-02-04T09:48:41Z</time>
      </trkpt>
      <trkpt lat="48.00946" lon="-0.73988">
        <ele>41.1</ele>
        <time>2018-02-04T09:48:45Z</time>
      </trkpt>
      <trkpt lat="48.00962" lon="-0.73995">
        <ele>41.1</ele>
        <time>2018-02-04T09:48:49Z</time>
      </trkpt>
      <trkpt lat="48.0098" lon="-0.74002">
        <ele>41.1</ele>
        <time>2018-02-04T09:48:53Z</time>
      </trkpt>
      <trkpt lat="48.00997" lon="-0.74009">
        <ele>41.3</ele>
        <time>2018-02-04T09:48:57Z</time>
      </trkpt>
      <trkpt lat="48.01012" lon="-0.74013">
        <ele>41.2</ele>
        <time>2018-02-04T09:49:01Z</time>
      </trkpt>
      <trkpt lat="48.01029" lon="-0.74019">
        <ele>41.4</ele>
        <time>2018-02-04T09:49:05Z</time>
      </trkpt>
      <trkpt lat="48.01048" lon="-0.74023">
        <ele>41.7</ele>
        <time>2018-02-04T09:49:09Z</time>
      </trkpt>
      <trkpt lat="48.01066" lon="-0.74029">
        <ele>41.8</ele>
        <time>2018-02-04T09:49:13Z</time>
      </trkpt>
      <trkpt lat="48.0108" lon="-0.74033">
        <ele>41.7</ele>
        <time>2018-02-04T09:49:17Z</time>
      </trkpt>
      <trkpt lat="48.01093" lon="-0.74041">
        <ele>42.2</ele>
        <time>2018-02-04T09:49:21Z</time>
      </trkpt>
      <trkpt lat="48.01111" lon="-0.74047">
        <ele>42.7</ele>
        <time>2018-02-04T09:49:25Z</time>
      </trkpt>
      <trkpt lat="48.01128" lon="-0.74053">
        <ele>43.1</ele>
        <time>2018-02-04T09:49:29Z</time>
      </trkpt>
      <trkpt lat="48.01145" lon="-0.74058">
        <ele>43.1</ele>
        <time>2018-02-04T09:49:33Z</time>
      </trkpt>
      <trkpt lat="48.01161" lon="-0.74064">
        <ele>43.3</ele>
        <time>2018-02-04T09:49:37Z</time>
      </trkpt>
      <trkpt lat="48.01176" lon="-0.7407">
        <ele>44</ele>
        <time>2018-02-04T09:49:41Z</time>
      </trkpt>
      <trkpt lat="48.0119" lon="-0.74074">
        <ele>44.4</ele>
        <time>2018-02-04T09:49:45Z</time>
      </trkpt>
      <trkpt lat="48.01205" lon="-0.7408">
        <ele>44.1</ele>
        <time>2018-02-04T09:49:49Z</time>
      </trkpt>
      <trkpt lat="48.01217" lon="-0.74087">
        <ele>44.3</ele>
        <time>2018-02-04T09:49:53Z</time>
      </trkpt>
      <trkpt lat="48.01232" lon="-0.74096">
        <ele>44.7</ele>
        <time>2018-02-04T09:49:57Z</time>
      </trkpt>
      <trkpt lat="48.01248" lon="-0.74104">
        <ele>44.3</ele>
        <time>2018-02-04T09:50:01Z</time>
      </trkpt>
      <trkpt lat="48.01264" lon="-0.74113">
        <ele>43.7</ele>
        <time>2018-02-04T09:50:05Z</time>
      </trkpt>
      <trkpt lat="48.01281" lon="-0.74124">
        <ele>43.6</ele>
        <time>2018-02-04T09:50:09Z</time>
      </trkpt>
      <trkpt lat="48.01297" lon="-0.74137">
        <ele>43.8</ele>
        <time>2018-02-04T09:50:13Z</time>
      </trkpt>
      <trkpt lat="48.0131" lon="-0.74151">
        <ele>44</ele>
        <time>2018-02-04T09:50:17Z</time>
      </trkpt>
      <trkpt lat="48.01321" lon="-0.74161">
        <ele>43.8</ele>
        <time>2018-02-04T09:50:21Z</time>
      </trkpt>
      <trkpt lat="48.01336" lon="-0.74173">
        <ele>43.6</ele>
        <time>2018-02-04T09:50:25Z</time>
      </trkpt>
      <trkpt lat="48.01354" lon="-0.74187">
        <ele>43.4</ele>
        <time>2018-02-04T09:50:29Z</time>
      </trkpt>
      <trkpt lat="48.01372" lon="-0.742">
        <ele>43.6</ele>
        <time>2018-02-04T09:50:33Z</time>
      </trkpt>
      <trkpt lat="48.01387" lon="-0.7421">
        <ele>44.4</ele>
        <time>2018-02-04T09:50:37Z</time>
      </trkpt>
      <trkpt lat="48.01408" lon="-0.74223">
        <ele>44.2</ele>
        <time>2018-02-04T09:50:41Z</time>
      </trkpt>
      <trkpt lat="48.0143" lon="-0.74242">
        <ele>45.3</ele>
        <time>2018-02-04T09:50:45Z</time>
      </trkpt>
      <trkpt lat="48.0145" lon="-0.74259">
        <ele>45.2</ele>
        <time>2018-02-04T09:50:49Z</time>
      </trkpt>
      <trkpt lat="48.0147" lon="-0.74272">
        <ele>43.9</ele>
        <time>2018-02-04T09:50:53Z</time>
      </trkpt>
      <trkpt lat="48.01491" lon="-0.74281">
        <ele>43</ele>
        <time>2018-02-04T09:50:57Z</time>
      </trkpt>
      <trkpt lat="48.01509" lon="-0.74293">
        <ele>42.8</ele>
        <time>2018-02-04T09:51:01Z</time>
      </trkpt>
      <trkpt lat="48.01526" lon="-0.74312">
        <ele>43.1</ele>
        <time>2018-02-04T09:51:05Z</time>
      </trkpt>
      <trkpt lat="48.01543" lon="-0.74331">
        <ele>43.7</ele>
        <time>2018-02-04T09:51:09Z</time>
      </trkpt>
      <trkpt lat="48.01562" lon="-0.74344">
        <ele>44.2</ele>
        <time>2018-02-04T09:51:13Z</time>
      </trkpt>
      <trkpt lat="48.0158" lon="-0.74356">
        <ele>44</ele>
        <time>2018-02-04T09:51:17Z</time>
      </trkpt>
      <trkpt lat="48.01598" lon="-0.74366">
        <ele>43.9</ele>
        <time>2018-02-04T09:51:21Z</time>
      </trkpt>
      <trkpt lat="48.01614" lon="-0.74375">
        <ele>43.8</ele>
        <time>2018-02-04T09:51:25Z</time>
      </trkpt>
      <trkpt lat="48.01628" lon="-0.74385">
        <ele>43.2</ele>
        <time>2018-02-04T09:51:29Z</time>
      </trkpt>
      <trkpt lat="48.01642" lon="-0.74392">
        <ele>42.5</ele>
        <time>2018-02-04T09:51:33Z</time>
      </trkpt>
      <trkpt lat="48.01654" lon="-0.744">
        <ele>43.6</ele>
        <time>2018-02-04T09:51:37Z</time>
      </trkpt>
      <trkpt lat="48.01669" lon="-0.7441">
        <ele>43.4</ele>
        <time>2018-02-04T09:51:41Z</time>
      </trkpt>
      <trkpt lat="48.01693" lon="-0.74418">
        <ele>43.2</ele>
        <time>2018-02-04T09:51:45Z</time>
      </trkpt>
      <trkpt lat="48.01714" lon="-0.74424">
        <ele>43.1</ele>
        <time>2018-02-04T09:51:49Z</time>
      </trkpt>
      <trkpt lat="48.01735" lon="-0.74427">
        <ele>42.8</ele>
        <time>2018-02-04T09:51:53Z</time>
      </trkpt>
      <trkpt lat="48.01757" lon="-0.74433">
        <ele>42.5</ele>
        <time>2018-02-04T09:51:57Z</time>
      </trkpt>
      <trkpt lat="48.0178" lon="-0.7444">
        <ele>42.6</ele>
        <time>2018-02-04T09:52:01Z</time>
      </trkpt>
      <trkpt lat="48.01803" lon="-0.74446">
        <ele>42.1</ele>
        <time>2018-02-04T09:52:05Z</time>
      </trkpt>
      <trkpt lat="48.01826" lon="-0.74452">
        <ele>42.3</ele>
        <time>2018-02-04T09:52:09Z</time>
      </trkpt>
      <trkpt lat="48.01842" lon="-0.74456">
        <ele>42.3</ele>
        <time>2018-02-04T09:52:13Z</time>
      </trkpt>
      <trkpt lat="48.01852" lon="-0.7446">
        <ele>42.3</ele>
        <time>2018-02-04T09:52:17Z</time>
      </trkpt>
      <trkpt lat="48.01864" lon="-0.74463">
        <ele>42.3</ele>
        <time>2018-02-04T09:54:49Z</time>
      </trkpt>
      <trkpt lat="48.01869" lon="-0.74464">
        <ele>42.2</ele>
        <time>2018-02-04T09:54:53Z</time>
      </trkpt>
      <trkpt lat="48.01875" lon="-0.74468">
        <ele>42.3</ele>
        <time>2018-02-04T09:54:57Z</time>
      </trkpt>
      <trkpt lat="48.01882" lon="-0.7447">
        <ele>42.2</ele>
        <time>2018-02-04T09:55:01Z</time>
      </trkpt>
      <trkpt lat="48.01888" lon="-0.74473">
        <ele>42.1</ele>
        <time>2018-02-04T09:55:05Z</time>
      </trkpt>
      <trkpt lat="48.01894" lon="-0.74476">
        <ele>42</ele>
        <time>2018-02-04T09:55:09Z</time>
      </trkpt>
      <trkpt lat="48.01901" lon="-0.74481">
        <ele>42</ele>
        <time>2018-02-04T09:55:13Z</time>
      </trkpt>
      <trkpt lat="48.0191" lon="-0.74487">
        <ele>42.2</ele>
        <time>2018-02-04T09:55:17Z</time>
      </trkpt>
      <trkpt lat="48.01923" lon="-0.74495">
        <ele>42.5</ele>
        <time>2018-02-04T09:55:21Z</time>
      </trkpt>
      <trkpt lat="48.01934" lon="-0.74504">
        <ele>42.5</ele>
        <time>2018-02-04T09:55:25Z</time>
      </trkpt>
      <trkpt lat="48.01952" lon="-0.74512">
        <ele>42.2</ele>
        <time>2018-02-04T09:55:29Z</time>
      </trkpt>
      <trkpt lat="48.01969" lon="-0.74523">
        <ele>42</ele>
        <time>2018-02-04T09:55:33Z</time>
      </trkpt>
      <trkpt lat="48.01983" lon="-0.7454">
        <ele>42.2</ele>
        <time>2018-02-04T09:55:37Z</time>
      </trkpt>
      <trkpt lat="48.01983" lon="-0.74556">
        <ele>43</ele>
        <time>2018-02-04T09:55:41Z</time>
      </trkpt>
      <trkpt lat="48.0198" lon="-0.74568">
        <ele>43</ele>
        <time>2018-02-04T09:55:45Z</time>
      </trkpt>
      <trkpt lat="48.01977" lon="-0.7458">
        <ele>43</ele>
        <time>2018-02-04T09:55:49Z</time>
      </trkpt>
      <trkpt lat="48.01972" lon="-0.74592">
        <ele>43.3</ele>
        <time>2018-02-04T09:55:53Z</time>
      </trkpt>
      <trkpt lat="48.01968" lon="-0.74603">
        <ele>43.9</ele>
        <time>2018-02-04T09:55:57Z</time>
      </trkpt>
      <trkpt lat="48.01963" lon="-0.7461">
        <ele>44.3</ele>
        <time>2018-02-04T09:56:13Z</time>
      </trkpt>
      <trkpt lat="48.01962" lon="-0.74614">
        <ele>44.7</ele>
        <time>2018-02-04T09:56:17Z</time>
      </trkpt>
      <trkpt lat="48.01962" lon="-0.74619">
        <ele>45.3</ele>
        <time>2018-02-04T09:56:21Z</time>
      </trkpt>
      <trkpt lat="48.01963" lon="-0.74624">
        <ele>45.9</ele>
        <time>2018-02-04T09:56:25Z</time>
      </trkpt>
      <trkpt lat="48.01964" lon="-0.7463">
        <ele>46.4</ele>
        <time>2018-02-04T09:56:29Z</time>
      </trkpt>
      <trkpt lat="48.0197" lon="-0.74641">
        <ele>46.9</ele>
        <time>2018-02-04T09:56:37Z</time>
      </trkpt>
      <trkpt lat="48.01972" lon="-0.74644">
        <ele>47</ele>
        <time>2018-02-04T09:56:41Z</time>
      </trkpt>
      <trkpt lat="48.01973" lon="-0.74649">
        <ele>47.8</ele>
        <time>2018-02-04T09:56:45Z</time>
      </trkpt>
      <trkpt lat="48.01975" lon="-0.74655">
        <ele>48.5</ele>
        <time>2018-02-04T09:56:49Z</time>
      </trkpt>
      <trkpt lat="48.01976" lon="-0.74659">
        <ele>49.2</ele>
        <time>2018-02-04T09:56:53Z</time>
      </trkpt>
      <trkpt lat="48.01977" lon="-0.74663">
        <ele>49.8</ele>
        <time>2018-02-04T09:56:57Z</time>
      </trkpt>
      <trkpt lat="48.01977" lon="-0.74665">
        <ele>50.1</ele>
        <time>2018-02-04T09:57:01Z</time>
      </trkpt>
      <trkpt lat="48.01978" lon="-0.7467">
        <ele>50.8</ele>
        <time>2018-02-04T09:57:05Z</time>
      </trkpt>
      <trkpt lat="48.01978" lon="-0.74674">
        <ele>51.7</ele>
        <time>2018-02-04T09:57:09Z</time>
      </trkpt>
      <trkpt lat="48.01977" lon="-0.74678">
        <ele>52.7</ele>
        <time>2018-02-04T09:57:13Z</time>
      </trkpt>
      <trkpt lat="48.01977" lon="-0.74682">
        <ele>53.4</ele>
        <time>2018-02-04T09:57:17Z</time>
      </trkpt>
      <trkpt lat="48.01976" lon="-0.74689">
        <ele>54.7</ele>
        <time>2018-02-04T09:57:25Z</time>
      </trkpt>
      <trkpt lat="48.01975" lon="-0.74691">
        <ele>55.3</ele>
        <time>2018-02-04T09:57:29Z</time>
      </trkpt>
      <trkpt lat="48.01974" lon="-0.74695">
        <ele>56</ele>
        <time>2018-02-04T09:57:33Z</time>
      </trkpt>
      <trkpt lat="48.01973" lon="-0.74698">
        <ele>56.7</ele>
        <time>2018-02-04T09:57:37Z</time>
      </trkpt>
      <trkpt lat="48.01973" lon="-0.74701">
        <ele>57.1</ele>
        <time>2018-02-04T09:57:41Z</time>
      </trkpt>
      <trkpt lat="48.01971" lon="-0.74705">
        <ele>58.3</ele>
        <time>2018-02-04T09:57:45Z</time>
      </trkpt>
      <trkpt lat="48.0197" lon="-0.74707">
        <ele>59.1</ele>
        <time>2018-02-04T09:57:49Z</time>
      </trkpt>
      <trkpt lat="48.01969" lon="-0.74709">
        <ele>59.6</ele>
        <time>2018-02-04T09:57:53Z</time>
      </trkpt>
      <trkpt lat="48.01969" lon="-0.74708">
        <ele>59.6</ele>
        <time>2018-02-04T09:57:57Z</time>
      </trkpt>
      <trkpt lat="48.01965" lon="-0.7471">
        <ele>61.1</ele>
        <time>2018-02-04T09:58:01Z</time>
      </trkpt>
      <trkpt lat="48.01962" lon="-0.74711">
        <ele>62.5</ele>
        <time>2018-02-04T09:58:05Z</time>
      </trkpt>
      <trkpt lat="48.01958" lon="-0.74713">
        <ele>64</ele>
        <time>2018-02-04T09:58:21Z</time>
      </trkpt>
      <trkpt lat="48.01956" lon="-0.74714">
        <ele>64.7</ele>
        <time>2018-02-04T09:58:25Z</time>
      </trkpt>
      <trkpt lat="48.01952" lon="-0.74716">
        <ele>66.2</ele>
        <time>2018-02-04T09:58:33Z</time>
      </trkpt>
      <trkpt lat="48.0195" lon="-0.74717">
        <ele>66.9</ele>
        <time>2018-02-04T09:58:37Z</time>
      </trkpt>
      <trkpt lat="48.01948" lon="-0.74718">
        <ele>67.7</ele>
        <time>2018-02-04T09:58:41Z</time>
      </trkpt>
      <trkpt lat="48.01945" lon="-0.74719">
        <ele>68.7</ele>
        <time>2018-02-04T09:58:45Z</time>
      </trkpt>
      <trkpt lat="48.01943" lon="-0.74719">
        <ele>69</ele>
        <time>2018-02-04T09:58:49Z</time>
      </trkpt>
      <trkpt lat="48.01941" lon="-0.74722">
        <ele>69.4</ele>
        <time>2018-02-04T09:58:53Z</time>
      </trkpt>
      <trkpt lat="48.01942" lon="-0.74724">
        <ele>69.4</ele>
        <time>2018-02-04T09:59:13Z</time>
      </trkpt>
      <trkpt lat="48.0194" lon="-0.7473">
        <ele>69.9</ele>
        <time>2018-02-04T09:59:25Z</time>
      </trkpt>
      <trkpt lat="48.0194" lon="-0.74737">
        <ele>70.2</ele>
        <time>2018-02-04T09:59:29Z</time>
      </trkpt>
      <trkpt lat="48.01939" lon="-0.74748">
        <ele>70.9</ele>
        <time>2018-02-04T09:59:33Z</time>
      </trkpt>
      <trkpt lat="48.01938" lon="-0.74758">
        <ele>71.8</ele>
        <time>2018-02-04T09:59:37Z</time>
      </trkpt>
      <trkpt lat="48.01937" lon="-0.74768">
        <ele>72.7</ele>
        <time>2018-02-04T09:59:41Z</time>
      </trkpt>
      <trkpt lat="48.01936" lon="-0.74777">
        <ele>73.4</ele>
        <time>2018-02-04T09:59:45Z</time>
      </trkpt>
      <trkpt lat="48.01935" lon="-0.74786">
        <ele>74.1</ele>
        <time>2018-02-04T09:59:49Z</time>
      </trkpt>
      <trkpt lat="48.01934" lon="-0.74793">
        <ele>74.8</ele>
        <time>2018-02-04T09:59:53Z</time>
      </trkpt>
      <trkpt lat="48.01933" lon="-0.748">
        <ele>75.3</ele>
        <time>2018-02-04T09:59:57Z</time>
      </trkpt>
      <trkpt lat="48.01932" lon="-0.74804">
        <ele>75.7</ele>
        <time>2018-02-04T10:00:01Z</time>
      </trkpt>
      <trkpt lat="48.01931" lon="-0.74808">
        <ele>76.1</ele>
        <time>2018-02-04T10:00:09Z</time>
      </trkpt>
      <trkpt lat="48.01931" lon="-0.74811">
        <ele>76.5</ele>
        <time>2018-02-04T10:00:13Z</time>
      </trkpt>
      <trkpt lat="48.0193" lon="-0.74816">
        <ele>77</ele>
        <time>2018-02-04T10:00:21Z</time>
      </trkpt>
      <trkpt lat="48.01929" lon="-0.7482">
        <ele>77.5</ele>
        <time>2018-02-04T10:00:25Z</time>
      </trkpt>
      <trkpt lat="48.01928" lon="-0.74824">
        <ele>78</ele>
        <time>2018-02-04T10:00:29Z</time>
      </trkpt>
      <trkpt lat="48.01927" lon="-0.74829">
        <ele>78.5</ele>
        <time>2018-02-04T10:00:33Z</time>
      </trkpt>
      <trkpt lat="48.01926" lon="-0.74834">
        <ele>79</ele>
        <time>2018-02-04T10:00:37Z</time>
      </trkpt>
      <trkpt lat="48.01925" lon="-0.74839">
        <ele>79.4</ele>
        <time>2018-02-04T10:00:41Z</time>
      </trkpt>
      <trkpt lat="48.01925" lon="-0.74841">
        <ele>79.5</ele>
        <time>2018-02-04T10:00:45Z</time>
      </trkpt>
      <trkpt lat="48.01926" lon="-0.74845">
        <ele>79.6</ele>
        <time>2018-02-04T10:00:49Z</time>
      </trkpt>
      <trkpt lat="48.01928" lon="-0.7485">
        <ele>79.8</ele>
        <time>2018-02-04T10:00:53Z</time>
      </trkpt>
      <trkpt lat="48.0193" lon="-0.74854">
        <ele>80</ele>
        <time>2018-02-04T10:00:57Z</time>
      </trkpt>
      <trkpt lat="48.01933" lon="-0.74858">
        <ele>80.3</ele>
        <time>2018-02-04T10:01:01Z</time>
      </trkpt>
      <trkpt lat="48.01934" lon="-0.74862">
        <ele>80.7</ele>
        <time>2018-02-04T10:01:05Z</time>
      </trkpt>
      <trkpt lat="48.01936" lon="-0.74865">
        <ele>80.9</ele>
        <time>2018-02-04T10:01:09Z</time>
      </trkpt>
      <trkpt lat="48.01937" lon="-0.74868">
        <ele>81.2</ele>
        <time>2018-02-04T10:01:13Z</time>
      </trkpt>
      <trkpt lat="48.01939" lon="-0.74872">
        <ele>81.5</ele>
        <time>2018-02-04T10:01:17Z</time>
      </trkpt>
      <trkpt lat="48.01941" lon="-0.74876">
        <ele>81.9</ele>
        <time>2018-02-04T10:01:21Z</time>
      </trkpt>
      <trkpt lat="48.01942" lon="-0.7488">
        <ele>82.2</ele>
        <time>2018-02-04T10:01:25Z</time>
      </trkpt>
      <trkpt lat="48.01945" lon="-0.74884">
        <ele>82.7</ele>
        <time>2018-02-04T10:01:29Z</time>
      </trkpt>
      <trkpt lat="48.01947" lon="-0.74887">
        <ele>83.3</ele>
        <time>2018-02-04T10:01:33Z</time>
      </trkpt>
      <trkpt lat="48.0195" lon="-0.74891">
        <ele>83.9</ele>
        <time>2018-02-04T10:01:37Z</time>
      </trkpt>
      <trkpt lat="48.01953" lon="-0.74895">
        <ele>84.5</ele>
        <time>2018-02-04T10:01:41Z</time>
      </trkpt>
      <trkpt lat="48.01956" lon="-0.74898">
        <ele>85</ele>
        <time>2018-02-04T10:01:45Z</time>
      </trkpt>
      <trkpt lat="48.01959" lon="-0.74901">
        <ele>85.5</ele>
        <time>2018-02-04T10:01:49Z</time>
      </trkpt>
      <trkpt lat="48.01959" lon="-0.74904">
        <ele>85.7</ele>
        <time>2018-02-04T10:01:53Z</time>
      </trkpt>
      <trkpt lat="48.01958" lon="-0.7491">
        <ele>85.7</ele>
        <time>2018-02-04T10:01:57Z</time>
      </trkpt>
      <trkpt lat="48.01957" lon="-0.74915">
        <ele>85.7</ele>
        <time>2018-02-04T10:02:01Z</time>
      </trkpt>
      <trkpt lat="48.01956" lon="-0.74922">
        <ele>85.9</ele>
        <time>2018-02-04T10:02:05Z</time>
      </trkpt>
      <trkpt lat="48.01954" lon="-0.74929">
        <ele>86</ele>
        <time>2018-02-04T10:02:09Z</time>
      </trkpt>
      <trkpt lat="48.01952" lon="-0.74937">
        <ele>86.1</ele>
        <time>2018-02-04T10:02:13Z</time>
      </trkpt>
      <trkpt lat="48.01952" lon="-0.74943">
        <ele>86.2</ele>
        <time>2018-02-04T10:02:17Z</time>
      </trkpt>
      <trkpt lat="48.01951" lon="-0.74947">
        <ele>86.3</ele>
        <time>2018-02-04T10:02:21Z</time>
      </trkpt>
      <trkpt lat="48.0195" lon="-0.74948">
        <ele>86.2</ele>
        <time>2018-02-04T10:02:49Z</time>
      </trkpt>
      <trkpt lat="48.01949" lon="-0.74951">
        <ele>86.3</ele>
        <time>2018-02-04T10:02:57Z</time>
      </trkpt>
      <trkpt lat="48.01944" lon="-0.74957">
        <ele>85.9</ele>
        <time>2018-02-04T10:03:01Z</time>
      </trkpt>
      <trkpt lat="48.01932" lon="-0.74963">
        <ele>85.5</ele>
        <time>2018-02-04T10:03:05Z</time>
      </trkpt>
      <trkpt lat="48.01917" lon="-0.74969">
        <ele>84.8</ele>
        <time>2018-02-04T10:03:09Z</time>
      </trkpt>
      <trkpt lat="48.0191" lon="-0.7498">
        <ele>85.8</ele>
        <time>2018-02-04T10:03:13Z</time>
      </trkpt>
      <trkpt lat="48.01912" lon="-0.74994">
        <ele>86.1</ele>
        <time>2018-02-04T10:03:17Z</time>
      </trkpt>
      <trkpt lat="48.01916" lon="-0.75004">
        <ele>86.2</ele>
        <time>2018-02-04T10:03:21Z</time>
      </trkpt>
      <trkpt lat="48.01919" lon="-0.75012">
        <ele>86.6</ele>
        <time>2018-02-04T10:03:25Z</time>
      </trkpt>
      <trkpt lat="48.01923" lon="-0.75022">
        <ele>87</ele>
        <time>2018-02-04T10:03:29Z</time>
      </trkpt>
      <trkpt lat="48.01925" lon="-0.75035">
        <ele>87.7</ele>
        <time>2018-02-04T10:03:33Z</time>
      </trkpt>
      <trkpt lat="48.01928" lon="-0.75045">
        <ele>88.4</ele>
        <time>2018-02-04T10:03:37Z</time>
      </trkpt>
      <trkpt lat="48.01931" lon="-0.75056">
        <ele>89</ele>
        <time>2018-02-04T10:03:41Z</time>
      </trkpt>
      <trkpt lat="48.01933" lon="-0.75068">
        <ele>89.5</ele>
        <time>2018-02-04T10:03:45Z</time>
      </trkpt>
      <trkpt lat="48.01935" lon="-0.75081">
        <ele>89.9</ele>
        <time>2018-02-04T10:03:49Z</time>
      </trkpt>
      <trkpt lat="48.01937" lon="-0.75093">
        <ele>90.4</ele>
        <time>2018-02-04T10:03:53Z</time>
      </trkpt>
      <trkpt lat="48.01937" lon="-0.75101">
        <ele>90.8</ele>
        <time>2018-02-04T10:03:57Z</time>
      </trkpt>
      <trkpt lat="48.01938" lon="-0.75111">
        <ele>91.2</ele>
        <time>2018-02-04T10:04:01Z</time>
      </trkpt>
      <trkpt lat="48.0194" lon="-0.75121">
        <ele>91.9</ele>
        <time>2018-02-04T10:04:05Z</time>
      </trkpt>
      <trkpt lat="48.01941" lon="-0.75129">
        <ele>92.4</ele>
        <time>2018-02-04T10:04:09Z</time>
      </trkpt>
      <trkpt lat="48.01942" lon="-0.75139">
        <ele>93.1</ele>
        <time>2018-02-04T10:04:13Z</time>
      </trkpt>
      <trkpt lat="48.01945" lon="-0.75147">
        <ele>93.7</ele>
        <time>2018-02-04T10:04:17Z</time>
      </trkpt>
      <trkpt lat="48.01944" lon="-0.75155">
        <ele>94.1</ele>
        <time>2018-02-04T10:04:21Z</time>
      </trkpt>
      <trkpt lat="48.01942" lon="-0.75165">
        <ele>94.9</ele>
        <time>2018-02-04T10:04:25Z</time>
      </trkpt>
      <trkpt lat="48.0194" lon="-0.75175">
        <ele>95.6</ele>
        <time>2018-02-04T10:04:29Z</time>
      </trkpt>
      <trkpt lat="48.01938" lon="-0.75184">
        <ele>96.3</ele>
        <time>2018-02-04T10:04:33Z</time>
      </trkpt>
      <trkpt lat="48.01936" lon="-0.75195">
        <ele>97</ele>
        <time>2018-02-04T10:04:37Z</time>
      </trkpt>
      <trkpt lat="48.01934" lon="-0.75207">
        <ele>97.4</ele>
        <time>2018-02-04T10:04:41Z</time>
      </trkpt>
      <trkpt lat="48.01932" lon="-0.75219">
        <ele>97.9</ele>
        <time>2018-02-04T10:04:45Z</time>
      </trkpt>
      <trkpt lat="48.0193" lon="-0.75233">
        <ele>98.4</ele>
        <time>2018-02-04T10:04:49Z</time>
      </trkpt>
      <trkpt lat="48.01929" lon="-0.75245">
        <ele>98.8</ele>
        <time>2018-02-04T10:04:53Z</time>
      </trkpt>
      <trkpt lat="48.01927" lon="-0.75257">
        <ele>99.5</ele>
        <time>2018-02-04T10:04:57Z</time>
      </trkpt>
      <trkpt lat="48.01924" lon="-0.7527">
        <ele>100.4</ele>
        <time>2018-02-04T10:05:01Z</time>
      </trkpt>
      <trkpt lat="48.01923" lon="-0.75283">
        <ele>101</ele>
        <time>2018-02-04T10:05:05Z</time>
      </trkpt>
      <trkpt lat="48.01921" lon="-0.75297">
        <ele>101.1</ele>
        <time>2018-02-04T10:05:09Z</time>
      </trkpt>
      <trkpt lat="48.01917" lon="-0.75312">
        <ele>101.5</ele>
        <time>2018-02-04T10:05:13Z</time>
      </trkpt>
      <trkpt lat="48.01914" lon="-0.75327">
        <ele>102.6</ele>
        <time>2018-02-04T10:05:17Z</time>
      </trkpt>
      <trkpt lat="48.0191" lon="-0.75342">
        <ele>103.3</ele>
        <time>2018-02-04T10:05:21Z</time>
      </trkpt>
      <trkpt lat="48.01905" lon="-0.75357">
        <ele>103.9</ele>
        <time>2018-02-04T10:05:25Z</time>
      </trkpt>
      <trkpt lat="48.019" lon="-0.75373">
        <ele>104.2</ele>
        <time>2018-02-04T10:05:29Z</time>
      </trkpt>
      <trkpt lat="48.01895" lon="-0.75388">
        <ele>104.2</ele>
        <time>2018-02-04T10:05:33Z</time>
      </trkpt>
      <trkpt lat="48.0189" lon="-0.75403">
        <ele>104.5</ele>
        <time>2018-02-04T10:05:37Z</time>
      </trkpt>
      <trkpt lat="48.01885" lon="-0.75419">
        <ele>105.1</ele>
        <time>2018-02-04T10:05:41Z</time>
      </trkpt>
      <trkpt lat="48.0188" lon="-0.75435">
        <ele>105.7</ele>
        <time>2018-02-04T10:05:45Z</time>
      </trkpt>
      <trkpt lat="48.01876" lon="-0.75453">
        <ele>106</ele>
        <time>2018-02-04T10:05:49Z</time>
      </trkpt>
      <trkpt lat="48.01876" lon="-0.75471">
        <ele>106</ele>
        <time>2018-02-04T10:05:53Z</time>
      </trkpt>
      <trkpt lat="48.01877" lon="-0.75489">
        <ele>106.4</ele>
        <time>2018-02-04T10:05:57Z</time>
      </trkpt>
      <trkpt lat="48.0188" lon="-0.75509">
        <ele>106.7</ele>
        <time>2018-02-04T10:06:01Z</time>
      </trkpt>
      <trkpt lat="48.01882" lon="-0.7553">
        <ele>106.8</ele>
        <time>2018-02-04T10:06:05Z</time>
      </trkpt>
      <trkpt lat="48.01885" lon="-0.75551">
        <ele>107</ele>
        <time>2018-02-04T10:06:09Z</time>
      </trkpt>
      <trkpt lat="48.01888" lon="-0.75573">
        <ele>107</ele>
        <time>2018-02-04T10:06:13Z</time>
      </trkpt>
      <trkpt lat="48.0189" lon="-0.75594">
        <ele>107.1</ele>
        <time>2018-02-04T10:06:17Z</time>
      </trkpt>
      <trkpt lat="48.01893" lon="-0.75615">
        <ele>107.3</ele>
        <time>2018-02-04T10:06:21Z</time>
      </trkpt>
      <trkpt lat="48.01896" lon="-0.75636">
        <ele>107.9</ele>
        <time>2018-02-04T10:06:25Z</time>
      </trkpt>
      <trkpt lat="48.01898" lon="-0.75658">
        <ele>108.2</ele>
        <time>2018-02-04T10:06:29Z</time>
      </trkpt>
      <trkpt lat="48.01901" lon="-0.75679">
        <ele>108.4</ele>
        <time>2018-02-04T10:06:33Z</time>
      </trkpt>
      <trkpt lat="48.01904" lon="-0.757">
        <ele>108.6</ele>
        <time>2018-02-04T10:06:37Z</time>
      </trkpt>
      <trkpt lat="48.01906" lon="-0.75721">
        <ele>109</ele>
        <time>2018-02-04T10:06:41Z</time>
      </trkpt>
      <trkpt lat="48.01908" lon="-0.75742">
        <ele>109</ele>
        <time>2018-02-04T10:06:45Z</time>
      </trkpt>
      <trkpt lat="48.01911" lon="-0.75764">
        <ele>109</ele>
        <time>2018-02-04T10:06:49Z</time>
      </trkpt>
      <trkpt lat="48.01916" lon="-0.75787">
        <ele>109</ele>
        <time>2018-02-04T10:06:53Z</time>
      </trkpt>
      <trkpt lat="48.01923" lon="-0.75808">
        <ele>109.1</ele>
        <time>2018-02-04T10:06:57Z</time>
      </trkpt>
      <trkpt lat="48.01931" lon="-0.7583">
        <ele>109.4</ele>
        <time>2018-02-04T10:07:01Z</time>
      </trkpt>
      <trkpt lat="48.01938" lon="-0.75853">
        <ele>109.2</ele>
        <time>2018-02-04T10:07:05Z</time>
      </trkpt>
      <trkpt lat="48.01947" lon="-0.75877">
        <ele>109.5</ele>
        <time>2018-02-04T10:07:09Z</time>
      </trkpt>
      <trkpt lat="48.01956" lon="-0.75899">
        <ele>109.7</ele>
        <time>2018-02-04T10:07:13Z</time>
      </trkpt>
      <trkpt lat="48.01966" lon="-0.75917">
        <ele>110</ele>
        <time>2018-02-04T10:07:17Z</time>
      </trkpt>
      <trkpt lat="48.01978" lon="-0.75934">
        <ele>109.8</ele>
        <time>2018-02-04T10:07:21Z</time>
      </trkpt>
      <trkpt lat="48.01988" lon="-0.75954">
        <ele>109.4</ele>
        <time>2018-02-04T10:07:25Z</time>
      </trkpt>
      <trkpt lat="48.01997" lon="-0.75976">
        <ele>109.2</ele>
        <time>2018-02-04T10:07:29Z</time>
      </trkpt>
      <trkpt lat="48.02008" lon="-0.76001">
        <ele>109.7</ele>
        <time>2018-02-04T10:07:33Z</time>
      </trkpt>
      <trkpt lat="48.0202" lon="-0.76025">
        <ele>109.3</ele>
        <time>2018-02-04T10:07:37Z</time>
      </trkpt>
      <trkpt lat="48.02033" lon="-0.76047">
        <ele>108.8</ele>
        <time>2018-02-04T10:07:41Z</time>
      </trkpt>
      <trkpt lat="48.02046" lon="-0.76066">
        <ele>108.3</ele>
        <time>2018-02-04T10:07:45Z</time>
      </trkpt>
      <trkpt lat="48.02058" lon="-0.7608">
        <ele>108</ele>
        <time>2018-02-04T10:07:49Z</time>
      </trkpt>
      <trkpt lat="48.02075" lon="-0.76098">
        <ele>108</ele>
        <time>2018-02-04T10:07:53Z</time>
      </trkpt>
      <trkpt lat="48.02092" lon="-0.76115">
        <ele>108.1</ele>
        <time>2018-02-04T10:07:57Z</time>
      </trkpt>
      <trkpt lat="48.0211" lon="-0.76128">
        <ele>108</ele>
        <time>2018-02-04T10:08:01Z</time>
      </trkpt>
      <trkpt lat="48.02127" lon="-0.76136">
        <ele>108</ele>
        <time>2018-02-04T10:08:05Z</time>
      </trkpt>
      <trkpt lat="48.02141" lon="-0.76146">
        <ele>108.3</ele>
        <time>2018-02-04T10:08:09Z</time>
      </trkpt>
      <trkpt lat="48.02152" lon="-0.7616">
        <ele>108.7</ele>
        <time>2018-02-04T10:08:13Z</time>
      </trkpt>
      <trkpt lat="48.02163" lon="-0.76178">
        <ele>109</ele>
        <time>2018-02-04T10:08:17Z</time>
      </trkpt>
      <trkpt lat="48.02173" lon="-0.762">
        <ele>109.2</ele>
        <time>2018-02-04T10:08:21Z</time>
      </trkpt>
      <trkpt lat="48.02183" lon="-0.76222">
        <ele>110</ele>
        <time>2018-02-04T10:08:25Z</time>
      </trkpt>
      <trkpt lat="48.02193" lon="-0.76243">
        <ele>110</ele>
        <time>2018-02-04T10:08:29Z</time>
      </trkpt>
      <trkpt lat="48.02205" lon="-0.76261">
        <ele>110</ele>
        <time>2018-02-04T10:08:33Z</time>
      </trkpt>
      <trkpt lat="48.02213" lon="-0.76283">
        <ele>110</ele>
        <time>2018-02-04T10:08:37Z</time>
      </trkpt>
      <trkpt lat="48.02225" lon="-0.76299">
        <ele>110</ele>
        <time>2018-02-04T10:08:41Z</time>
      </trkpt>
      <trkpt lat="48.02241" lon="-0.76304">
        <ele>110</ele>
        <time>2018-02-04T10:08:45Z</time>
      </trkpt>
      <trkpt lat="48.02255" lon="-0.76316">
        <ele>110</ele>
        <time>2018-02-04T10:08:49Z</time>
      </trkpt>
      <trkpt lat="48.02268" lon="-0.76332">
        <ele>110</ele>
        <time>2018-02-04T10:08:53Z</time>
      </trkpt>
      <trkpt lat="48.02285" lon="-0.76344">
        <ele>110</ele>
        <time>2018-02-04T10:08:57Z</time>
      </trkpt>
      <trkpt lat="48.023" lon="-0.76357">
        <ele>110</ele>
        <time>2018-02-04T10:09:01Z</time>
      </trkpt>
      <trkpt lat="48.02317" lon="-0.76371">
        <ele>110</ele>
        <time>2018-02-04T10:09:05Z</time>
      </trkpt>
      <trkpt lat="48.02333" lon="-0.76387">
        <ele>110</ele>
        <time>2018-02-04T10:09:09Z</time>
      </trkpt>
      <trkpt lat="48.02349" lon="-0.76404">
        <ele>109.4</ele>
        <time>2018-02-04T10:09:13Z</time>
      </trkpt>
      <trkpt lat="48.02364" lon="-0.76421">
        <ele>109.2</ele>
        <time>2018-02-04T10:09:17Z</time>
      </trkpt>
      <trkpt lat="48.0238" lon="-0.76439">
        <ele>109.3</ele>
        <time>2018-02-04T10:09:21Z</time>
      </trkpt>
      <trkpt lat="48.02397" lon="-0.76449">
        <ele>108.7</ele>
        <time>2018-02-04T10:09:25Z</time>
      </trkpt>
      <trkpt lat="48.02412" lon="-0.76466">
        <ele>108.2</ele>
        <time>2018-02-04T10:09:29Z</time>
      </trkpt>
      <trkpt lat="48.02428" lon="-0.76484">
        <ele>108.3</ele>
        <time>2018-02-04T10:09:33Z</time>
      </trkpt>
      <trkpt lat="48.02445" lon="-0.765">
        <ele>108</ele>
        <time>2018-02-04T10:09:37Z</time>
      </trkpt>
      <trkpt lat="48.02464" lon="-0.76512">
        <ele>108</ele>
        <time>2018-02-04T10:09:41Z</time>
      </trkpt>
      <trkpt lat="48.02483" lon="-0.76518">
        <ele>107.9</ele>
        <time>2018-02-04T10:09:45Z</time>
      </trkpt>
      <trkpt lat="48.02501" lon="-0.76514">
        <ele>107.5</ele>
        <time>2018-02-04T10:09:49Z</time>
      </trkpt>
      <trkpt lat="48.02516" lon="-0.76528">
        <ele>108</ele>
        <time>2018-02-04T10:09:53Z</time>
      </trkpt>
      <trkpt lat="48.02518" lon="-0.76557">
        <ele>108</ele>
        <time>2018-02-04T10:09:57Z</time>
      </trkpt>
      <trkpt lat="48.02523" lon="-0.76585">
        <ele>108</ele>
        <time>2018-02-04T10:10:01Z</time>
      </trkpt>
      <trkpt lat="48.0253" lon="-0.76613">
        <ele>107.1</ele>
        <time>2018-02-04T10:10:05Z</time>
      </trkpt>
      <trkpt lat="48.02535" lon="-0.76641">
        <ele>107</ele>
        <time>2018-02-04T10:10:09Z</time>
      </trkpt>
      <trkpt lat="48.02539" lon="-0.7667">
        <ele>107</ele>
        <time>2018-02-04T10:10:13Z</time>
      </trkpt>
      <trkpt lat="48.02543" lon="-0.76698">
        <ele>106.9</ele>
        <time>2018-02-04T10:10:17Z</time>
      </trkpt>
      <trkpt lat="48.02549" lon="-0.76727">
        <ele>105.9</ele>
        <time>2018-02-04T10:10:21Z</time>
      </trkpt>
      <trkpt lat="48.02558" lon="-0.76747">
        <ele>105.2</ele>
        <time>2018-02-04T10:10:25Z</time>
      </trkpt>
      <trkpt lat="48.02572" lon="-0.76766">
        <ele>104.7</ele>
        <time>2018-02-04T10:10:29Z</time>
      </trkpt>
      <trkpt lat="48.02586" lon="-0.76783">
        <ele>103.9</ele>
        <time>2018-02-04T10:10:33Z</time>
      </trkpt>
      <trkpt lat="48.02599" lon="-0.76801">
        <ele>103.3</ele>
        <time>2018-02-04T10:10:37Z</time>
      </trkpt>
      <trkpt lat="48.02614" lon="-0.76802">
        <ele>103.4</ele>
        <time>2018-02-04T10:10:41Z</time>
      </trkpt>
      <trkpt lat="48.02631" lon="-0.76794">
        <ele>104.2</ele>
        <time>2018-02-04T10:10:45Z</time>
      </trkpt>
      <trkpt lat="48.02648" lon="-0.76788">
        <ele>104.8</ele>
        <time>2018-02-04T10:10:49Z</time>
      </trkpt>
      <trkpt lat="48.02665" lon="-0.76782">
        <ele>105</ele>
        <time>2018-02-04T10:10:53Z</time>
      </trkpt>
      <trkpt lat="48.02681" lon="-0.76777">
        <ele>105.6</ele>
        <time>2018-02-04T10:10:57Z</time>
      </trkpt>
      <trkpt lat="48.02698" lon="-0.76772">
        <ele>106.3</ele>
        <time>2018-02-04T10:11:01Z</time>
      </trkpt>
      <trkpt lat="48.02714" lon="-0.76768">
        <ele>106.8</ele>
        <time>2018-02-04T10:11:05Z</time>
      </trkpt>
      <trkpt lat="48.0273" lon="-0.76764">
        <ele>107.1</ele>
        <time>2018-02-04T10:11:09Z</time>
      </trkpt>
      <trkpt lat="48.02746" lon="-0.7676">
        <ele>107.3</ele>
        <time>2018-02-04T10:11:13Z</time>
      </trkpt>
      <trkpt lat="48.02762" lon="-0.76755">
        <ele>107.5</ele>
        <time>2018-02-04T10:11:17Z</time>
      </trkpt>
      <trkpt lat="48.02778" lon="-0.76752">
        <ele>108</ele>
        <time>2018-02-04T10:11:21Z</time>
      </trkpt>
      <trkpt lat="48.02794" lon="-0.76748">
        <ele>108</ele>
        <time>2018-02-04T10:11:25Z</time>
      </trkpt>
      <trkpt lat="48.02807" lon="-0.76752">
        <ele>108</ele>
        <time>2018-02-04T10:11:29Z</time>
      </trkpt>
      <trkpt lat="48.02812" lon="-0.76764">
        <ele>108</ele>
        <time>2018-02-04T10:11:33Z</time>
      </trkpt>
      <trkpt lat="48.02812" lon="-0.76772">
        <ele>108</ele>
        <time>2018-02-04T10:11:37Z</time>
      </trkpt>
      <trkpt lat="48.02815" lon="-0.76792">
        <ele>108.2</ele>
        <time>2018-02-04T10:11:41Z</time>
      </trkpt>
      <trkpt lat="48.02815" lon="-0.76814">
        <ele>108.5</ele>
        <time>2018-02-04T10:11:45Z</time>
      </trkpt>
      <trkpt lat="48.02813" lon="-0.76837">
        <ele>109</ele>
        <time>2018-02-04T10:11:49Z</time>
      </trkpt>
      <trkpt lat="48.0281" lon="-0.76859">
        <ele>109</ele>
        <time>2018-02-04T10:11:53Z</time>
      </trkpt>
      <trkpt lat="48.02808" lon="-0.76876">
        <ele>108.5</ele>
        <time>2018-02-04T10:11:57Z</time>
      </trkpt>
      <trkpt lat="48.02808" lon="-0.76903">
        <ele>108.2</ele>
        <time>2018-02-04T10:12:01Z</time>
      </trkpt>
      <trkpt lat="48.02819" lon="-0.76922">
        <ele>109</ele>
        <time>2018-02-04T10:12:05Z</time>
      </trkpt>
      <trkpt lat="48.02831" lon="-0.76938">
        <ele>109.2</ele>
        <time>2018-02-04T10:12:09Z</time>
      </trkpt>
      <trkpt lat="48.02845" lon="-0.76954">
        <ele>109.4</ele>
        <time>2018-02-04T10:12:13Z</time>
      </trkpt>
      <trkpt lat="48.02858" lon="-0.76971">
        <ele>109.9</ele>
        <time>2018-02-04T10:12:17Z</time>
      </trkpt>
      <trkpt lat="48.02869" lon="-0.76987">
        <ele>110</ele>
        <time>2018-02-04T10:12:21Z</time>
      </trkpt>
      <trkpt lat="48.02878" lon="-0.77">
        <ele>110</ele>
        <time>2018-02-04T10:12:25Z</time>
      </trkpt>
      <trkpt lat="48.02889" lon="-0.77019">
        <ele>110</ele>
        <time>2018-02-04T10:12:29Z</time>
      </trkpt>
      <trkpt lat="48.02899" lon="-0.77041">
        <ele>110.4</ele>
        <time>2018-02-04T10:12:33Z</time>
      </trkpt>
      <trkpt lat="48.02908" lon="-0.77063">
        <ele>110.8</ele>
        <time>2018-02-04T10:12:37Z</time>
      </trkpt>
      <trkpt lat="48.02917" lon="-0.77081">
        <ele>111</ele>
        <time>2018-02-04T10:12:41Z</time>
      </trkpt>
      <trkpt lat="48.02923" lon="-0.77102">
        <ele>111.2</ele>
        <time>2018-02-04T10:12:45Z</time>
      </trkpt>
      <trkpt lat="48.02932" lon="-0.77115">
        <ele>111.6</ele>
        <time>2018-02-04T10:12:49Z</time>
      </trkpt>
      <trkpt lat="48.0294" lon="-0.77131">
        <ele>112</ele>
        <time>2018-02-04T10:12:53Z</time>
      </trkpt>
      <trkpt lat="48.02948" lon="-0.77147">
        <ele>112</ele>
        <time>2018-02-04T10:12:57Z</time>
      </trkpt>
      <trkpt lat="48.02955" lon="-0.77163">
        <ele>112.3</ele>
        <time>2018-02-04T10:13:01Z</time>
      </trkpt>
      <trkpt lat="48.02961" lon="-0.77176">
        <ele>112.5</ele>
        <time>2018-02-04T10:13:05Z</time>
      </trkpt>
      <trkpt lat="48.02971" lon="-0.77194">
        <ele>112</ele>
        <time>2018-02-04T10:13:09Z</time>
      </trkpt>
      <trkpt lat="48.02981" lon="-0.77209">
        <ele>112.7</ele>
        <time>2018-02-04T10:13:13Z</time>
      </trkpt>
      <trkpt lat="48.02989" lon="-0.77224">
        <ele>113</ele>
        <time>2018-02-04T10:13:17Z</time>
      </trkpt>
      <trkpt lat="48.02997" lon="-0.77237">
        <ele>113</ele>
        <time>2018-02-04T10:13:21Z</time>
      </trkpt>
      <trkpt lat="48.03008" lon="-0.7725">
        <ele>113</ele>
        <time>2018-02-04T10:13:25Z</time>
      </trkpt>
      <trkpt lat="48.03018" lon="-0.77265">
        <ele>113.2</ele>
        <time>2018-02-04T10:13:29Z</time>
      </trkpt>
      <trkpt lat="48.0303" lon="-0.77282">
        <ele>113.1</ele>
        <time>2018-02-04T10:13:33Z</time>
      </trkpt>
      <trkpt lat="48.03044" lon="-0.77301">
        <ele>113.3</ele>
        <time>2018-02-04T10:13:37Z</time>
      </trkpt>
      <trkpt lat="48.03041" lon="-0.77322">
        <ele>113.2</ele>
        <time>2018-02-04T10:13:41Z</time>
      </trkpt>
      <trkpt lat="48.0303" lon="-0.77343">
        <ele>113</ele>
        <time>2018-02-04T10:13:45Z</time>
      </trkpt>
      <trkpt lat="48.03017" lon="-0.7736">
        <ele>113</ele>
        <time>2018-02-04T10:13:49Z</time>
      </trkpt>
      <trkpt lat="48.03007" lon="-0.7738">
        <ele>113.7</ele>
        <time>2018-02-04T10:13:53Z</time>
      </trkpt>
      <trkpt lat="48.03" lon="-0.77401">
        <ele>114.4</ele>
        <time>2018-02-04T10:13:57Z</time>
      </trkpt>
      <trkpt lat="48.02997" lon="-0.77423">
        <ele>114.9</ele>
        <time>2018-02-04T10:14:01Z</time>
      </trkpt>
      <trkpt lat="48.02992" lon="-0.77444">
        <ele>114.7</ele>
        <time>2018-02-04T10:14:05Z</time>
      </trkpt>
      <trkpt lat="48.02985" lon="-0.7746">
        <ele>114.5</ele>
        <time>2018-02-04T10:14:09Z</time>
      </trkpt>
      <trkpt lat="48.02997" lon="-0.77462">
        <ele>114.9</ele>
        <time>2018-02-04T10:14:13Z</time>
      </trkpt>
      <trkpt lat="48.03012" lon="-0.77467">
        <ele>114.9</ele>
        <time>2018-02-04T10:14:17Z</time>
      </trkpt>
      <trkpt lat="48.03028" lon="-0.77477">
        <ele>115</ele>
        <time>2018-02-04T10:14:21Z</time>
      </trkpt>
      <trkpt lat="48.03044" lon="-0.77487">
        <ele>114.4</ele>
        <time>2018-02-04T10:14:25Z</time>
      </trkpt>
      <trkpt lat="48.03061" lon="-0.77498">
        <ele>114</ele>
        <time>2018-02-04T10:14:29Z</time>
      </trkpt>
      <trkpt lat="48.03078" lon="-0.77509">
        <ele>114.1</ele>
        <time>2018-02-04T10:14:33Z</time>
      </trkpt>
      <trkpt lat="48.03096" lon="-0.7752">
        <ele>114</ele>
        <time>2018-02-04T10:14:37Z</time>
      </trkpt>
      <trkpt lat="48.03115" lon="-0.77532">
        <ele>114</ele>
        <time>2018-02-04T10:14:41Z</time>
      </trkpt>
      <trkpt lat="48.03133" lon="-0.77544">
        <ele>114</ele>
        <time>2018-02-04T10:14:45Z</time>
      </trkpt>
      <trkpt lat="48.03151" lon="-0.77556">
        <ele>113.6</ele>
        <time>2018-02-04T10:14:49Z</time>
      </trkpt>
      <trkpt lat="48.03169" lon="-0.77568">
        <ele>112.9</ele>
        <time>2018-02-04T10:14:53Z</time>
      </trkpt>
      <trkpt lat="48.03188" lon="-0.77582">
        <ele>112.2</ele>
        <time>2018-02-04T10:14:57Z</time>
      </trkpt>
      <trkpt lat="48.03208" lon="-0.77593">
        <ele>112.2</ele>
        <time>2018-02-04T10:15:01Z</time>
      </trkpt>
      <trkpt lat="48.03229" lon="-0.77608">
        <ele>111.8</ele>
        <time>2018-02-04T10:15:05Z</time>
      </trkpt>
      <trkpt lat="48.0325" lon="-0.77622">
        <ele>111</ele>
        <time>2018-02-04T10:15:09Z</time>
      </trkpt>
      <trkpt lat="48.03271" lon="-0.77636">
        <ele>110.3</ele>
        <time>2018-02-04T10:15:13Z</time>
      </trkpt>
      <trkpt lat="48.03291" lon="-0.7765">
        <ele>110</ele>
        <time>2018-02-04T10:15:17Z</time>
      </trkpt>
      <trkpt lat="48.03313" lon="-0.77663">
        <ele>110.2</ele>
        <time>2018-02-04T10:15:21Z</time>
      </trkpt>
      <trkpt lat="48.0333" lon="-0.77675">
        <ele>110.9</ele>
        <time>2018-02-04T10:15:25Z</time>
      </trkpt>
      <trkpt lat="48.03348" lon="-0.77687">
        <ele>111</ele>
        <time>2018-02-04T10:15:29Z</time>
      </trkpt>
      <trkpt lat="48.03368" lon="-0.77698">
        <ele>111.3</ele>
        <time>2018-02-04T10:15:33Z</time>
      </trkpt>
      <trkpt lat="48.03389" lon="-0.77705">
        <ele>112</ele>
        <time>2018-02-04T10:15:37Z</time>
      </trkpt>
      <trkpt lat="48.03409" lon="-0.77709">
        <ele>112</ele>
        <time>2018-02-04T10:15:41Z</time>
      </trkpt>
      <trkpt lat="48.03428" lon="-0.77712">
        <ele>112.4</ele>
        <time>2018-02-04T10:15:45Z</time>
      </trkpt>
      <trkpt lat="48.03447" lon="-0.77713">
        <ele>113.1</ele>
        <time>2018-02-04T10:15:49Z</time>
      </trkpt>
      <trkpt lat="48.03467" lon="-0.77715">
        <ele>113.6</ele>
        <time>2018-02-04T10:15:53Z</time>
      </trkpt>
      <trkpt lat="48.03481" lon="-0.77723">
        <ele>114</ele>
        <time>2018-02-04T10:15:57Z</time>
      </trkpt>
      <trkpt lat="48.03492" lon="-0.77732">
        <ele>114</ele>
        <time>2018-02-04T10:16:01Z</time>
      </trkpt>
      <trkpt lat="48.03504" lon="-0.77744">
        <ele>114.1</ele>
        <time>2018-02-04T10:16:05Z</time>
      </trkpt>
      <trkpt lat="48.03519" lon="-0.77751">
        <ele>114.7</ele>
        <time>2018-02-04T10:16:09Z</time>
      </trkpt>
      <trkpt lat="48.03536" lon="-0.77747">
        <ele>114.9</ele>
        <time>2018-02-04T10:16:13Z</time>
      </trkpt>
      <trkpt lat="48.03552" lon="-0.7774">
        <ele>115</ele>
        <time>2018-02-04T10:16:17Z</time>
      </trkpt>
      <trkpt lat="48.0357" lon="-0.77735">
        <ele>115</ele>
        <time>2018-02-04T10:16:21Z</time>
      </trkpt>
      <trkpt lat="48.03587" lon="-0.77734">
        <ele>115</ele>
        <time>2018-02-04T10:16:25Z</time>
      </trkpt>
      <trkpt lat="48.03605" lon="-0.77735">
        <ele>115</ele>
        <time>2018-02-04T10:16:29Z</time>
      </trkpt>
      <trkpt lat="48.03624" lon="-0.7774">
        <ele>115</ele>
        <time>2018-02-04T10:16:33Z</time>
      </trkpt>
      <trkpt lat="48.03648" lon="-0.77744">
        <ele>115</ele>
        <time>2018-02-04T10:16:37Z</time>
      </trkpt>
      <trkpt lat="48.03668" lon="-0.77749">
        <ele>115</ele>
        <time>2018-02-04T10:16:41Z</time>
      </trkpt>
      <trkpt lat="48.03689" lon="-0.77749">
        <ele>115</ele>
        <time>2018-02-04T10:16:45Z</time>
      </trkpt>
      <trkpt lat="48.03711" lon="-0.77752">
        <ele>115</ele>
        <time>2018-02-04T10:16:49Z</time>
      </trkpt>
      <trkpt lat="48.03731" lon="-0.77753">
        <ele>115</ele>
        <time>2018-02-04T10:16:53Z</time>
      </trkpt>
      <trkpt lat="48.0375" lon="-0.77754">
        <ele>115</ele>
        <time>2018-02-04T10:16:57Z</time>
      </trkpt>
      <trkpt lat="48.03772" lon="-0.77755">
        <ele>115</ele>
        <time>2018-02-04T10:17:01Z</time>
      </trkpt>
      <trkpt lat="48.0379" lon="-0.77757">
        <ele>114.6</ele>
        <time>2018-02-04T10:17:05Z</time>
      </trkpt>
      <trkpt lat="48.03815" lon="-0.77759">
        <ele>114</ele>
        <time>2018-02-04T10:17:09Z</time>
      </trkpt>
      <trkpt lat="48.03843" lon="-0.77761">
        <ele>114</ele>
        <time>2018-02-04T10:17:13Z</time>
      </trkpt>
      <trkpt lat="48.03866" lon="-0.77762">
        <ele>113.8</ele>
        <time>2018-02-04T10:17:17Z</time>
      </trkpt>
      <trkpt lat="48.03884" lon="-0.77763">
        <ele>113.2</ele>
        <time>2018-02-04T10:17:21Z</time>
      </trkpt>
      <trkpt lat="48.03904" lon="-0.77764">
        <ele>113</ele>
        <time>2018-02-04T10:17:25Z</time>
      </trkpt>
      <trkpt lat="48.03928" lon="-0.77767">
        <ele>112.8</ele>
        <time>2018-02-04T10:17:29Z</time>
      </trkpt>
      <trkpt lat="48.03947" lon="-0.77769">
        <ele>112.7</ele>
        <time>2018-02-04T10:17:33Z</time>
      </trkpt>
      <trkpt lat="48.03969" lon="-0.77772">
        <ele>112.8</ele>
        <time>2018-02-04T10:17:37Z</time>
      </trkpt>
      <trkpt lat="48.03995" lon="-0.77773">
        <ele>112.1</ele>
        <time>2018-02-04T10:17:41Z</time>
      </trkpt>
      <trkpt lat="48.04019" lon="-0.77774">
        <ele>112.6</ele>
        <time>2018-02-04T10:17:45Z</time>
      </trkpt>
      <trkpt lat="48.0404" lon="-0.77775">
        <ele>112.9</ele>
        <time>2018-02-04T10:17:49Z</time>
      </trkpt>
      <trkpt lat="48.0406" lon="-0.77775">
        <ele>112.9</ele>
        <time>2018-02-04T10:17:53Z</time>
      </trkpt>
      <trkpt lat="48.04075" lon="-0.77779">
        <ele>113</ele>
        <time>2018-02-04T10:17:57Z</time>
      </trkpt>
      <trkpt lat="48.04097" lon="-0.77782">
        <ele>113.1</ele>
        <time>2018-02-04T10:18:01Z</time>
      </trkpt>
      <trkpt lat="48.04118" lon="-0.77785">
        <ele>113.3</ele>
        <time>2018-02-04T10:18:05Z</time>
      </trkpt>
      <trkpt lat="48.04142" lon="-0.7779">
        <ele>113.4</ele>
        <time>2018-02-04T10:18:09Z</time>
      </trkpt>
      <trkpt lat="48.04164" lon="-0.7779">
        <ele>113</ele>
        <time>2018-02-04T10:18:13Z</time>
      </trkpt>
      <trkpt lat="48.04181" lon="-0.77792">
        <ele>113</ele>
        <time>2018-02-04T10:18:17Z</time>
      </trkpt>
      <trkpt lat="48.04204" lon="-0.77795">
        <ele>113</ele>
        <time>2018-02-04T10:18:21Z</time>
      </trkpt>
      <trkpt lat="48.04222" lon="-0.77799">
        <ele>113</ele>
        <time>2018-02-04T10:18:25Z</time>
      </trkpt>
      <trkpt lat="48.04227" lon="-0.77816">
        <ele>113</ele>
        <time>2018-02-04T10:18:29Z</time>
      </trkpt>
      <trkpt lat="48.04229" lon="-0.77837">
        <ele>113.1</ele>
        <time>2018-02-04T10:18:33Z</time>
      </trkpt>
      <trkpt lat="48.04228" lon="-0.77859">
        <ele>113.9</ele>
        <time>2018-02-04T10:18:37Z</time>
      </trkpt>
      <trkpt lat="48.04226" lon="-0.77879">
        <ele>114</ele>
        <time>2018-02-04T10:18:41Z</time>
      </trkpt>
      <trkpt lat="48.04227" lon="-0.77896">
        <ele>114.2</ele>
        <time>2018-02-04T10:18:45Z</time>
      </trkpt>
      <trkpt lat="48.04226" lon="-0.77919">
        <ele>114.9</ele>
        <time>2018-02-04T10:18:49Z</time>
      </trkpt>
      <trkpt lat="48.04224" lon="-0.77946">
        <ele>114.9</ele>
        <time>2018-02-04T10:18:53Z</time>
      </trkpt>
      <trkpt lat="48.04224" lon="-0.7797">
        <ele>115</ele>
        <time>2018-02-04T10:18:57Z</time>
      </trkpt>
      <trkpt lat="48.04227" lon="-0.77996">
        <ele>115</ele>
        <time>2018-02-04T10:19:01Z</time>
      </trkpt>
      <trkpt lat="48.04228" lon="-0.78023">
        <ele>115.7</ele>
        <time>2018-02-04T10:19:05Z</time>
      </trkpt>
      <trkpt lat="48.04227" lon="-0.78049">
        <ele>116</ele>
        <time>2018-02-04T10:19:09Z</time>
      </trkpt>
      <trkpt lat="48.04228" lon="-0.78076">
        <ele>116</ele>
        <time>2018-02-04T10:19:13Z</time>
      </trkpt>
      <trkpt lat="48.04226" lon="-0.78109">
        <ele>116</ele>
        <time>2018-02-04T10:19:17Z</time>
      </trkpt>
      <trkpt lat="48.04224" lon="-0.78137">
        <ele>116</ele>
        <time>2018-02-04T10:19:21Z</time>
      </trkpt>
      <trkpt lat="48.04224" lon="-0.78165">
        <ele>116</ele>
        <time>2018-02-04T10:19:25Z</time>
      </trkpt>
      <trkpt lat="48.04223" lon="-0.78196">
        <ele>116</ele>
        <time>2018-02-04T10:19:29Z</time>
      </trkpt>
      <trkpt lat="48.04223" lon="-0.78227">
        <ele>116</ele>
        <time>2018-02-04T10:19:33Z</time>
      </trkpt>
      <trkpt lat="48.04219" lon="-0.78257">
        <ele>116</ele>
        <time>2018-02-04T10:19:37Z</time>
      </trkpt>
      <trkpt lat="48.04217" lon="-0.78287">
        <ele>116</ele>
        <time>2018-02-04T10:19:41Z</time>
      </trkpt>
      <trkpt lat="48.04215" lon="-0.78316">
        <ele>116</ele>
        <time>2018-02-04T10:19:45Z</time>
      </trkpt>
      <trkpt lat="48.04216" lon="-0.78342">
        <ele>116</ele>
        <time>2018-02-04T10:19:49Z</time>
      </trkpt>
      <trkpt lat="48.04214" lon="-0.78373">
        <ele>116</ele>
        <time>2018-02-04T10:19:53Z</time>
      </trkpt>
      <trkpt lat="48.04211" lon="-0.78404">
        <ele>116</ele>
        <time>2018-02-04T10:19:57Z</time>
      </trkpt>
      <trkpt lat="48.04209" lon="-0.78427">
        <ele>116</ele>
        <time>2018-02-04T10:20:01Z</time>
      </trkpt>
      <trkpt lat="48.04207" lon="-0.78451">
        <ele>116</ele>
        <time>2018-02-04T10:20:05Z</time>
      </trkpt>
      <trkpt lat="48.04206" lon="-0.78475">
        <ele>116</ele>
        <time>2018-02-04T10:20:09Z</time>
      </trkpt>
      <trkpt lat="48.04206" lon="-0.78499">
        <ele>116</ele>
        <time>2018-02-04T10:20:13Z</time>
      </trkpt>
      <trkpt lat="48.04201" lon="-0.7853">
        <ele>116.1</ele>
        <time>2018-02-04T10:20:17Z</time>
      </trkpt>
      <trkpt lat="48.04204" lon="-0.78557">
        <ele>116.7</ele>
        <time>2018-02-04T10:20:21Z</time>
      </trkpt>
      <trkpt lat="48.04202" lon="-0.78587">
        <ele>117</ele>
        <time>2018-02-04T10:20:25Z</time>
      </trkpt>
      <trkpt lat="48.04201" lon="-0.78612">
        <ele>117</ele>
        <time>2018-02-04T10:20:29Z</time>
      </trkpt>
      <trkpt lat="48.042" lon="-0.78632">
        <ele>117</ele>
        <time>2018-02-04T10:20:33Z</time>
      </trkpt>
      <trkpt lat="48.04198" lon="-0.78662">
        <ele>116.3</ele>
        <time>2018-02-04T10:20:37Z</time>
      </trkpt>
      <trkpt lat="48.04195" lon="-0.78691">
        <ele>116</ele>
        <time>2018-02-04T10:20:41Z</time>
      </trkpt>
      <trkpt lat="48.04194" lon="-0.78722">
        <ele>116</ele>
        <time>2018-02-04T10:20:45Z</time>
      </trkpt>
      <trkpt lat="48.04196" lon="-0.78747">
        <ele>116</ele>
        <time>2018-02-04T10:20:49Z</time>
      </trkpt>
      <trkpt lat="48.04193" lon="-0.78772">
        <ele>116</ele>
        <time>2018-02-04T10:20:53Z</time>
      </trkpt>
      <trkpt lat="48.04193" lon="-0.78798">
        <ele>116</ele>
        <time>2018-02-04T10:20:57Z</time>
      </trkpt>
      <trkpt lat="48.04193" lon="-0.78823">
        <ele>116</ele>
        <time>2018-02-04T10:21:01Z</time>
      </trkpt>
      <trkpt lat="48.04191" lon="-0.78848">
        <ele>116.5</ele>
        <time>2018-02-04T10:21:05Z</time>
      </trkpt>
      <trkpt lat="48.04192" lon="-0.78873">
        <ele>116.9</ele>
        <time>2018-02-04T10:21:09Z</time>
      </trkpt>
      <trkpt lat="48.0419" lon="-0.78895">
        <ele>117</ele>
        <time>2018-02-04T10:21:13Z</time>
      </trkpt>
      <trkpt lat="48.04189" lon="-0.78922">
        <ele>117</ele>
        <time>2018-02-04T10:21:17Z</time>
      </trkpt>
      <trkpt lat="48.04191" lon="-0.78947">
        <ele>117</ele>
        <time>2018-02-04T10:21:21Z</time>
      </trkpt>
      <trkpt lat="48.04191" lon="-0.78971">
        <ele>116.9</ele>
        <time>2018-02-04T10:21:25Z</time>
      </trkpt>
      <trkpt lat="48.0419" lon="-0.78994">
        <ele>116.9</ele>
        <time>2018-02-04T10:21:29Z</time>
      </trkpt>
      <trkpt lat="48.0419" lon="-0.7902">
        <ele>116.8</ele>
        <time>2018-02-04T10:21:33Z</time>
      </trkpt>
      <trkpt lat="48.04189" lon="-0.79049">
        <ele>116.2</ele>
        <time>2018-02-04T10:21:37Z</time>
      </trkpt>
      <trkpt lat="48.04188" lon="-0.79082">
        <ele>116</ele>
        <time>2018-02-04T10:21:41Z</time>
      </trkpt>
      <trkpt lat="48.04184" lon="-0.79113">
        <ele>116</ele>
        <time>2018-02-04T10:21:45Z</time>
      </trkpt>
      <trkpt lat="48.04182" lon="-0.79145">
        <ele>116</ele>
        <time>2018-02-04T10:21:49Z</time>
      </trkpt>
      <trkpt lat="48.0418" lon="-0.79185">
        <ele>116</ele>
        <time>2018-02-04T10:21:53Z</time>
      </trkpt>
      <trkpt lat="48.04179" lon="-0.79227">
        <ele>116.1</ele>
        <time>2018-02-04T10:21:57Z</time>
      </trkpt>
      <trkpt lat="48.04177" lon="-0.79267">
        <ele>116.4</ele>
        <time>2018-02-04T10:22:01Z</time>
      </trkpt>
      <trkpt lat="48.04176" lon="-0.79302">
        <ele>116.3</ele>
        <time>2018-02-04T10:22:05Z</time>
      </trkpt>
      <trkpt lat="48.04176" lon="-0.79336">
        <ele>116.2</ele>
        <time>2018-02-04T10:22:09Z</time>
      </trkpt>
      <trkpt lat="48.04173" lon="-0.79369">
        <ele>115</ele>
        <time>2018-02-04T10:22:13Z</time>
      </trkpt>
      <trkpt lat="48.04171" lon="-0.79395">
        <ele>113.9</ele>
        <time>2018-02-04T10:22:17Z</time>
      </trkpt>
      <trkpt lat="48.04171" lon="-0.79422">
        <ele>112.8</ele>
        <time>2018-02-04T10:22:21Z</time>
      </trkpt>
      <trkpt lat="48.04172" lon="-0.79456">
        <ele>110.9</ele>
        <time>2018-02-04T10:22:25Z</time>
      </trkpt>
      <trkpt lat="48.0417" lon="-0.79482">
        <ele>109.4</ele>
        <time>2018-02-04T10:22:29Z</time>
      </trkpt>
      <trkpt lat="48.0417" lon="-0.79502">
        <ele>108</ele>
        <time>2018-02-04T10:22:33Z</time>
      </trkpt>
      <trkpt lat="48.04154" lon="-0.79524">
        <ele>105.8</ele>
        <time>2018-02-04T10:22:37Z</time>
      </trkpt>
      <trkpt lat="48.04134" lon="-0.79531">
        <ele>104.9</ele>
        <time>2018-02-04T10:22:41Z</time>
      </trkpt>
      <trkpt lat="48.04117" lon="-0.79538">
        <ele>104.6</ele>
        <time>2018-02-04T10:22:45Z</time>
      </trkpt>
      <trkpt lat="48.04102" lon="-0.79544">
        <ele>104.1</ele>
        <time>2018-02-04T10:22:49Z</time>
      </trkpt>
      <trkpt lat="48.04088" lon="-0.79546">
        <ele>103.5</ele>
        <time>2018-02-04T10:22:53Z</time>
      </trkpt>
      <trkpt lat="48.04076" lon="-0.79552">
        <ele>102.6</ele>
        <time>2018-02-04T10:22:57Z</time>
      </trkpt>
      <trkpt lat="48.04064" lon="-0.7956">
        <ele>101.3</ele>
        <time>2018-02-04T10:23:01Z</time>
      </trkpt>
      <trkpt lat="48.04054" lon="-0.7957">
        <ele>99.9</ele>
        <time>2018-02-04T10:23:05Z</time>
      </trkpt>
      <trkpt lat="48.0404" lon="-0.79584">
        <ele>98.3</ele>
        <time>2018-02-04T10:23:09Z</time>
      </trkpt>
      <trkpt lat="48.04038" lon="-0.79601">
        <ele>96.4</ele>
        <time>2018-02-04T10:23:13Z</time>
      </trkpt>
      <trkpt lat="48.0404" lon="-0.79619">
        <ele>94.4</ele>
        <time>2018-02-04T10:23:17Z</time>
      </trkpt>
      <trkpt lat="48.04043" lon="-0.7963">
        <ele>92.9</ele>
        <time>2018-02-04T10:23:21Z</time>
      </trkpt>
      <trkpt lat="48.04045" lon="-0.79647">
        <ele>91</ele>
        <time>2018-02-04T10:23:25Z</time>
      </trkpt>
      <trkpt lat="48.04048" lon="-0.79683">
        <ele>89.6</ele>
        <time>2018-02-04T10:23:53Z</time>
      </trkpt>
      <trkpt lat="48.0405" lon="-0.79688">
        <ele>89.6</ele>
        <time>2018-02-04T10:24:01Z</time>
      </trkpt>
      <trkpt lat="48.04051" lon="-0.79691">
        <ele>89.7</ele>
        <time>2018-02-04T10:24:09Z</time>
      </trkpt>
      <trkpt lat="48.04053" lon="-0.79698">
        <ele>89.9</ele>
        <time>2018-02-04T10:24:13Z</time>
      </trkpt>
      <trkpt lat="48.04056" lon="-0.79706">
        <ele>90.4</ele>
        <time>2018-02-04T10:24:17Z</time>
      </trkpt>
      <trkpt lat="48.04059" lon="-0.79712">
        <ele>90.9</ele>
        <time>2018-02-04T10:24:21Z</time>
      </trkpt>
      <trkpt lat="48.04061" lon="-0.79718">
        <ele>91.2</ele>
        <time>2018-02-04T10:24:25Z</time>
      </trkpt>
      <trkpt lat="48.04063" lon="-0.79724">
        <ele>91.6</ele>
        <time>2018-02-04T10:24:29Z</time>
      </trkpt>
      <trkpt lat="48.04064" lon="-0.7973">
        <ele>91.9</ele>
        <time>2018-02-04T10:24:33Z</time>
      </trkpt>
      <trkpt lat="48.04061" lon="-0.79734">
        <ele>91.8</ele>
        <time>2018-02-04T10:24:37Z</time>
      </trkpt>
      <trkpt lat="48.04056" lon="-0.79737">
        <ele>91.6</ele>
        <time>2018-02-04T10:24:41Z</time>
      </trkpt>
      <trkpt lat="48.0405" lon="-0.79739">
        <ele>91.2</ele>
        <time>2018-02-04T10:24:45Z</time>
      </trkpt>
      <trkpt lat="48.04044" lon="-0.79743">
        <ele>90.9</ele>
        <time>2018-02-04T10:24:49Z</time>
      </trkpt>
      <trkpt lat="48.04037" lon="-0.79749">
        <ele>90.6</ele>
        <time>2018-02-04T10:24:53Z</time>
      </trkpt>
      <trkpt lat="48.0403" lon="-0.79754">
        <ele>90.5</ele>
        <time>2018-02-04T10:24:57Z</time>
      </trkpt>
      <trkpt lat="48.04024" lon="-0.79758">
        <ele>90.3</ele>
        <time>2018-02-04T10:25:01Z</time>
      </trkpt>
      <trkpt lat="48.04021" lon="-0.79764">
        <ele>90.5</ele>
        <time>2018-02-04T10:25:05Z</time>
      </trkpt>
      <trkpt lat="48.04022" lon="-0.79765">
        <ele>90.6</ele>
        <time>2018-02-04T10:25:17Z</time>
      </trkpt>
      <trkpt lat="48.04022" lon="-0.79766">
        <ele>90.7</ele>
        <time>2018-02-04T10:25:53Z</time>
      </trkpt>
      <trkpt lat="48.04022" lon="-0.79769">
        <ele>91</ele>
        <time>2018-02-04T10:25:57Z</time>
      </trkpt>
      <trkpt lat="48.04023" lon="-0.79775">
        <ele>91.4</ele>
        <time>2018-02-04T10:26:01Z</time>
      </trkpt>
      <trkpt lat="48.04024" lon="-0.79781">
        <ele>91.9</ele>
        <time>2018-02-04T10:26:05Z</time>
      </trkpt>
      <trkpt lat="48.04025" lon="-0.79788">
        <ele>92.2</ele>
        <time>2018-02-04T10:26:09Z</time>
      </trkpt>
      <trkpt lat="48.04027" lon="-0.79793">
        <ele>92.5</ele>
        <time>2018-02-04T10:26:13Z</time>
      </trkpt>
      <trkpt lat="48.04028" lon="-0.79799">
        <ele>92.8</ele>
        <time>2018-02-04T10:26:17Z</time>
      </trkpt>
      <trkpt lat="48.04029" lon="-0.79804">
        <ele>93</ele>
        <time>2018-02-04T10:26:21Z</time>
      </trkpt>
      <trkpt lat="48.0403" lon="-0.79809">
        <ele>93.3</ele>
        <time>2018-02-04T10:26:25Z</time>
      </trkpt>
      <trkpt lat="48.04032" lon="-0.79816">
        <ele>93.7</ele>
        <time>2018-02-04T10:26:29Z</time>
      </trkpt>
      <trkpt lat="48.04034" lon="-0.79821">
        <ele>94</ele>
        <time>2018-02-04T10:26:33Z</time>
      </trkpt>
      <trkpt lat="48.04035" lon="-0.79824">
        <ele>94.2</ele>
        <time>2018-02-04T10:26:37Z</time>
      </trkpt>
      <trkpt lat="48.04037" lon="-0.79828">
        <ele>94.5</ele>
        <time>2018-02-04T10:26:41Z</time>
      </trkpt>
      <trkpt lat="48.04041" lon="-0.79831">
        <ele>94.8</ele>
        <time>2018-02-04T10:26:45Z</time>
      </trkpt>
      <trkpt lat="48.04042" lon="-0.79835">
        <ele>95.1</ele>
        <time>2018-02-04T10:28:01Z</time>
      </trkpt>
      <trkpt lat="48.04043" lon="-0.79837">
        <ele>95.3</ele>
        <time>2018-02-04T10:28:13Z</time>
      </trkpt>
      <trkpt lat="48.04045" lon="-0.79844">
        <ele>95.6</ele>
        <time>2018-02-04T10:28:17Z</time>
      </trkpt>
      <trkpt lat="48.04044" lon="-0.79852">
        <ele>95.9</ele>
        <time>2018-02-04T10:28:21Z</time>
      </trkpt>
      <trkpt lat="48.04046" lon="-0.79862">
        <ele>96.4</ele>
        <time>2018-02-04T10:28:25Z</time>
      </trkpt>
      <trkpt lat="48.04047" lon="-0.79872">
        <ele>96.8</ele>
        <time>2018-02-04T10:28:29Z</time>
      </trkpt>
      <trkpt lat="48.04048" lon="-0.79884">
        <ele>97.3</ele>
        <time>2018-02-04T10:28:33Z</time>
      </trkpt>
      <trkpt lat="48.04051" lon="-0.79894">
        <ele>97.6</ele>
        <time>2018-02-04T10:28:37Z</time>
      </trkpt>
      <trkpt lat="48.04051" lon="-0.79906">
        <ele>97.7</ele>
        <time>2018-02-04T10:28:41Z</time>
      </trkpt>
      <trkpt lat="48.04052" lon="-0.79914">
        <ele>97.7</ele>
        <time>2018-02-04T10:29:01Z</time>
      </trkpt>
      <trkpt lat="48.04052" lon="-0.79921">
        <ele>97.9</ele>
        <time>2018-02-04T10:29:05Z</time>
      </trkpt>
      <trkpt lat="48.04052" lon="-0.79932">
        <ele>98.3</ele>
        <time>2018-02-04T10:29:09Z</time>
      </trkpt>
      <trkpt lat="48.04053" lon="-0.79944">
        <ele>98.8</ele>
        <time>2018-02-04T10:29:13Z</time>
      </trkpt>
      <trkpt lat="48.04053" lon="-0.79958">
        <ele>98.8</ele>
        <time>2018-02-04T10:29:17Z</time>
      </trkpt>
      <trkpt lat="48.04055" lon="-0.79972">
        <ele>98.9</ele>
        <time>2018-02-04T10:29:21Z</time>
      </trkpt>
      <trkpt lat="48.04057" lon="-0.79989">
        <ele>99.1</ele>
        <time>2018-02-04T10:29:25Z</time>
      </trkpt>
      <trkpt lat="48.04061" lon="-0.80006">
        <ele>99.4</ele>
        <time>2018-02-04T10:29:29Z</time>
      </trkpt>
      <trkpt lat="48.04069" lon="-0.80014">
        <ele>100</ele>
        <time>2018-02-04T10:29:33Z</time>
      </trkpt>
      <trkpt lat="48.04078" lon="-0.80016">
        <ele>100.6</ele>
        <time>2018-02-04T10:29:37Z</time>
      </trkpt>
      <trkpt lat="48.04085" lon="-0.80019">
        <ele>101.1</ele>
        <time>2018-02-04T10:29:41Z</time>
      </trkpt>
      <trkpt lat="48.04094" lon="-0.80029">
        <ele>101.4</ele>
        <time>2018-02-04T10:29:45Z</time>
      </trkpt>
      <trkpt lat="48.04103" lon="-0.80038">
        <ele>102.1</ele>
        <time>2018-02-04T10:29:49Z</time>
      </trkpt>
      <trkpt lat="48.04112" lon="-0.80048">
        <ele>102.7</ele>
        <time>2018-02-04T10:29:53Z</time>
      </trkpt>
      <trkpt lat="48.04119" lon="-0.80057">
        <ele>103.3</ele>
        <time>2018-02-04T10:29:57Z</time>
      </trkpt>
      <trkpt lat="48.04128" lon="-0.80064">
        <ele>103.7</ele>
        <time>2018-02-04T10:30:01Z</time>
      </trkpt>
      <trkpt lat="48.04136" lon="-0.8007">
        <ele>103.9</ele>
        <time>2018-02-04T10:30:05Z</time>
      </trkpt>
      <trkpt lat="48.04144" lon="-0.80076">
        <ele>104.2</ele>
        <time>2018-02-04T10:30:09Z</time>
      </trkpt>
      <trkpt lat="48.04154" lon="-0.80078">
        <ele>104.5</ele>
        <time>2018-02-04T10:30:13Z</time>
      </trkpt>
      <trkpt lat="48.04163" lon="-0.80078">
        <ele>104.9</ele>
        <time>2018-02-04T10:30:17Z</time>
      </trkpt>
      <trkpt lat="48.04173" lon="-0.80077">
        <ele>105.4</ele>
        <time>2018-02-04T10:30:21Z</time>
      </trkpt>
      <trkpt lat="48.04185" lon="-0.80072">
        <ele>106.1</ele>
        <time>2018-02-04T10:30:25Z</time>
      </trkpt>
      <trkpt lat="48.04196" lon="-0.80066">
        <ele>106.4</ele>
        <time>2018-02-04T10:30:29Z</time>
      </trkpt>
      <trkpt lat="48.04208" lon="-0.8006">
        <ele>106.2</ele>
        <time>2018-02-04T10:30:33Z</time>
      </trkpt>
      <trkpt lat="48.04221" lon="-0.80053">
        <ele>106</ele>
        <time>2018-02-04T10:30:37Z</time>
      </trkpt>
      <trkpt lat="48.04235" lon="-0.80047">
        <ele>106.6</ele>
        <time>2018-02-04T10:30:41Z</time>
      </trkpt>
      <trkpt lat="48.04252" lon="-0.80038">
        <ele>106.8</ele>
        <time>2018-02-04T10:30:45Z</time>
      </trkpt>
      <trkpt lat="48.0427" lon="-0.80029">
        <ele>106.8</ele>
        <time>2018-02-04T10:30:49Z</time>
      </trkpt>
      <trkpt lat="48.04287" lon="-0.8002">
        <ele>107.3</ele>
        <time>2018-02-04T10:30:53Z</time>
      </trkpt>
      <trkpt lat="48.04303" lon="-0.80012">
        <ele>107.7</ele>
        <time>2018-02-04T10:30:57Z</time>
      </trkpt>
      <trkpt lat="48.04318" lon="-0.80003">
        <ele>107.8</ele>
        <time>2018-02-04T10:31:01Z</time>
      </trkpt>
      <trkpt lat="48.04331" lon="-0.79995">
        <ele>107.9</ele>
        <time>2018-02-04T10:31:05Z</time>
      </trkpt>
      <trkpt lat="48.04344" lon="-0.79989">
        <ele>109.6</ele>
        <time>2018-02-04T10:31:09Z</time>
      </trkpt>
      <trkpt lat="48.04356" lon="-0.79983">
        <ele>111.1</ele>
        <time>2018-02-04T10:31:13Z</time>
      </trkpt>
      <trkpt lat="48.04368" lon="-0.79976">
        <ele>111.3</ele>
        <time>2018-02-04T10:31:17Z</time>
      </trkpt>
      <trkpt lat="48.0438" lon="-0.79969">
        <ele>111.1</ele>
        <time>2018-02-04T10:31:21Z</time>
      </trkpt>
      <trkpt lat="48.04392" lon="-0.79965">
        <ele>111.8</ele>
        <time>2018-02-04T10:31:25Z</time>
      </trkpt>
      <trkpt lat="48.04405" lon="-0.79958">
        <ele>112.9</ele>
        <time>2018-02-04T10:31:29Z</time>
      </trkpt>
      <trkpt lat="48.04418" lon="-0.79951">
        <ele>113.2</ele>
        <time>2018-02-04T10:31:33Z</time>
      </trkpt>
      <trkpt lat="48.04431" lon="-0.79943">
        <ele>113.1</ele>
        <time>2018-02-04T10:31:37Z</time>
      </trkpt>
      <trkpt lat="48.04444" lon="-0.79935">
        <ele>114.3</ele>
        <time>2018-02-04T10:31:41Z</time>
      </trkpt>
      <trkpt lat="48.04456" lon="-0.79937">
        <ele>115.4</ele>
        <time>2018-02-04T10:31:45Z</time>
      </trkpt>
      <trkpt lat="48.04463" lon="-0.79955">
        <ele>116.2</ele>
        <time>2018-02-04T10:31:49Z</time>
      </trkpt>
      <trkpt lat="48.04474" lon="-0.79978">
        <ele>116.3</ele>
        <time>2018-02-04T10:31:53Z</time>
      </trkpt>
      <trkpt lat="48.0447" lon="-0.79997">
        <ele>114.3</ele>
        <time>2018-02-04T10:31:57Z</time>
      </trkpt>
      <trkpt lat="48.04465" lon="-0.80008">
        <ele>114.7</ele>
        <time>2018-02-04T10:32:01Z</time>
      </trkpt>
      <trkpt lat="48.04453" lon="-0.80012">
        <ele>114.7</ele>
        <time>2018-02-04T10:32:05Z</time>
      </trkpt>
      <trkpt lat="48.04438" lon="-0.80016">
        <ele>114.3</ele>
        <time>2018-02-04T10:32:09Z</time>
      </trkpt>
      <trkpt lat="48.04419" lon="-0.80021">
        <ele>112.9</ele>
        <time>2018-02-04T10:32:13Z</time>
      </trkpt>
      <trkpt lat="48.04398" lon="-0.80029">
        <ele>111.4</ele>
        <time>2018-02-04T10:32:17Z</time>
      </trkpt>
      <trkpt lat="48.04375" lon="-0.8004">
        <ele>110.8</ele>
        <time>2018-02-04T10:32:21Z</time>
      </trkpt>
      <trkpt lat="48.0435" lon="-0.80051">
        <ele>109.5</ele>
        <time>2018-02-04T10:32:25Z</time>
      </trkpt>
      <trkpt lat="48.04325" lon="-0.80064">
        <ele>108.9</ele>
        <time>2018-02-04T10:32:29Z</time>
      </trkpt>
      <trkpt lat="48.043" lon="-0.80075">
        <ele>108.4</ele>
        <time>2018-02-04T10:32:33Z</time>
      </trkpt>
      <trkpt lat="48.04276" lon="-0.80087">
        <ele>107.1</ele>
        <time>2018-02-04T10:32:37Z</time>
      </trkpt>
      <trkpt lat="48.04252" lon="-0.80098">
        <ele>107.4</ele>
        <time>2018-02-04T10:32:41Z</time>
      </trkpt>
      <trkpt lat="48.04228" lon="-0.80111">
        <ele>106.2</ele>
        <time>2018-02-04T10:32:45Z</time>
      </trkpt>
      <trkpt lat="48.04207" lon="-0.80131">
        <ele>106</ele>
        <time>2018-02-04T10:32:49Z</time>
      </trkpt>
      <trkpt lat="48.04188" lon="-0.80154">
        <ele>105.5</ele>
        <time>2018-02-04T10:32:53Z</time>
      </trkpt>
      <trkpt lat="48.04169" lon="-0.80174">
        <ele>104.7</ele>
        <time>2018-02-04T10:32:57Z</time>
      </trkpt>
      <trkpt lat="48.0415" lon="-0.80191">
        <ele>103.5</ele>
        <time>2018-02-04T10:33:01Z</time>
      </trkpt>
      <trkpt lat="48.04141" lon="-0.80194">
        <ele>103.1</ele>
        <time>2018-02-04T10:33:05Z</time>
      </trkpt>
      <trkpt lat="48.04135" lon="-0.80197">
        <ele>103.1</ele>
        <time>2018-02-04T10:33:09Z</time>
      </trkpt>
      <trkpt lat="48.04128" lon="-0.80199">
        <ele>103</ele>
        <time>2018-02-04T10:33:13Z</time>
      </trkpt>
      <trkpt lat="48.04122" lon="-0.802">
        <ele>103</ele>
        <time>2018-02-04T10:33:17Z</time>
      </trkpt>
      <trkpt lat="48.04111" lon="-0.802">
        <ele>102.7</ele>
        <time>2018-02-04T10:33:21Z</time>
      </trkpt>
      <trkpt lat="48.04094" lon="-0.80197">
        <ele>101.7</ele>
        <time>2018-02-04T10:33:25Z</time>
      </trkpt>
      <trkpt lat="48.04073" lon="-0.80193">
        <ele>100.7</ele>
        <time>2018-02-04T10:33:29Z</time>
      </trkpt>
      <trkpt lat="48.04048" lon="-0.80199">
        <ele>99.7</ele>
        <time>2018-02-04T10:33:33Z</time>
      </trkpt>
      <trkpt lat="48.0402" lon="-0.80212">
        <ele>98</ele>
        <time>2018-02-04T10:33:37Z</time>
      </trkpt>
      <trkpt lat="48.03988" lon="-0.80228">
        <ele>96.1</ele>
        <time>2018-02-04T10:33:41Z</time>
      </trkpt>
      <trkpt lat="48.03952" lon="-0.80246">
        <ele>92.6</ele>
        <time>2018-02-04T10:33:45Z</time>
      </trkpt>
      <trkpt lat="48.03912" lon="-0.80266">
        <ele>90.1</ele>
        <time>2018-02-04T10:33:49Z</time>
      </trkpt>
      <trkpt lat="48.03868" lon="-0.80285">
        <ele>86.6</ele>
        <time>2018-02-04T10:33:53Z</time>
      </trkpt>
      <trkpt lat="48.03824" lon="-0.80312">
        <ele>84.1</ele>
        <time>2018-02-04T10:33:57Z</time>
      </trkpt>
      <trkpt lat="48.03782" lon="-0.80343">
        <ele>81.8</ele>
        <time>2018-02-04T10:34:01Z</time>
      </trkpt>
      <trkpt lat="48.0374" lon="-0.80377">
        <ele>79.4</ele>
        <time>2018-02-04T10:34:05Z</time>
      </trkpt>
      <trkpt lat="48.03699" lon="-0.80409">
        <ele>76.6</ele>
        <time>2018-02-04T10:34:09Z</time>
      </trkpt>
      <trkpt lat="48.03671" lon="-0.80444">
        <ele>74.3</ele>
        <time>2018-02-04T10:34:13Z</time>
      </trkpt>
      <trkpt lat="48.03659" lon="-0.80488">
        <ele>74.1</ele>
        <time>2018-02-04T10:34:17Z</time>
      </trkpt>
      <trkpt lat="48.0365" lon="-0.8053">
        <ele>73.9</ele>
        <time>2018-02-04T10:34:21Z</time>
      </trkpt>
      <trkpt lat="48.03644" lon="-0.80569">
        <ele>73.9</ele>
        <time>2018-02-04T10:34:25Z</time>
      </trkpt>
      <trkpt lat="48.03637" lon="-0.80609">
        <ele>72.8</ele>
        <time>2018-02-04T10:34:29Z</time>
      </trkpt>
      <trkpt lat="48.03627" lon="-0.80649">
        <ele>71.9</ele>
        <time>2018-02-04T10:34:33Z</time>
      </trkpt>
      <trkpt lat="48.03613" lon="-0.80686">
        <ele>71.1</ele>
        <time>2018-02-04T10:34:37Z</time>
      </trkpt>
      <trkpt lat="48.03599" lon="-0.80721">
        <ele>71.1</ele>
        <time>2018-02-04T10:34:41Z</time>
      </trkpt>
      <trkpt lat="48.03584" lon="-0.80751">
        <ele>70.1</ele>
        <time>2018-02-04T10:34:45Z</time>
      </trkpt>
      <trkpt lat="48.03568" lon="-0.80782">
        <ele>69.9</ele>
        <time>2018-02-04T10:34:49Z</time>
      </trkpt>
      <trkpt lat="48.03557" lon="-0.80812">
        <ele>69.1</ele>
        <time>2018-02-04T10:34:53Z</time>
      </trkpt>
      <trkpt lat="48.03554" lon="-0.80823">
        <ele>68.9</ele>
        <time>2018-02-04T10:34:57Z</time>
      </trkpt>
      <trkpt lat="48.03559" lon="-0.8083">
        <ele>69.2</ele>
        <time>2018-02-04T10:35:01Z</time>
      </trkpt>
      <trkpt lat="48.03557" lon="-0.80832">
        <ele>69.1</ele>
        <time>2018-02-04T10:35:05Z</time>
      </trkpt>
      <trkpt lat="48.03549" lon="-0.80823">
        <ele>68.7</ele>
        <time>2018-02-04T10:35:09Z</time>
      </trkpt>
      <trkpt lat="48.03536" lon="-0.80821">
        <ele>68</ele>
        <time>2018-02-04T10:35:13Z</time>
      </trkpt>
      <trkpt lat="48.03518" lon="-0.8082">
        <ele>67.2</ele>
        <time>2018-02-04T10:35:17Z</time>
      </trkpt>
      <trkpt lat="48.03497" lon="-0.80819">
        <ele>66.4</ele>
        <time>2018-02-04T10:35:21Z</time>
      </trkpt>
      <trkpt lat="48.03474" lon="-0.80818">
        <ele>66</ele>
        <time>2018-02-04T10:35:25Z</time>
      </trkpt>
      <trkpt lat="48.0345" lon="-0.80817">
        <ele>65.2</ele>
        <time>2018-02-04T10:35:29Z</time>
      </trkpt>
      <trkpt lat="48.03426" lon="-0.80816">
        <ele>64.8</ele>
        <time>2018-02-04T10:35:33Z</time>
      </trkpt>
      <trkpt lat="48.03402" lon="-0.80815">
        <ele>65.2</ele>
        <time>2018-02-04T10:35:37Z</time>
      </trkpt>
      <trkpt lat="48.03379" lon="-0.80815">
        <ele>65.9</ele>
        <time>2018-02-04T10:35:41Z</time>
      </trkpt>
      <trkpt lat="48.03356" lon="-0.80814">
        <ele>66.4</ele>
        <time>2018-02-04T10:35:45Z</time>
      </trkpt>
      <trkpt lat="48.03334" lon="-0.80813">
        <ele>66.7</ele>
        <time>2018-02-04T10:35:49Z</time>
      </trkpt>
      <trkpt lat="48.03313" lon="-0.80813">
        <ele>67.5</ele>
        <time>2018-02-04T10:35:53Z</time>
      </trkpt>
      <trkpt lat="48.03292" lon="-0.80812">
        <ele>67.8</ele>
        <time>2018-02-04T10:35:57Z</time>
      </trkpt>
      <trkpt lat="48.03271" lon="-0.80811">
        <ele>67.8</ele>
        <time>2018-02-04T10:36:01Z</time>
      </trkpt>
      <trkpt lat="48.03251" lon="-0.8081">
        <ele>67.8</ele>
        <time>2018-02-04T10:36:05Z</time>
      </trkpt>
      <trkpt lat="48.03231" lon="-0.8081">
        <ele>68</ele>
        <time>2018-02-04T10:36:09Z</time>
      </trkpt>
      <trkpt lat="48.03212" lon="-0.80809">
        <ele>68.6</ele>
        <time>2018-02-04T10:36:13Z</time>
      </trkpt>
      <trkpt lat="48.03195" lon="-0.80808">
        <ele>69.8</ele>
        <time>2018-02-04T10:36:17Z</time>
      </trkpt>
      <trkpt lat="48.03181" lon="-0.80818">
        <ele>69.3</ele>
        <time>2018-02-04T10:36:21Z</time>
      </trkpt>
      <trkpt lat="48.03168" lon="-0.80843">
        <ele>68.6</ele>
        <time>2018-02-04T10:36:25Z</time>
      </trkpt>
      <trkpt lat="48.03153" lon="-0.80859">
        <ele>68.1</ele>
        <time>2018-02-04T10:36:29Z</time>
      </trkpt>
      <trkpt lat="48.03141" lon="-0.80847">
        <ele>69</ele>
        <time>2018-02-04T10:36:33Z</time>
      </trkpt>
      <trkpt lat="48.03128" lon="-0.80842">
        <ele>69.1</ele>
        <time>2018-02-04T10:36:37Z</time>
      </trkpt>
      <trkpt lat="48.03113" lon="-0.8084">
        <ele>68.8</ele>
        <time>2018-02-04T10:36:41Z</time>
      </trkpt>
      <trkpt lat="48.031" lon="-0.80828">
        <ele>68.6</ele>
        <time>2018-02-04T10:36:45Z</time>
      </trkpt>
      <trkpt lat="48.03091" lon="-0.80802">
        <ele>68.4</ele>
        <time>2018-02-04T10:36:49Z</time>
      </trkpt>
      <trkpt lat="48.03088" lon="-0.80773">
        <ele>69.5</ele>
        <time>2018-02-04T10:36:53Z</time>
      </trkpt>
      <trkpt lat="48.0308" lon="-0.80749">
        <ele>70.8</ele>
        <time>2018-02-04T10:36:57Z</time>
      </trkpt>
      <trkpt lat="48.03065" lon="-0.80737">
        <ele>70.5</ele>
        <time>2018-02-04T10:37:01Z</time>
      </trkpt>
      <trkpt lat="48.03048" lon="-0.80737">
        <ele>70.1</ele>
        <time>2018-02-04T10:37:05Z</time>
      </trkpt>
      <trkpt lat="48.03036" lon="-0.80728">
        <ele>70.7</ele>
        <time>2018-02-04T10:37:09Z</time>
      </trkpt>
      <trkpt lat="48.03028" lon="-0.80723">
        <ele>71</ele>
        <time>2018-02-04T10:37:13Z</time>
      </trkpt>
      <trkpt lat="48.03012" lon="-0.80727">
        <ele>70.7</ele>
        <time>2018-02-04T10:37:17Z</time>
      </trkpt>
      <trkpt lat="48.02993" lon="-0.80728">
        <ele>70.4</ele>
        <time>2018-02-04T10:37:21Z</time>
      </trkpt>
      <trkpt lat="48.02973" lon="-0.8073">
        <ele>69.8</ele>
        <time>2018-02-04T10:37:25Z</time>
      </trkpt>
      <trkpt lat="48.02954" lon="-0.80737">
        <ele>69.5</ele>
        <time>2018-02-04T10:37:29Z</time>
      </trkpt>
      <trkpt lat="48.02932" lon="-0.80742">
        <ele>68.8</ele>
        <time>2018-02-04T10:37:33Z</time>
      </trkpt>
      <trkpt lat="48.02911" lon="-0.80747">
        <ele>68.1</ele>
        <time>2018-02-04T10:37:37Z</time>
      </trkpt>
      <trkpt lat="48.02895" lon="-0.80757">
        <ele>67.7</ele>
        <time>2018-02-04T10:37:41Z</time>
      </trkpt>
      <trkpt lat="48.02894" lon="-0.80785">
        <ele>66.7</ele>
        <time>2018-02-04T10:37:45Z</time>
      </trkpt>
      <trkpt lat="48.02897" lon="-0.80819">
        <ele>65.7</ele>
        <time>2018-02-04T10:37:49Z</time>
      </trkpt>
      <trkpt lat="48.029" lon="-0.80857">
        <ele>64.5</ele>
        <time>2018-02-04T10:37:53Z</time>
      </trkpt>
      <trkpt lat="48.029" lon="-0.80885">
        <ele>64.1</ele>
        <time>2018-02-04T10:37:57Z</time>
      </trkpt>
      <trkpt lat="48.02885" lon="-0.80893">
        <ele>64</ele>
        <time>2018-02-04T10:38:01Z</time>
      </trkpt>
      <trkpt lat="48.02865" lon="-0.80897">
        <ele>64</ele>
        <time>2018-02-04T10:38:05Z</time>
      </trkpt>
      <trkpt lat="48.02844" lon="-0.80902">
        <ele>64.3</ele>
        <time>2018-02-04T10:38:09Z</time>
      </trkpt>
      <trkpt lat="48.02827" lon="-0.80903">
        <ele>64.5</ele>
        <time>2018-02-04T10:38:13Z</time>
      </trkpt>
      <trkpt lat="48.02815" lon="-0.80897">
        <ele>64.7</ele>
        <time>2018-02-04T10:38:17Z</time>
      </trkpt>
      <trkpt lat="48.02803" lon="-0.80892">
        <ele>64.9</ele>
        <time>2018-02-04T10:38:21Z</time>
      </trkpt>
      <trkpt lat="48.02789" lon="-0.80885">
        <ele>65.2</ele>
        <time>2018-02-04T10:38:25Z</time>
      </trkpt>
      <trkpt lat="48.02774" lon="-0.80877">
        <ele>65.9</ele>
        <time>2018-02-04T10:38:29Z</time>
      </trkpt>
      <trkpt lat="48.02757" lon="-0.80871">
        <ele>66.1</ele>
        <time>2018-02-04T10:38:33Z</time>
      </trkpt>
      <trkpt lat="48.02742" lon="-0.80865">
        <ele>67.1</ele>
        <time>2018-02-04T10:38:37Z</time>
      </trkpt>
      <trkpt lat="48.02728" lon="-0.80875">
        <ele>68</ele>
        <time>2018-02-04T10:38:41Z</time>
      </trkpt>
      <trkpt lat="48.02713" lon="-0.80889">
        <ele>68.6</ele>
        <time>2018-02-04T10:38:45Z</time>
      </trkpt>
      <trkpt lat="48.027" lon="-0.80902">
        <ele>69.6</ele>
        <time>2018-02-04T10:38:49Z</time>
      </trkpt>
      <trkpt lat="48.02685" lon="-0.8091">
        <ele>70.1</ele>
        <time>2018-02-04T10:38:53Z</time>
      </trkpt>
      <trkpt lat="48.02671" lon="-0.80917">
        <ele>70.5</ele>
        <time>2018-02-04T10:38:57Z</time>
      </trkpt>
      <trkpt lat="48.02657" lon="-0.80925">
        <ele>70.4</ele>
        <time>2018-02-04T10:39:01Z</time>
      </trkpt>
      <trkpt lat="48.02634" lon="-0.80934">
        <ele>69.9</ele>
        <time>2018-02-04T10:39:05Z</time>
      </trkpt>
      <trkpt lat="48.02608" lon="-0.80941">
        <ele>68.6</ele>
        <time>2018-02-04T10:39:09Z</time>
      </trkpt>
      <trkpt lat="48.02584" lon="-0.80945">
        <ele>68.9</ele>
        <time>2018-02-04T10:39:13Z</time>
      </trkpt>
      <trkpt lat="48.0256" lon="-0.80947">
        <ele>67.7</ele>
        <time>2018-02-04T10:39:17Z</time>
      </trkpt>
      <trkpt lat="48.0254" lon="-0.80949">
        <ele>66.8</ele>
        <time>2018-02-04T10:39:21Z</time>
      </trkpt>
      <trkpt lat="48.0252" lon="-0.80946">
        <ele>66.3</ele>
        <time>2018-02-04T10:39:25Z</time>
      </trkpt>
      <trkpt lat="48.02498" lon="-0.80944">
        <ele>65.1</ele>
        <time>2018-02-04T10:39:29Z</time>
      </trkpt>
      <trkpt lat="48.02481" lon="-0.8094">
        <ele>65.1</ele>
        <time>2018-02-04T10:39:33Z</time>
      </trkpt>
      <trkpt lat="48.02463" lon="-0.80934">
        <ele>65.7</ele>
        <time>2018-02-04T10:39:37Z</time>
      </trkpt>
      <trkpt lat="48.02449" lon="-0.80933">
        <ele>65.7</ele>
        <time>2018-02-04T10:39:41Z</time>
      </trkpt>
      <trkpt lat="48.0243" lon="-0.80932">
        <ele>65.7</ele>
        <time>2018-02-04T10:39:45Z</time>
      </trkpt>
      <trkpt lat="48.02414" lon="-0.80932">
        <ele>65.7</ele>
        <time>2018-02-04T10:39:49Z</time>
      </trkpt>
      <trkpt lat="48.02396" lon="-0.80933">
        <ele>64.6</ele>
        <time>2018-02-04T10:39:53Z</time>
      </trkpt>
      <trkpt lat="48.0238" lon="-0.80939">
        <ele>63.6</ele>
        <time>2018-02-04T10:39:57Z</time>
      </trkpt>
      <trkpt lat="48.0236" lon="-0.80941">
        <ele>63.6</ele>
        <time>2018-02-04T10:40:01Z</time>
      </trkpt>
      <trkpt lat="48.02344" lon="-0.80946">
        <ele>64.7</ele>
        <time>2018-02-04T10:40:05Z</time>
      </trkpt>
      <trkpt lat="48.02331" lon="-0.80949">
        <ele>65.8</ele>
        <time>2018-02-04T10:40:09Z</time>
      </trkpt>
      <trkpt lat="48.02321" lon="-0.80954">
        <ele>66.3</ele>
        <time>2018-02-04T10:40:13Z</time>
      </trkpt>
      <trkpt lat="48.02312" lon="-0.80962">
        <ele>66.1</ele>
        <time>2018-02-04T10:40:17Z</time>
      </trkpt>
      <trkpt lat="48.02306" lon="-0.80966">
        <ele>66.1</ele>
        <time>2018-02-04T10:40:21Z</time>
      </trkpt>
      <trkpt lat="48.02298" lon="-0.80972">
        <ele>66.1</ele>
        <time>2018-02-04T10:40:25Z</time>
      </trkpt>
      <trkpt lat="48.02291" lon="-0.80981">
        <ele>65.9</ele>
        <time>2018-02-04T10:40:29Z</time>
      </trkpt>
      <trkpt lat="48.02284" lon="-0.80988">
        <ele>65.8</ele>
        <time>2018-02-04T10:40:33Z</time>
      </trkpt>
      <trkpt lat="48.02277" lon="-0.80995">
        <ele>65.9</ele>
        <time>2018-02-04T10:40:37Z</time>
      </trkpt>
      <trkpt lat="48.02268" lon="-0.81005">
        <ele>66.1</ele>
        <time>2018-02-04T10:40:41Z</time>
      </trkpt>
      <trkpt lat="48.0226" lon="-0.81015">
        <ele>66.1</ele>
        <time>2018-02-04T10:40:45Z</time>
      </trkpt>
      <trkpt lat="48.02253" lon="-0.81029">
        <ele>65.4</ele>
        <time>2018-02-04T10:40:49Z</time>
      </trkpt>
      <trkpt lat="48.02241" lon="-0.81041">
        <ele>65.3</ele>
        <time>2018-02-04T10:40:53Z</time>
      </trkpt>
      <trkpt lat="48.02229" lon="-0.81056">
        <ele>64.2</ele>
        <time>2018-02-04T10:40:57Z</time>
      </trkpt>
      <trkpt lat="48.02217" lon="-0.8107">
        <ele>64.2</ele>
        <time>2018-02-04T10:41:01Z</time>
      </trkpt>
      <trkpt lat="48.02207" lon="-0.81082">
        <ele>64.3</ele>
        <time>2018-02-04T10:41:05Z</time>
      </trkpt>
      <trkpt lat="48.02197" lon="-0.81098">
        <ele>63.7</ele>
        <time>2018-02-04T10:41:09Z</time>
      </trkpt>
      <trkpt lat="48.02187" lon="-0.81104">
        <ele>63.6</ele>
        <time>2018-02-04T10:41:13Z</time>
      </trkpt>
      <trkpt lat="48.02177" lon="-0.8111">
        <ele>63.4</ele>
        <time>2018-02-04T10:41:17Z</time>
      </trkpt>
      <trkpt lat="48.02165" lon="-0.81112">
        <ele>64</ele>
        <time>2018-02-04T10:41:21Z</time>
      </trkpt>
      <trkpt lat="48.02152" lon="-0.81118">
        <ele>63.4</ele>
        <time>2018-02-04T10:41:25Z</time>
      </trkpt>
      <trkpt lat="48.02139" lon="-0.81123">
        <ele>62.4</ele>
        <time>2018-02-04T10:41:29Z</time>
      </trkpt>
      <trkpt lat="48.02127" lon="-0.81131">
        <ele>61</ele>
        <time>2018-02-04T10:41:33Z</time>
      </trkpt>
      <trkpt lat="48.02116" lon="-0.81137">
        <ele>60.1</ele>
        <time>2018-02-04T10:41:37Z</time>
      </trkpt>
      <trkpt lat="48.02104" lon="-0.8114">
        <ele>60.4</ele>
        <time>2018-02-04T10:41:41Z</time>
      </trkpt>
      <trkpt lat="48.02093" lon="-0.81145">
        <ele>60.7</ele>
        <time>2018-02-04T10:41:45Z</time>
      </trkpt>
      <trkpt lat="48.02078" lon="-0.81146">
        <ele>61.4</ele>
        <time>2018-02-04T10:41:49Z</time>
      </trkpt>
      <trkpt lat="48.02067" lon="-0.81148">
        <ele>61.5</ele>
        <time>2018-02-04T10:41:53Z</time>
      </trkpt>
      <trkpt lat="48.02056" lon="-0.81148">
        <ele>62</ele>
        <time>2018-02-04T10:41:57Z</time>
      </trkpt>
      <trkpt lat="48.02045" lon="-0.81149">
        <ele>62.3</ele>
        <time>2018-02-04T10:42:01Z</time>
      </trkpt>
      <trkpt lat="48.02033" lon="-0.8115">
        <ele>62.6</ele>
        <time>2018-02-04T10:42:05Z</time>
      </trkpt>
      <trkpt lat="48.0202" lon="-0.81147">
        <ele>63.2</ele>
        <time>2018-02-04T10:42:09Z</time>
      </trkpt>
      <trkpt lat="48.02005" lon="-0.81146">
        <ele>63.4</ele>
        <time>2018-02-04T10:42:13Z</time>
      </trkpt>
      <trkpt lat="48.01991" lon="-0.81144">
        <ele>63.9</ele>
        <time>2018-02-04T10:42:17Z</time>
      </trkpt>
      <trkpt lat="48.01979" lon="-0.81143">
        <ele>64.3</ele>
        <time>2018-02-04T10:42:21Z</time>
      </trkpt>
      <trkpt lat="48.01965" lon="-0.81142">
        <ele>64.7</ele>
        <time>2018-02-04T10:42:25Z</time>
      </trkpt>
      <trkpt lat="48.01952" lon="-0.81141">
        <ele>64.8</ele>
        <time>2018-02-04T10:42:29Z</time>
      </trkpt>
      <trkpt lat="48.0194" lon="-0.81137">
        <ele>65.1</ele>
        <time>2018-02-04T10:42:33Z</time>
      </trkpt>
      <trkpt lat="48.01929" lon="-0.81133">
        <ele>65.1</ele>
        <time>2018-02-04T10:42:37Z</time>
      </trkpt>
      <trkpt lat="48.01918" lon="-0.81125">
        <ele>65.5</ele>
        <time>2018-02-04T10:42:41Z</time>
      </trkpt>
      <trkpt lat="48.01909" lon="-0.81117">
        <ele>65.9</ele>
        <time>2018-02-04T10:42:45Z</time>
      </trkpt>
      <trkpt lat="48.01899" lon="-0.81106">
        <ele>66.1</ele>
        <time>2018-02-04T10:42:49Z</time>
      </trkpt>
      <trkpt lat="48.01891" lon="-0.81098">
        <ele>66.1</ele>
        <time>2018-02-04T10:42:53Z</time>
      </trkpt>
      <trkpt lat="48.01885" lon="-0.81085">
        <ele>66.7</ele>
        <time>2018-02-04T10:42:57Z</time>
      </trkpt>
      <trkpt lat="48.01878" lon="-0.81073">
        <ele>67.2</ele>
        <time>2018-02-04T10:43:01Z</time>
      </trkpt>
      <trkpt lat="48.0187" lon="-0.81069">
        <ele>67</ele>
        <time>2018-02-04T10:43:05Z</time>
      </trkpt>
      <trkpt lat="48.01859" lon="-0.81072">
        <ele>66.6</ele>
        <time>2018-02-04T10:43:09Z</time>
      </trkpt>
      <trkpt lat="48.01851" lon="-0.81074">
        <ele>67.4</ele>
        <time>2018-02-04T10:43:13Z</time>
      </trkpt>
      <trkpt lat="48.01845" lon="-0.81077">
        <ele>67.9</ele>
        <time>2018-02-04T10:43:17Z</time>
      </trkpt>
      <trkpt lat="48.01837" lon="-0.81083">
        <ele>68.6</ele>
        <time>2018-02-04T10:43:21Z</time>
      </trkpt>
      <trkpt lat="48.0183" lon="-0.8109">
        <ele>69.2</ele>
        <time>2018-02-04T10:43:25Z</time>
      </trkpt>
      <trkpt lat="48.01824" lon="-0.81096">
        <ele>69.4</ele>
        <time>2018-02-04T10:43:29Z</time>
      </trkpt>
      <trkpt lat="48.01817" lon="-0.811">
        <ele>69.5</ele>
        <time>2018-02-04T10:43:33Z</time>
      </trkpt>
      <trkpt lat="48.01806" lon="-0.81105">
        <ele>69.5</ele>
        <time>2018-02-04T10:43:37Z</time>
      </trkpt>
      <trkpt lat="48.01792" lon="-0.81104">
        <ele>69.1</ele>
        <time>2018-02-04T10:43:41Z</time>
      </trkpt>
      <trkpt lat="48.01775" lon="-0.81096">
        <ele>68.9</ele>
        <time>2018-02-04T10:43:45Z</time>
      </trkpt>
      <trkpt lat="48.01754" lon="-0.81092">
        <ele>67.6</ele>
        <time>2018-02-04T10:43:49Z</time>
      </trkpt>
      <trkpt lat="48.01732" lon="-0.81093">
        <ele>66.7</ele>
        <time>2018-02-04T10:43:53Z</time>
      </trkpt>
      <trkpt lat="48.0171" lon="-0.81091">
        <ele>65.7</ele>
        <time>2018-02-04T10:43:57Z</time>
      </trkpt>
      <trkpt lat="48.01688" lon="-0.81083">
        <ele>64.5</ele>
        <time>2018-02-04T10:44:01Z</time>
      </trkpt>
      <trkpt lat="48.01664" lon="-0.81088">
        <ele>62.8</ele>
        <time>2018-02-04T10:44:05Z</time>
      </trkpt>
      <trkpt lat="48.01639" lon="-0.81095">
        <ele>62.2</ele>
        <time>2018-02-04T10:44:09Z</time>
      </trkpt>
      <trkpt lat="48.01608" lon="-0.81103">
        <ele>61.2</ele>
        <time>2018-02-04T10:44:13Z</time>
      </trkpt>
      <trkpt lat="48.0158" lon="-0.81105">
        <ele>60.4</ele>
        <time>2018-02-04T10:44:17Z</time>
      </trkpt>
      <trkpt lat="48.01557" lon="-0.81104">
        <ele>60.5</ele>
        <time>2018-02-04T10:44:21Z</time>
      </trkpt>
      <trkpt lat="48.01537" lon="-0.81103">
        <ele>60.8</ele>
        <time>2018-02-04T10:44:25Z</time>
      </trkpt>
      <trkpt lat="48.01516" lon="-0.81107">
        <ele>60.6</ele>
        <time>2018-02-04T10:44:29Z</time>
      </trkpt>
      <trkpt lat="48.01495" lon="-0.81113">
        <ele>60.3</ele>
        <time>2018-02-04T10:44:33Z</time>
      </trkpt>
      <trkpt lat="48.01477" lon="-0.81115">
        <ele>61.8</ele>
        <time>2018-02-04T10:44:37Z</time>
      </trkpt>
      <trkpt lat="48.01456" lon="-0.81114">
        <ele>62.3</ele>
        <time>2018-02-04T10:44:41Z</time>
      </trkpt>
      <trkpt lat="48.01437" lon="-0.8111">
        <ele>62.8</ele>
        <time>2018-02-04T10:44:45Z</time>
      </trkpt>
      <trkpt lat="48.01415" lon="-0.81103">
        <ele>63.1</ele>
        <time>2018-02-04T10:44:49Z</time>
      </trkpt>
      <trkpt lat="48.01394" lon="-0.81089">
        <ele>63</ele>
        <time>2018-02-04T10:44:53Z</time>
      </trkpt>
      <trkpt lat="48.01368" lon="-0.81069">
        <ele>61.6</ele>
        <time>2018-02-04T10:44:57Z</time>
      </trkpt>
      <trkpt lat="48.01342" lon="-0.81051">
        <ele>61.4</ele>
        <time>2018-02-04T10:45:01Z</time>
      </trkpt>
      <trkpt lat="48.01321" lon="-0.8103">
        <ele>62.3</ele>
        <time>2018-02-04T10:45:05Z</time>
      </trkpt>
      <trkpt lat="48.01299" lon="-0.81013">
        <ele>61.7</ele>
        <time>2018-02-04T10:45:09Z</time>
      </trkpt>
      <trkpt lat="48.01279" lon="-0.80996">
        <ele>59.7</ele>
        <time>2018-02-04T10:45:13Z</time>
      </trkpt>
      <trkpt lat="48.01261" lon="-0.80974">
        <ele>59.8</ele>
        <time>2018-02-04T10:45:17Z</time>
      </trkpt>
      <trkpt lat="48.01243" lon="-0.80957">
        <ele>57.9</ele>
        <time>2018-02-04T10:45:21Z</time>
      </trkpt>
      <trkpt lat="48.01222" lon="-0.80959">
        <ele>56</ele>
        <time>2018-02-04T10:45:25Z</time>
      </trkpt>
      <trkpt lat="48.01205" lon="-0.8097">
        <ele>54.6</ele>
        <time>2018-02-04T10:45:29Z</time>
      </trkpt>
      <trkpt lat="48.01192" lon="-0.80985">
        <ele>53.7</ele>
        <time>2018-02-04T10:45:33Z</time>
      </trkpt>
      <trkpt lat="48.01182" lon="-0.81006">
        <ele>54.5</ele>
        <time>2018-02-04T10:45:37Z</time>
      </trkpt>
      <trkpt lat="48.0118" lon="-0.81023">
        <ele>55.4</ele>
        <time>2018-02-04T10:45:41Z</time>
      </trkpt>
      <trkpt lat="48.0117" lon="-0.81029">
        <ele>57.5</ele>
        <time>2018-02-04T10:45:45Z</time>
      </trkpt>
      <trkpt lat="48.01164" lon="-0.81027">
        <ele>58.6</ele>
        <time>2018-02-04T10:45:53Z</time>
      </trkpt>
      <trkpt lat="48.01161" lon="-0.81026">
        <ele>59.4</ele>
        <time>2018-02-04T10:45:57Z</time>
      </trkpt>
      <trkpt lat="48.01158" lon="-0.81022">
        <ele>59.6</ele>
        <time>2018-02-04T10:46:05Z</time>
      </trkpt>
      <trkpt lat="48.01152" lon="-0.81016">
        <ele>60.6</ele>
        <time>2018-02-04T10:46:33Z</time>
      </trkpt>
      <trkpt lat="48.01151" lon="-0.81016">
        <ele>60.8</ele>
        <time>2018-02-04T10:46:41Z</time>
      </trkpt>
      <trkpt lat="48.01147" lon="-0.81014">
        <ele>61.5</ele>
        <time>2018-02-04T10:46:45Z</time>
      </trkpt>
      <trkpt lat="48.01143" lon="-0.81012">
        <ele>62.4</ele>
        <time>2018-02-04T10:46:49Z</time>
      </trkpt>
      <trkpt lat="48.01135" lon="-0.81008">
        <ele>63.8</ele>
        <time>2018-02-04T10:46:53Z</time>
      </trkpt>
      <trkpt lat="48.01126" lon="-0.81004">
        <ele>65.4</ele>
        <time>2018-02-04T10:46:57Z</time>
      </trkpt>
      <trkpt lat="48.01118" lon="-0.81002">
        <ele>66.8</ele>
        <time>2018-02-04T10:47:01Z</time>
      </trkpt>
      <trkpt lat="48.01107" lon="-0.80995">
        <ele>68</ele>
        <time>2018-02-04T10:47:05Z</time>
      </trkpt>
      <trkpt lat="48.01097" lon="-0.80994">
        <ele>69.7</ele>
        <time>2018-02-04T10:47:09Z</time>
      </trkpt>
      <trkpt lat="48.01088" lon="-0.80993">
        <ele>70.8</ele>
        <time>2018-02-04T10:47:13Z</time>
      </trkpt>
      <trkpt lat="48.01079" lon="-0.80993">
        <ele>72.1</ele>
        <time>2018-02-04T10:47:17Z</time>
      </trkpt>
      <trkpt lat="48.01069" lon="-0.80991">
        <ele>72.5</ele>
        <time>2018-02-04T10:47:21Z</time>
      </trkpt>
      <trkpt lat="48.01059" lon="-0.80987">
        <ele>72.8</ele>
        <time>2018-02-04T10:47:25Z</time>
      </trkpt>
      <trkpt lat="48.01049" lon="-0.80986">
        <ele>72.8</ele>
        <time>2018-02-04T10:47:29Z</time>
      </trkpt>
      <trkpt lat="48.0104" lon="-0.80983">
        <ele>72</ele>
        <time>2018-02-04T10:47:33Z</time>
      </trkpt>
      <trkpt lat="48.01032" lon="-0.80982">
        <ele>71.6</ele>
        <time>2018-02-04T10:47:37Z</time>
      </trkpt>
      <trkpt lat="48.01019" lon="-0.80982">
        <ele>70.8</ele>
        <time>2018-02-04T10:47:41Z</time>
      </trkpt>
      <trkpt lat="48.01008" lon="-0.8098">
        <ele>69.5</ele>
        <time>2018-02-04T10:47:45Z</time>
      </trkpt>
      <trkpt lat="48.00995" lon="-0.80982">
        <ele>68.4</ele>
        <time>2018-02-04T10:47:49Z</time>
      </trkpt>
      <trkpt lat="48.00983" lon="-0.80987">
        <ele>67.5</ele>
        <time>2018-02-04T10:47:53Z</time>
      </trkpt>
      <trkpt lat="48.00971" lon="-0.80992">
        <ele>66.4</ele>
        <time>2018-02-04T10:47:57Z</time>
      </trkpt>
      <trkpt lat="48.00959" lon="-0.80992">
        <ele>66.1</ele>
        <time>2018-02-04T10:48:01Z</time>
      </trkpt>
      <trkpt lat="48.00947" lon="-0.80993">
        <ele>65.8</ele>
        <time>2018-02-04T10:48:05Z</time>
      </trkpt>
      <trkpt lat="48.00935" lon="-0.80995">
        <ele>65.5</ele>
        <time>2018-02-04T10:48:09Z</time>
      </trkpt>
      <trkpt lat="48.00923" lon="-0.80999">
        <ele>65.2</ele>
        <time>2018-02-04T10:48:13Z</time>
      </trkpt>
      <trkpt lat="48.00908" lon="-0.81006">
        <ele>64.9</ele>
        <time>2018-02-04T10:48:17Z</time>
      </trkpt>
      <trkpt lat="48.00893" lon="-0.81012">
        <ele>64.6</ele>
        <time>2018-02-04T10:48:21Z</time>
      </trkpt>
      <trkpt lat="48.00878" lon="-0.81018">
        <ele>64.2</ele>
        <time>2018-02-04T10:48:25Z</time>
      </trkpt>
      <trkpt lat="48.00863" lon="-0.81025">
        <ele>64</ele>
        <time>2018-02-04T10:48:29Z</time>
      </trkpt>
      <trkpt lat="48.00848" lon="-0.8103">
        <ele>64</ele>
        <time>2018-02-04T10:48:33Z</time>
      </trkpt>
      <trkpt lat="48.00834" lon="-0.81036">
        <ele>64</ele>
        <time>2018-02-04T10:48:37Z</time>
      </trkpt>
      <trkpt lat="48.00819" lon="-0.81043">
        <ele>64.2</ele>
        <time>2018-02-04T10:48:41Z</time>
      </trkpt>
      <trkpt lat="48.00805" lon="-0.8105">
        <ele>64.2</ele>
        <time>2018-02-04T10:48:45Z</time>
      </trkpt>
      <trkpt lat="48.0079" lon="-0.81056">
        <ele>64.5</ele>
        <time>2018-02-04T10:48:49Z</time>
      </trkpt>
      <trkpt lat="48.00778" lon="-0.81062">
        <ele>64.8</ele>
        <time>2018-02-04T10:48:53Z</time>
      </trkpt>
      <trkpt lat="48.00765" lon="-0.81068">
        <ele>64.3</ele>
        <time>2018-02-04T10:48:57Z</time>
      </trkpt>
      <trkpt lat="48.0075" lon="-0.81077">
        <ele>64</ele>
        <time>2018-02-04T10:49:01Z</time>
      </trkpt>
      <trkpt lat="48.00733" lon="-0.81082">
        <ele>64</ele>
        <time>2018-02-04T10:49:05Z</time>
      </trkpt>
      <trkpt lat="48.00718" lon="-0.81088">
        <ele>64</ele>
        <time>2018-02-04T10:49:09Z</time>
      </trkpt>
      <trkpt lat="48.00705" lon="-0.81091">
        <ele>64.2</ele>
        <time>2018-02-04T10:49:13Z</time>
      </trkpt>
      <trkpt lat="48.00694" lon="-0.81099">
        <ele>64.6</ele>
        <time>2018-02-04T10:49:17Z</time>
      </trkpt>
      <trkpt lat="48.00688" lon="-0.81102">
        <ele>64.5</ele>
        <time>2018-02-04T10:49:21Z</time>
      </trkpt>
      <trkpt lat="48.00684" lon="-0.81104">
        <ele>64.4</ele>
        <time>2018-02-04T10:49:25Z</time>
      </trkpt>
      <trkpt lat="48.00681" lon="-0.81103">
        <ele>64.2</ele>
        <time>2018-02-04T10:49:29Z</time>
      </trkpt>
      <trkpt lat="48.0068" lon="-0.81104">
        <ele>64.2</ele>
        <time>2018-02-04T10:49:53Z</time>
      </trkpt>
      <trkpt lat="48.00679" lon="-0.81095">
        <ele>63.9</ele>
        <time>2018-02-04T10:49:57Z</time>
      </trkpt>
      <trkpt lat="48.00676" lon="-0.81081">
        <ele>63.3</ele>
        <time>2018-02-04T10:50:01Z</time>
      </trkpt>
      <trkpt lat="48.00664" lon="-0.81067">
        <ele>62.3</ele>
        <time>2018-02-04T10:50:05Z</time>
      </trkpt>
      <trkpt lat="48.00644" lon="-0.81066">
        <ele>61.6</ele>
        <time>2018-02-04T10:50:09Z</time>
      </trkpt>
      <trkpt lat="48.00624" lon="-0.81053">
        <ele>60.3</ele>
        <time>2018-02-04T10:50:13Z</time>
      </trkpt>
      <trkpt lat="48.00615" lon="-0.81015">
        <ele>58.7</ele>
        <time>2018-02-04T10:50:17Z</time>
      </trkpt>
      <trkpt lat="48.0061" lon="-0.80973">
        <ele>57</ele>
        <time>2018-02-04T10:50:21Z</time>
      </trkpt>
      <trkpt lat="48.00604" lon="-0.8093">
        <ele>55.5</ele>
        <time>2018-02-04T10:50:25Z</time>
      </trkpt>
      <trkpt lat="48.006" lon="-0.8089">
        <ele>55</ele>
        <time>2018-02-04T10:50:29Z</time>
      </trkpt>
      <trkpt lat="48.00595" lon="-0.80854">
        <ele>55</ele>
        <time>2018-02-04T10:50:33Z</time>
      </trkpt>
      <trkpt lat="48.00594" lon="-0.8082">
        <ele>55.2</ele>
        <time>2018-02-04T10:50:37Z</time>
      </trkpt>
      <trkpt lat="48.00598" lon="-0.8079">
        <ele>53.8</ele>
        <time>2018-02-04T10:50:41Z</time>
      </trkpt>
      <trkpt lat="48.00604" lon="-0.80762">
        <ele>53.9</ele>
        <time>2018-02-04T10:50:45Z</time>
      </trkpt>
      <trkpt lat="48.00611" lon="-0.80734">
        <ele>56.5</ele>
        <time>2018-02-04T10:50:49Z</time>
      </trkpt>
      <trkpt lat="48.00619" lon="-0.80706">
        <ele>58.4</ele>
        <time>2018-02-04T10:50:53Z</time>
      </trkpt>
      <trkpt lat="48.00626" lon="-0.80681">
        <ele>60.5</ele>
        <time>2018-02-04T10:50:57Z</time>
      </trkpt>
      <trkpt lat="48.00632" lon="-0.80658">
        <ele>62.1</ele>
        <time>2018-02-04T10:51:01Z</time>
      </trkpt>
      <trkpt lat="48.00637" lon="-0.80636">
        <ele>63</ele>
        <time>2018-02-04T10:51:05Z</time>
      </trkpt>
      <trkpt lat="48.00638" lon="-0.80614">
        <ele>63.9</ele>
        <time>2018-02-04T10:51:09Z</time>
      </trkpt>
      <trkpt lat="48.00636" lon="-0.80593">
        <ele>64.5</ele>
        <time>2018-02-04T10:51:13Z</time>
      </trkpt>
      <trkpt lat="48.00636" lon="-0.80576">
        <ele>65.4</ele>
        <time>2018-02-04T10:51:17Z</time>
      </trkpt>
      <trkpt lat="48.00636" lon="-0.80558">
        <ele>66.7</ele>
        <time>2018-02-04T10:51:21Z</time>
      </trkpt>
      <trkpt lat="48.00634" lon="-0.80541">
        <ele>67.3</ele>
        <time>2018-02-04T10:51:25Z</time>
      </trkpt>
      <trkpt lat="48.00632" lon="-0.80525">
        <ele>68</ele>
        <time>2018-02-04T10:51:29Z</time>
      </trkpt>
      <trkpt lat="48.00632" lon="-0.80508">
        <ele>69</ele>
        <time>2018-02-04T10:51:33Z</time>
      </trkpt>
      <trkpt lat="48.0063" lon="-0.8049">
        <ele>69.8</ele>
        <time>2018-02-04T10:51:37Z</time>
      </trkpt>
      <trkpt lat="48.00629" lon="-0.80474">
        <ele>70.5</ele>
        <time>2018-02-04T10:51:41Z</time>
      </trkpt>
      <trkpt lat="48.00628" lon="-0.8046">
        <ele>71.3</ele>
        <time>2018-02-04T10:51:45Z</time>
      </trkpt>
      <trkpt lat="48.00626" lon="-0.80444">
        <ele>72.1</ele>
        <time>2018-02-04T10:51:49Z</time>
      </trkpt>
      <trkpt lat="48.00623" lon="-0.80429">
        <ele>72.6</ele>
        <time>2018-02-04T10:51:53Z</time>
      </trkpt>
      <trkpt lat="48.0062" lon="-0.80415">
        <ele>73.1</ele>
        <time>2018-02-04T10:51:57Z</time>
      </trkpt>
      <trkpt lat="48.00619" lon="-0.80403">
        <ele>73.8</ele>
        <time>2018-02-04T10:52:01Z</time>
      </trkpt>
      <trkpt lat="48.00617" lon="-0.80391">
        <ele>74.5</ele>
        <time>2018-02-04T10:52:05Z</time>
      </trkpt>
      <trkpt lat="48.00615" lon="-0.80381">
        <ele>75</ele>
        <time>2018-02-04T10:52:09Z</time>
      </trkpt>
      <trkpt lat="48.00614" lon="-0.8037">
        <ele>75.6</ele>
        <time>2018-02-04T10:52:13Z</time>
      </trkpt>
      <trkpt lat="48.00612" lon="-0.80357">
        <ele>76.2</ele>
        <time>2018-02-04T10:52:17Z</time>
      </trkpt>
      <trkpt lat="48.00609" lon="-0.80345">
        <ele>76.4</ele>
        <time>2018-02-04T10:52:21Z</time>
      </trkpt>
      <trkpt lat="48.00608" lon="-0.80334">
        <ele>76.8</ele>
        <time>2018-02-04T10:52:25Z</time>
      </trkpt>
      <trkpt lat="48.00607" lon="-0.80322">
        <ele>77.8</ele>
        <time>2018-02-04T10:52:29Z</time>
      </trkpt>
      <trkpt lat="48.00604" lon="-0.80311">
        <ele>78.8</ele>
        <time>2018-02-04T10:52:33Z</time>
      </trkpt>
      <trkpt lat="48.00602" lon="-0.80299">
        <ele>79.7</ele>
        <time>2018-02-04T10:52:37Z</time>
      </trkpt>
      <trkpt lat="48.00599" lon="-0.80289">
        <ele>80.2</ele>
        <time>2018-02-04T10:52:41Z</time>
      </trkpt>
      <trkpt lat="48.00592" lon="-0.8028">
        <ele>80</ele>
        <time>2018-02-04T10:52:45Z</time>
      </trkpt>
      <trkpt lat="48.00582" lon="-0.8027">
        <ele>79.4</ele>
        <time>2018-02-04T10:52:49Z</time>
      </trkpt>
      <trkpt lat="48.00573" lon="-0.80255">
        <ele>79.2</ele>
        <time>2018-02-04T10:52:53Z</time>
      </trkpt>
      <trkpt lat="48.00564" lon="-0.80235">
        <ele>78.9</ele>
        <time>2018-02-04T10:52:57Z</time>
      </trkpt>
      <trkpt lat="48.00555" lon="-0.80212">
        <ele>77.8</ele>
        <time>2018-02-04T10:53:01Z</time>
      </trkpt>
      <trkpt lat="48.00546" lon="-0.80187">
        <ele>76.4</ele>
        <time>2018-02-04T10:53:05Z</time>
      </trkpt>
      <trkpt lat="48.00539" lon="-0.80173">
        <ele>75.5</ele>
        <time>2018-02-04T10:53:09Z</time>
      </trkpt>
      <trkpt lat="48.00527" lon="-0.80163">
        <ele>73.9</ele>
        <time>2018-02-04T10:53:13Z</time>
      </trkpt>
      <trkpt lat="48.00506" lon="-0.80157">
        <ele>71.7</ele>
        <time>2018-02-04T10:53:17Z</time>
      </trkpt>
      <trkpt lat="48.00484" lon="-0.80157">
        <ele>70.7</ele>
        <time>2018-02-04T10:53:21Z</time>
      </trkpt>
      <trkpt lat="48.00469" lon="-0.80162">
        <ele>69.5</ele>
        <time>2018-02-04T10:53:25Z</time>
      </trkpt>
      <trkpt lat="48.00447" lon="-0.80158">
        <ele>69</ele>
        <time>2018-02-04T10:53:29Z</time>
      </trkpt>
      <trkpt lat="48.00429" lon="-0.80152">
        <ele>68.8</ele>
        <time>2018-02-04T10:53:33Z</time>
      </trkpt>
      <trkpt lat="48.00413" lon="-0.80149">
        <ele>68</ele>
        <time>2018-02-04T10:53:37Z</time>
      </trkpt>
      <trkpt lat="48.00398" lon="-0.80146">
        <ele>67.2</ele>
        <time>2018-02-04T10:53:41Z</time>
      </trkpt>
      <trkpt lat="48.00382" lon="-0.80145">
        <ele>66.3</ele>
        <time>2018-02-04T10:53:45Z</time>
      </trkpt>
      <trkpt lat="48.00362" lon="-0.80144">
        <ele>65.7</ele>
        <time>2018-02-04T10:53:49Z</time>
      </trkpt>
      <trkpt lat="48.00339" lon="-0.80133">
        <ele>64</ele>
        <time>2018-02-04T10:53:53Z</time>
      </trkpt>
      <trkpt lat="48.00317" lon="-0.80115">
        <ele>62.9</ele>
        <time>2018-02-04T10:53:57Z</time>
      </trkpt>
      <trkpt lat="48.003" lon="-0.80103">
        <ele>62.1</ele>
        <time>2018-02-04T10:54:01Z</time>
      </trkpt>
      <trkpt lat="48.00283" lon="-0.80089">
        <ele>61.9</ele>
        <time>2018-02-04T10:54:05Z</time>
      </trkpt>
      <trkpt lat="48.00269" lon="-0.80076">
        <ele>61.6</ele>
        <time>2018-02-04T10:54:09Z</time>
      </trkpt>
      <trkpt lat="48.00254" lon="-0.80059">
        <ele>61.2</ele>
        <time>2018-02-04T10:54:13Z</time>
      </trkpt>
      <trkpt lat="48.00242" lon="-0.80045">
        <ele>61.5</ele>
        <time>2018-02-04T10:54:17Z</time>
      </trkpt>
      <trkpt lat="48.00233" lon="-0.80037">
        <ele>61.8</ele>
        <time>2018-02-04T10:54:21Z</time>
      </trkpt>
      <trkpt lat="48.00226" lon="-0.80028">
        <ele>62.2</ele>
        <time>2018-02-04T10:54:25Z</time>
      </trkpt>
      <trkpt lat="48.00222" lon="-0.80021">
        <ele>62.4</ele>
        <time>2018-02-04T10:54:29Z</time>
      </trkpt>
      <trkpt lat="48.0021" lon="-0.80007">
        <ele>62.1</ele>
        <time>2018-02-04T10:54:33Z</time>
      </trkpt>
      <trkpt lat="48.00199" lon="-0.79999">
        <ele>61.7</ele>
        <time>2018-02-04T10:54:37Z</time>
      </trkpt>
      <trkpt lat="48.00185" lon="-0.7999">
        <ele>62</ele>
        <time>2018-02-04T10:54:41Z</time>
      </trkpt>
      <trkpt lat="48.00169" lon="-0.79987">
        <ele>61</ele>
        <time>2018-02-04T10:54:45Z</time>
      </trkpt>
      <trkpt lat="48.00152" lon="-0.79983">
        <ele>59.7</ele>
        <time>2018-02-04T10:54:49Z</time>
      </trkpt>
      <trkpt lat="48.00133" lon="-0.79975">
        <ele>58.1</ele>
        <time>2018-02-04T10:54:53Z</time>
      </trkpt>
      <trkpt lat="48.00116" lon="-0.7997">
        <ele>56.8</ele>
        <time>2018-02-04T10:54:57Z</time>
      </trkpt>
      <trkpt lat="48.00101" lon="-0.79961">
        <ele>56.3</ele>
        <time>2018-02-04T10:55:01Z</time>
      </trkpt>
      <trkpt lat="48.00084" lon="-0.7995">
        <ele>55.7</ele>
        <time>2018-02-04T10:55:05Z</time>
      </trkpt>
      <trkpt lat="48.00066" lon="-0.79942">
        <ele>55.7</ele>
        <time>2018-02-04T10:55:09Z</time>
      </trkpt>
      <trkpt lat="48.00049" lon="-0.79934">
        <ele>55.8</ele>
        <time>2018-02-04T10:55:13Z</time>
      </trkpt>
      <trkpt lat="48.00034" lon="-0.79925">
        <ele>55.8</ele>
        <time>2018-02-04T10:55:17Z</time>
      </trkpt>
      <trkpt lat="48.00022" lon="-0.79918">
        <ele>55.5</ele>
        <time>2018-02-04T10:55:21Z</time>
      </trkpt>
      <trkpt lat="48.00012" lon="-0.79915">
        <ele>55.1</ele>
        <time>2018-02-04T10:55:25Z</time>
      </trkpt>
      <trkpt lat="47.99997" lon="-0.79907">
        <ele>54.8</ele>
        <time>2018-02-04T10:55:29Z</time>
      </trkpt>
      <trkpt lat="47.9998" lon="-0.79898">
        <ele>53.8</ele>
        <time>2018-02-04T10:55:33Z</time>
      </trkpt>
      <trkpt lat="47.99967" lon="-0.79886">
        <ele>53.1</ele>
        <time>2018-02-04T10:55:37Z</time>
      </trkpt>
      <trkpt lat="47.99961" lon="-0.79869">
        <ele>53.8</ele>
        <time>2018-02-04T10:55:41Z</time>
      </trkpt>
      <trkpt lat="47.99962" lon="-0.79856">
        <ele>54.9</ele>
        <time>2018-02-04T10:55:45Z</time>
      </trkpt>
      <trkpt lat="47.99957" lon="-0.79845">
        <ele>54.9</ele>
        <time>2018-02-04T10:55:49Z</time>
      </trkpt>
      <trkpt lat="47.99953" lon="-0.79836">
        <ele>54.7</ele>
        <time>2018-02-04T10:55:53Z</time>
      </trkpt>
      <trkpt lat="47.99944" lon="-0.79822">
        <ele>54.7</ele>
        <time>2018-02-04T10:55:57Z</time>
      </trkpt>
      <trkpt lat="47.99929" lon="-0.79807">
        <ele>54.7</ele>
        <time>2018-02-04T10:56:01Z</time>
      </trkpt>
      <trkpt lat="47.9992" lon="-0.79802">
        <ele>54.4</ele>
        <time>2018-02-04T10:56:05Z</time>
      </trkpt>
      <trkpt lat="47.99909" lon="-0.79795">
        <ele>55.2</ele>
        <time>2018-02-04T10:56:09Z</time>
      </trkpt>
      <trkpt lat="47.99897" lon="-0.79791">
        <ele>55.2</ele>
        <time>2018-02-04T10:56:13Z</time>
      </trkpt>
      <trkpt lat="47.99883" lon="-0.79785">
        <ele>55.3</ele>
        <time>2018-02-04T10:56:17Z</time>
      </trkpt>
      <trkpt lat="47.99869" lon="-0.79784">
        <ele>54.8</ele>
        <time>2018-02-04T10:56:21Z</time>
      </trkpt>
      <trkpt lat="47.99856" lon="-0.79778">
        <ele>54.7</ele>
        <time>2018-02-04T10:56:25Z</time>
      </trkpt>
      <trkpt lat="47.99841" lon="-0.79772">
        <ele>54.7</ele>
        <time>2018-02-04T10:56:29Z</time>
      </trkpt>
      <trkpt lat="47.99828" lon="-0.79763">
        <ele>55.1</ele>
        <time>2018-02-04T10:56:33Z</time>
      </trkpt>
      <trkpt lat="47.99814" lon="-0.79757">
        <ele>54.5</ele>
        <time>2018-02-04T10:56:37Z</time>
      </trkpt>
      <trkpt lat="47.99797" lon="-0.79746">
        <ele>54.3</ele>
        <time>2018-02-04T10:56:41Z</time>
      </trkpt>
      <trkpt lat="47.99778" lon="-0.79738">
        <ele>53.8</ele>
        <time>2018-02-04T10:56:45Z</time>
      </trkpt>
      <trkpt lat="47.99761" lon="-0.79725">
        <ele>53.9</ele>
        <time>2018-02-04T10:56:49Z</time>
      </trkpt>
      <trkpt lat="47.99748" lon="-0.79716">
        <ele>53.9</ele>
        <time>2018-02-04T10:56:53Z</time>
      </trkpt>
      <trkpt lat="47.99738" lon="-0.79707">
        <ele>54.3</ele>
        <time>2018-02-04T10:56:57Z</time>
      </trkpt>
      <trkpt lat="47.9973" lon="-0.79702">
        <ele>54.4</ele>
        <time>2018-02-04T10:57:01Z</time>
      </trkpt>
      <trkpt lat="47.99721" lon="-0.79695">
        <ele>54.8</ele>
        <time>2018-02-04T10:57:05Z</time>
      </trkpt>
      <trkpt lat="47.99709" lon="-0.79691">
        <ele>54.4</ele>
        <time>2018-02-04T10:57:09Z</time>
      </trkpt>
      <trkpt lat="47.99697" lon="-0.79683">
        <ele>54.7</ele>
        <time>2018-02-04T10:57:13Z</time>
      </trkpt>
      <trkpt lat="47.99686" lon="-0.79675">
        <ele>55.6</ele>
        <time>2018-02-04T10:57:17Z</time>
      </trkpt>
      <trkpt lat="47.99679" lon="-0.79669">
        <ele>56.4</ele>
        <time>2018-02-04T10:57:21Z</time>
      </trkpt>
      <trkpt lat="47.99672" lon="-0.79663">
        <ele>56.9</ele>
        <time>2018-02-04T10:57:25Z</time>
      </trkpt>
      <trkpt lat="47.99666" lon="-0.79657">
        <ele>57.3</ele>
        <time>2018-02-04T10:57:29Z</time>
      </trkpt>
      <trkpt lat="47.99659" lon="-0.79651">
        <ele>57.6</ele>
        <time>2018-02-04T10:57:33Z</time>
      </trkpt>
      <trkpt lat="47.99654" lon="-0.79646">
        <ele>57.7</ele>
        <time>2018-02-04T10:57:37Z</time>
      </trkpt>
      <trkpt lat="47.9965" lon="-0.79643">
        <ele>57.7</ele>
        <time>2018-02-04T10:57:41Z</time>
      </trkpt>
      <trkpt lat="47.99646" lon="-0.79639">
        <ele>57.8</ele>
        <time>2018-02-04T10:57:45Z</time>
      </trkpt>
      <trkpt lat="47.99643" lon="-0.79632">
        <ele>58.2</ele>
        <time>2018-02-04T10:57:49Z</time>
      </trkpt>
      <trkpt lat="47.99639" lon="-0.79627">
        <ele>58.3</ele>
        <time>2018-02-04T10:57:53Z</time>
      </trkpt>
      <trkpt lat="47.99634" lon="-0.79624">
        <ele>58.2</ele>
        <time>2018-02-04T10:57:57Z</time>
      </trkpt>
      <trkpt lat="47.99632" lon="-0.79626">
        <ele>57.8</ele>
        <time>2018-02-04T11:00:17Z</time>
      </trkpt>
      <trkpt lat="47.99628" lon="-0.79622">
        <ele>57.8</ele>
        <time>2018-02-04T11:00:21Z</time>
      </trkpt>
      <trkpt lat="47.99618" lon="-0.79616">
        <ele>57.3</ele>
        <time>2018-02-04T11:00:25Z</time>
      </trkpt>
      <trkpt lat="47.99597" lon="-0.7961">
        <ele>56</ele>
        <time>2018-02-04T11:00:29Z</time>
      </trkpt>
      <trkpt lat="47.99578" lon="-0.79605">
        <ele>55.2</ele>
        <time>2018-02-04T11:00:33Z</time>
      </trkpt>
      <trkpt lat="47.99564" lon="-0.79602">
        <ele>55.3</ele>
        <time>2018-02-04T11:00:37Z</time>
      </trkpt>
      <trkpt lat="47.99552" lon="-0.79598">
        <ele>55.6</ele>
        <time>2018-02-04T11:00:41Z</time>
      </trkpt>
      <trkpt lat="47.9954" lon="-0.79593">
        <ele>56.2</ele>
        <time>2018-02-04T11:00:45Z</time>
      </trkpt>
      <trkpt lat="47.99529" lon="-0.79586">
        <ele>56.8</ele>
        <time>2018-02-04T11:00:49Z</time>
      </trkpt>
      <trkpt lat="47.99518" lon="-0.79578">
        <ele>57</ele>
        <time>2018-02-04T11:00:53Z</time>
      </trkpt>
      <trkpt lat="47.99508" lon="-0.79571">
        <ele>57.2</ele>
        <time>2018-02-04T11:00:57Z</time>
      </trkpt>
      <trkpt lat="47.99499" lon="-0.79562">
        <ele>57.5</ele>
        <time>2018-02-04T11:01:01Z</time>
      </trkpt>
      <trkpt lat="47.99492" lon="-0.79555">
        <ele>57.8</ele>
        <time>2018-02-04T11:01:05Z</time>
      </trkpt>
      <trkpt lat="47.99485" lon="-0.79548">
        <ele>58.1</ele>
        <time>2018-02-04T11:01:09Z</time>
      </trkpt>
      <trkpt lat="47.99478" lon="-0.79542">
        <ele>58.3</ele>
        <time>2018-02-04T11:01:13Z</time>
      </trkpt>
      <trkpt lat="47.99472" lon="-0.79534">
        <ele>58.6</ele>
        <time>2018-02-04T11:01:17Z</time>
      </trkpt>
      <trkpt lat="47.99466" lon="-0.79526">
        <ele>58.7</ele>
        <time>2018-02-04T11:01:21Z</time>
      </trkpt>
      <trkpt lat="47.99459" lon="-0.79517">
        <ele>59</ele>
        <time>2018-02-04T11:01:25Z</time>
      </trkpt>
      <trkpt lat="47.99451" lon="-0.79507">
        <ele>59.2</ele>
        <time>2018-02-04T11:01:29Z</time>
      </trkpt>
      <trkpt lat="47.99445" lon="-0.79498">
        <ele>59.3</ele>
        <time>2018-02-04T11:01:33Z</time>
      </trkpt>
      <trkpt lat="47.99438" lon="-0.79488">
        <ele>59.8</ele>
        <time>2018-02-04T11:01:37Z</time>
      </trkpt>
      <trkpt lat="47.99431" lon="-0.79477">
        <ele>60.1</ele>
        <time>2018-02-04T11:01:41Z</time>
      </trkpt>
      <trkpt lat="47.99426" lon="-0.7947">
        <ele>60.1</ele>
        <time>2018-02-04T11:01:45Z</time>
      </trkpt>
      <trkpt lat="47.9942" lon="-0.79461">
        <ele>60.2</ele>
        <time>2018-02-04T11:01:49Z</time>
      </trkpt>
      <trkpt lat="47.99414" lon="-0.79452">
        <ele>60.2</ele>
        <time>2018-02-04T11:01:53Z</time>
      </trkpt>
      <trkpt lat="47.99407" lon="-0.7944">
        <ele>60.2</ele>
        <time>2018-02-04T11:01:57Z</time>
      </trkpt>
      <trkpt lat="47.99399" lon="-0.79428">
        <ele>59.9</ele>
        <time>2018-02-04T11:02:01Z</time>
      </trkpt>
      <trkpt lat="47.99393" lon="-0.79418">
        <ele>59.6</ele>
        <time>2018-02-04T11:02:05Z</time>
      </trkpt>
      <trkpt lat="47.99391" lon="-0.79406">
        <ele>60.1</ele>
        <time>2018-02-04T11:02:09Z</time>
      </trkpt>
      <trkpt lat="47.99384" lon="-0.79395">
        <ele>59.9</ele>
        <time>2018-02-04T11:02:13Z</time>
      </trkpt>
      <trkpt lat="47.99374" lon="-0.79379">
        <ele>59.4</ele>
        <time>2018-02-04T11:02:17Z</time>
      </trkpt>
      <trkpt lat="47.99364" lon="-0.79359">
        <ele>58.8</ele>
        <time>2018-02-04T11:02:21Z</time>
      </trkpt>
      <trkpt lat="47.99356" lon="-0.79338">
        <ele>59.7</ele>
        <time>2018-02-04T11:02:25Z</time>
      </trkpt>
      <trkpt lat="47.99347" lon="-0.79312">
        <ele>59.6</ele>
        <time>2018-02-04T11:02:29Z</time>
      </trkpt>
      <trkpt lat="47.99338" lon="-0.79285">
        <ele>59.6</ele>
        <time>2018-02-04T11:02:33Z</time>
      </trkpt>
      <trkpt lat="47.99328" lon="-0.79257">
        <ele>59.6</ele>
        <time>2018-02-04T11:02:37Z</time>
      </trkpt>
      <trkpt lat="47.99318" lon="-0.79226">
        <ele>58.6</ele>
        <time>2018-02-04T11:02:41Z</time>
      </trkpt>
      <trkpt lat="47.99301" lon="-0.79192">
        <ele>56.5</ele>
        <time>2018-02-04T11:02:45Z</time>
      </trkpt>
      <trkpt lat="47.99281" lon="-0.79159">
        <ele>56.2</ele>
        <time>2018-02-04T11:02:49Z</time>
      </trkpt>
      <trkpt lat="47.99261" lon="-0.79119">
        <ele>54.5</ele>
        <time>2018-02-04T11:02:53Z</time>
      </trkpt>
      <trkpt lat="47.99241" lon="-0.79077">
        <ele>53.5</ele>
        <time>2018-02-04T11:02:57Z</time>
      </trkpt>
      <trkpt lat="47.99219" lon="-0.79036">
        <ele>52.8</ele>
        <time>2018-02-04T11:03:01Z</time>
      </trkpt>
      <trkpt lat="47.99201" lon="-0.78996">
        <ele>53.2</ele>
        <time>2018-02-04T11:03:05Z</time>
      </trkpt>
      <trkpt lat="47.99187" lon="-0.78959">
        <ele>53.8</ele>
        <time>2018-02-04T11:03:09Z</time>
      </trkpt>
      <trkpt lat="47.99174" lon="-0.78926">
        <ele>54</ele>
        <time>2018-02-04T11:03:13Z</time>
      </trkpt>
      <trkpt lat="47.99164" lon="-0.78896">
        <ele>54.6</ele>
        <time>2018-02-04T11:03:17Z</time>
      </trkpt>
      <trkpt lat="47.99152" lon="-0.78866">
        <ele>55.2</ele>
        <time>2018-02-04T11:03:21Z</time>
      </trkpt>
      <trkpt lat="47.99139" lon="-0.78843">
        <ele>55.3</ele>
        <time>2018-02-04T11:03:25Z</time>
      </trkpt>
      <trkpt lat="47.99123" lon="-0.78817">
        <ele>54.6</ele>
        <time>2018-02-04T11:03:29Z</time>
      </trkpt>
      <trkpt lat="47.99109" lon="-0.78791">
        <ele>54.6</ele>
        <time>2018-02-04T11:03:33Z</time>
      </trkpt>
      <trkpt lat="47.99097" lon="-0.78765">
        <ele>54.9</ele>
        <time>2018-02-04T11:03:37Z</time>
      </trkpt>
      <trkpt lat="47.99088" lon="-0.78741">
        <ele>55.3</ele>
        <time>2018-02-04T11:03:41Z</time>
      </trkpt>
      <trkpt lat="47.99081" lon="-0.7872">
        <ele>55.7</ele>
        <time>2018-02-04T11:03:45Z</time>
      </trkpt>
      <trkpt lat="47.99075" lon="-0.78703">
        <ele>56.4</ele>
        <time>2018-02-04T11:03:49Z</time>
      </trkpt>
      <trkpt lat="47.99068" lon="-0.78684">
        <ele>56.8</ele>
        <time>2018-02-04T11:03:53Z</time>
      </trkpt>
      <trkpt lat="47.9906" lon="-0.78661">
        <ele>57.5</ele>
        <time>2018-02-04T11:03:57Z</time>
      </trkpt>
      <trkpt lat="47.99052" lon="-0.78647">
        <ele>57.6</ele>
        <time>2018-02-04T11:04:01Z</time>
      </trkpt>
      <trkpt lat="47.99046" lon="-0.78632">
        <ele>57.8</ele>
        <time>2018-02-04T11:04:05Z</time>
      </trkpt>
      <trkpt lat="47.99038" lon="-0.78609">
        <ele>57.6</ele>
        <time>2018-02-04T11:04:09Z</time>
      </trkpt>
      <trkpt lat="47.99028" lon="-0.78583">
        <ele>57</ele>
        <time>2018-02-04T11:04:13Z</time>
      </trkpt>
      <trkpt lat="47.99017" lon="-0.78558">
        <ele>56.4</ele>
        <time>2018-02-04T11:04:17Z</time>
      </trkpt>
      <trkpt lat="47.99005" lon="-0.78534">
        <ele>56.3</ele>
        <time>2018-02-04T11:04:21Z</time>
      </trkpt>
      <trkpt lat="47.98991" lon="-0.78509">
        <ele>56.2</ele>
        <time>2018-02-04T11:04:25Z</time>
      </trkpt>
      <trkpt lat="47.98977" lon="-0.78486">
        <ele>55.6</ele>
        <time>2018-02-04T11:04:29Z</time>
      </trkpt>
      <trkpt lat="47.98963" lon="-0.78462">
        <ele>55.6</ele>
        <time>2018-02-04T11:04:33Z</time>
      </trkpt>
      <trkpt lat="47.98951" lon="-0.78438">
        <ele>55.7</ele>
        <time>2018-02-04T11:04:37Z</time>
      </trkpt>
      <trkpt lat="47.98939" lon="-0.78415">
        <ele>56.3</ele>
        <time>2018-02-04T11:04:41Z</time>
      </trkpt>
      <trkpt lat="47.98931" lon="-0.78392">
        <ele>58.1</ele>
        <time>2018-02-04T11:04:45Z</time>
      </trkpt>
      <trkpt lat="47.98926" lon="-0.78369">
        <ele>60.1</ele>
        <time>2018-02-04T11:04:49Z</time>
      </trkpt>
      <trkpt lat="47.98925" lon="-0.78347">
        <ele>61.2</ele>
        <time>2018-02-04T11:04:53Z</time>
      </trkpt>
      <trkpt lat="47.98923" lon="-0.78326">
        <ele>61.6</ele>
        <time>2018-02-04T11:04:57Z</time>
      </trkpt>
      <trkpt lat="47.9892" lon="-0.78312">
        <ele>61.5</ele>
        <time>2018-02-04T11:05:01Z</time>
      </trkpt>
      <trkpt lat="47.98919" lon="-0.78299">
        <ele>61.4</ele>
        <time>2018-02-04T11:05:05Z</time>
      </trkpt>
      <trkpt lat="47.98917" lon="-0.78287">
        <ele>61</ele>
        <time>2018-02-04T11:05:09Z</time>
      </trkpt>
      <trkpt lat="47.98911" lon="-0.7827">
        <ele>59.4</ele>
        <time>2018-02-04T11:05:13Z</time>
      </trkpt>
      <trkpt lat="47.98907" lon="-0.7825">
        <ele>58.5</ele>
        <time>2018-02-04T11:05:17Z</time>
      </trkpt>
      <trkpt lat="47.98903" lon="-0.78232">
        <ele>57.8</ele>
        <time>2018-02-04T11:05:21Z</time>
      </trkpt>
      <trkpt lat="47.98901" lon="-0.78208">
        <ele>57.2</ele>
        <time>2018-02-04T11:05:25Z</time>
      </trkpt>
      <trkpt lat="47.98901" lon="-0.78171">
        <ele>53.6</ele>
        <time>2018-02-04T11:05:29Z</time>
      </trkpt>
      <trkpt lat="47.98901" lon="-0.78132">
        <ele>51.4</ele>
        <time>2018-02-04T11:05:33Z</time>
      </trkpt>
      <trkpt lat="47.98896" lon="-0.78101">
        <ele>49.3</ele>
        <time>2018-02-04T11:05:37Z</time>
      </trkpt>
      <trkpt lat="47.98887" lon="-0.78075">
        <ele>47.6</ele>
        <time>2018-02-04T11:05:41Z</time>
      </trkpt>
      <trkpt lat="47.9888" lon="-0.78064">
        <ele>46.9</ele>
        <time>2018-02-04T11:05:45Z</time>
      </trkpt>
      <trkpt lat="47.98877" lon="-0.78058">
        <ele>46.6</ele>
        <time>2018-02-04T11:05:49Z</time>
      </trkpt>
      <trkpt lat="47.98869" lon="-0.78041">
        <ele>46.7</ele>
        <time>2018-02-04T11:05:53Z</time>
      </trkpt>
      <trkpt lat="47.98865" lon="-0.78015">
        <ele>47.8</ele>
        <time>2018-02-04T11:05:57Z</time>
      </trkpt>
      <trkpt lat="47.98868" lon="-0.77995">
        <ele>49.4</ele>
        <time>2018-02-04T11:06:01Z</time>
      </trkpt>
      <trkpt lat="47.98881" lon="-0.77982">
        <ele>50.1</ele>
        <time>2018-02-04T11:06:05Z</time>
      </trkpt>
      <trkpt lat="47.98894" lon="-0.77971">
        <ele>49.9</ele>
        <time>2018-02-04T11:06:09Z</time>
      </trkpt>
      <trkpt lat="47.98908" lon="-0.77959">
        <ele>50.3</ele>
        <time>2018-02-04T11:06:13Z</time>
      </trkpt>
      <trkpt lat="47.98921" lon="-0.77948">
        <ele>49.5</ele>
        <time>2018-02-04T11:06:17Z</time>
      </trkpt>
      <trkpt lat="47.98935" lon="-0.77936">
        <ele>49.8</ele>
        <time>2018-02-04T11:06:21Z</time>
      </trkpt>
      <trkpt lat="47.98949" lon="-0.77924">
        <ele>49.9</ele>
        <time>2018-02-04T11:06:25Z</time>
      </trkpt>
      <trkpt lat="47.98963" lon="-0.77911">
        <ele>50.5</ele>
        <time>2018-02-04T11:06:29Z</time>
      </trkpt>
      <trkpt lat="47.98976" lon="-0.77899">
        <ele>51.1</ele>
        <time>2018-02-04T11:06:33Z</time>
      </trkpt>
      <trkpt lat="47.98989" lon="-0.77885">
        <ele>51.3</ele>
        <time>2018-02-04T11:06:37Z</time>
      </trkpt>
      <trkpt lat="47.99003" lon="-0.7787">
        <ele>51.4</ele>
        <time>2018-02-04T11:06:41Z</time>
      </trkpt>
      <trkpt lat="47.99014" lon="-0.77856">
        <ele>51.7</ele>
        <time>2018-02-04T11:06:45Z</time>
      </trkpt>
      <trkpt lat="47.99025" lon="-0.77845">
        <ele>51.8</ele>
        <time>2018-02-04T11:06:49Z</time>
      </trkpt>
      <trkpt lat="47.99036" lon="-0.77831">
        <ele>51.9</ele>
        <time>2018-02-04T11:06:53Z</time>
      </trkpt>
      <trkpt lat="47.99047" lon="-0.77815">
        <ele>52.6</ele>
        <time>2018-02-04T11:06:57Z</time>
      </trkpt>
      <trkpt lat="47.99061" lon="-0.77798">
        <ele>53.2</ele>
        <time>2018-02-04T11:07:01Z</time>
      </trkpt>
      <trkpt lat="47.99071" lon="-0.77781">
        <ele>53.8</ele>
        <time>2018-02-04T11:07:05Z</time>
      </trkpt>
      <trkpt lat="47.99082" lon="-0.77764">
        <ele>54.2</ele>
        <time>2018-02-04T11:07:09Z</time>
      </trkpt>
      <trkpt lat="47.99091" lon="-0.77748">
        <ele>54</ele>
        <time>2018-02-04T11:07:13Z</time>
      </trkpt>
      <trkpt lat="47.99102" lon="-0.77732">
        <ele>54.8</ele>
        <time>2018-02-04T11:07:17Z</time>
      </trkpt>
      <trkpt lat="47.99112" lon="-0.77714">
        <ele>55.6</ele>
        <time>2018-02-04T11:07:21Z</time>
      </trkpt>
      <trkpt lat="47.99123" lon="-0.77696">
        <ele>55.7</ele>
        <time>2018-02-04T11:07:25Z</time>
      </trkpt>
      <trkpt lat="47.99131" lon="-0.77678">
        <ele>56</ele>
        <time>2018-02-04T11:07:29Z</time>
      </trkpt>
      <trkpt lat="47.99142" lon="-0.77659">
        <ele>56.4</ele>
        <time>2018-02-04T11:07:33Z</time>
      </trkpt>
      <trkpt lat="47.99153" lon="-0.77641">
        <ele>56.8</ele>
        <time>2018-02-04T11:07:37Z</time>
      </trkpt>
      <trkpt lat="47.99163" lon="-0.77623">
        <ele>57.2</ele>
        <time>2018-02-04T11:07:41Z</time>
      </trkpt>
      <trkpt lat="47.99172" lon="-0.77605">
        <ele>58.1</ele>
        <time>2018-02-04T11:07:45Z</time>
      </trkpt>
      <trkpt lat="47.99182" lon="-0.77587">
        <ele>59</ele>
        <time>2018-02-04T11:07:49Z</time>
      </trkpt>
      <trkpt lat="47.99191" lon="-0.77568">
        <ele>59.4</ele>
        <time>2018-02-04T11:07:53Z</time>
      </trkpt>
      <trkpt lat="47.99201" lon="-0.7755">
        <ele>60</ele>
        <time>2018-02-04T11:07:57Z</time>
      </trkpt>
      <trkpt lat="47.99211" lon="-0.77532">
        <ele>60.3</ele>
        <time>2018-02-04T11:08:01Z</time>
      </trkpt>
      <trkpt lat="47.99221" lon="-0.77514">
        <ele>60.7</ele>
        <time>2018-02-04T11:08:05Z</time>
      </trkpt>
      <trkpt lat="47.99231" lon="-0.77495">
        <ele>61</ele>
        <time>2018-02-04T11:08:09Z</time>
      </trkpt>
      <trkpt lat="47.99242" lon="-0.77477">
        <ele>60.6</ele>
        <time>2018-02-04T11:08:13Z</time>
      </trkpt>
      <trkpt lat="47.99252" lon="-0.77458">
        <ele>59.2</ele>
        <time>2018-02-04T11:08:17Z</time>
      </trkpt>
      <trkpt lat="47.99262" lon="-0.77438">
        <ele>58.5</ele>
        <time>2018-02-04T11:08:21Z</time>
      </trkpt>
      <trkpt lat="47.99268" lon="-0.77419">
        <ele>60</ele>
        <time>2018-02-04T11:08:25Z</time>
      </trkpt>
      <trkpt lat="47.99266" lon="-0.77406">
        <ele>61.2</ele>
        <time>2018-02-04T11:08:29Z</time>
      </trkpt>
      <trkpt lat="47.99264" lon="-0.77398">
        <ele>62</ele>
        <time>2018-02-04T11:08:33Z</time>
      </trkpt>
      <trkpt lat="47.9926" lon="-0.7739">
        <ele>62.8</ele>
        <time>2018-02-04T11:08:37Z</time>
      </trkpt>
      <trkpt lat="47.99256" lon="-0.77383">
        <ele>63.5</ele>
        <time>2018-02-04T11:08:41Z</time>
      </trkpt>
      <trkpt lat="47.99253" lon="-0.77377">
        <ele>64.2</ele>
        <time>2018-02-04T11:08:45Z</time>
      </trkpt>
      <trkpt lat="47.99249" lon="-0.7737">
        <ele>65</ele>
        <time>2018-02-04T11:08:49Z</time>
      </trkpt>
      <trkpt lat="47.99246" lon="-0.77363">
        <ele>65.7</ele>
        <time>2018-02-04T11:08:53Z</time>
      </trkpt>
      <trkpt lat="47.99243" lon="-0.77357">
        <ele>66.2</ele>
        <time>2018-02-04T11:08:57Z</time>
      </trkpt>
      <trkpt lat="47.99239" lon="-0.77351">
        <ele>66.6</ele>
        <time>2018-02-04T11:09:01Z</time>
      </trkpt>
      <trkpt lat="47.99236" lon="-0.77344">
        <ele>67.2</ele>
        <time>2018-02-04T11:09:05Z</time>
      </trkpt>
      <trkpt lat="47.99233" lon="-0.77338">
        <ele>67.9</ele>
        <time>2018-02-04T11:09:09Z</time>
      </trkpt>
      <trkpt lat="47.9923" lon="-0.77332">
        <ele>68.6</ele>
        <time>2018-02-04T11:09:13Z</time>
      </trkpt>
      <trkpt lat="47.99227" lon="-0.77326">
        <ele>69.2</ele>
        <time>2018-02-04T11:09:17Z</time>
      </trkpt>
      <trkpt lat="47.99223" lon="-0.7732">
        <ele>69.9</ele>
        <time>2018-02-04T11:09:21Z</time>
      </trkpt>
      <trkpt lat="47.9922" lon="-0.77314">
        <ele>70.6</ele>
        <time>2018-02-04T11:09:25Z</time>
      </trkpt>
      <trkpt lat="47.99217" lon="-0.77308">
        <ele>71.3</ele>
        <time>2018-02-04T11:09:29Z</time>
      </trkpt>
      <trkpt lat="47.99214" lon="-0.77301">
        <ele>72.3</ele>
        <time>2018-02-04T11:09:33Z</time>
      </trkpt>
      <trkpt lat="47.99213" lon="-0.77294">
        <ele>73.3</ele>
        <time>2018-02-04T11:09:37Z</time>
      </trkpt>
      <trkpt lat="47.99208" lon="-0.77287">
        <ele>74.5</ele>
        <time>2018-02-04T11:09:41Z</time>
      </trkpt>
      <trkpt lat="47.99206" lon="-0.77279">
        <ele>75.6</ele>
        <time>2018-02-04T11:09:45Z</time>
      </trkpt>
      <trkpt lat="47.99204" lon="-0.77271">
        <ele>76</ele>
        <time>2018-02-04T11:09:49Z</time>
      </trkpt>
      <trkpt lat="47.99201" lon="-0.77263">
        <ele>76.1</ele>
        <time>2018-02-04T11:09:53Z</time>
      </trkpt>
      <trkpt lat="47.99201" lon="-0.77255">
        <ele>76.1</ele>
        <time>2018-02-04T11:09:57Z</time>
      </trkpt>
      <trkpt lat="47.992" lon="-0.77247">
        <ele>76.2</ele>
        <time>2018-02-04T11:10:01Z</time>
      </trkpt>
      <trkpt lat="47.99198" lon="-0.77239">
        <ele>76.8</ele>
        <time>2018-02-04T11:10:05Z</time>
      </trkpt>
      <trkpt lat="47.99196" lon="-0.77228">
        <ele>77.6</ele>
        <time>2018-02-04T11:10:09Z</time>
      </trkpt>
      <trkpt lat="47.99195" lon="-0.77218">
        <ele>78.5</ele>
        <time>2018-02-04T11:10:13Z</time>
      </trkpt>
      <trkpt lat="47.99193" lon="-0.77208">
        <ele>79.7</ele>
        <time>2018-02-04T11:10:17Z</time>
      </trkpt>
      <trkpt lat="47.99193" lon="-0.77198">
        <ele>80.7</ele>
        <time>2018-02-04T11:10:21Z</time>
      </trkpt>
      <trkpt lat="47.99191" lon="-0.77187">
        <ele>81.5</ele>
        <time>2018-02-04T11:10:25Z</time>
      </trkpt>
      <trkpt lat="47.99191" lon="-0.77177">
        <ele>81.9</ele>
        <time>2018-02-04T11:10:29Z</time>
      </trkpt>
      <trkpt lat="47.99189" lon="-0.77167">
        <ele>82.4</ele>
        <time>2018-02-04T11:10:33Z</time>
      </trkpt>
      <trkpt lat="47.99188" lon="-0.77157">
        <ele>83</ele>
        <time>2018-02-04T11:10:37Z</time>
      </trkpt>
      <trkpt lat="47.99186" lon="-0.77147">
        <ele>83.8</ele>
        <time>2018-02-04T11:10:41Z</time>
      </trkpt>
      <trkpt lat="47.99185" lon="-0.77138">
        <ele>84.4</ele>
        <time>2018-02-04T11:10:45Z</time>
      </trkpt>
      <trkpt lat="47.99184" lon="-0.77129">
        <ele>84.7</ele>
        <time>2018-02-04T11:10:49Z</time>
      </trkpt>
      <trkpt lat="47.99183" lon="-0.7712">
        <ele>85.1</ele>
        <time>2018-02-04T11:10:53Z</time>
      </trkpt>
      <trkpt lat="47.99182" lon="-0.7711">
        <ele>85.4</ele>
        <time>2018-02-04T11:10:57Z</time>
      </trkpt>
      <trkpt lat="47.99181" lon="-0.771">
        <ele>85.5</ele>
        <time>2018-02-04T11:11:01Z</time>
      </trkpt>
      <trkpt lat="47.9918" lon="-0.7709">
        <ele>85.5</ele>
        <time>2018-02-04T11:11:05Z</time>
      </trkpt>
      <trkpt lat="47.99178" lon="-0.77077">
        <ele>85.7</ele>
        <time>2018-02-04T11:11:09Z</time>
      </trkpt>
      <trkpt lat="47.99175" lon="-0.77061">
        <ele>86.2</ele>
        <time>2018-02-04T11:11:13Z</time>
      </trkpt>
      <trkpt lat="47.99172" lon="-0.77044">
        <ele>86.2</ele>
        <time>2018-02-04T11:11:17Z</time>
      </trkpt>
      <trkpt lat="47.9917" lon="-0.77026">
        <ele>85.8</ele>
        <time>2018-02-04T11:11:21Z</time>
      </trkpt>
      <trkpt lat="47.99167" lon="-0.77008">
        <ele>86</ele>
        <time>2018-02-04T11:11:25Z</time>
      </trkpt>
      <trkpt lat="47.99163" lon="-0.76989">
        <ele>85.8</ele>
        <time>2018-02-04T11:11:29Z</time>
      </trkpt>
      <trkpt lat="47.9916" lon="-0.7697">
        <ele>85.5</ele>
        <time>2018-02-04T11:11:33Z</time>
      </trkpt>
      <trkpt lat="47.99156" lon="-0.76952">
        <ele>85.7</ele>
        <time>2018-02-04T11:11:37Z</time>
      </trkpt>
      <trkpt lat="47.99153" lon="-0.76935">
        <ele>86.1</ele>
        <time>2018-02-04T11:11:41Z</time>
      </trkpt>
      <trkpt lat="47.99151" lon="-0.76918">
        <ele>86.7</ele>
        <time>2018-02-04T11:11:45Z</time>
      </trkpt>
      <trkpt lat="47.99148" lon="-0.76903">
        <ele>87.5</ele>
        <time>2018-02-04T11:11:49Z</time>
      </trkpt>
      <trkpt lat="47.99145" lon="-0.76888">
        <ele>88.3</ele>
        <time>2018-02-04T11:11:53Z</time>
      </trkpt>
      <trkpt lat="47.99143" lon="-0.76873">
        <ele>88.6</ele>
        <time>2018-02-04T11:11:57Z</time>
      </trkpt>
      <trkpt lat="47.9914" lon="-0.76855">
        <ele>88.9</ele>
        <time>2018-02-04T11:12:01Z</time>
      </trkpt>
      <trkpt lat="47.99137" lon="-0.76839">
        <ele>89.1</ele>
        <time>2018-02-04T11:12:05Z</time>
      </trkpt>
      <trkpt lat="47.99135" lon="-0.76822">
        <ele>89.3</ele>
        <time>2018-02-04T11:12:09Z</time>
      </trkpt>
      <trkpt lat="47.99132" lon="-0.76806">
        <ele>89.5</ele>
        <time>2018-02-04T11:12:13Z</time>
      </trkpt>
      <trkpt lat="47.99129" lon="-0.76789">
        <ele>89.7</ele>
        <time>2018-02-04T11:12:17Z</time>
      </trkpt>
      <trkpt lat="47.99126" lon="-0.76768">
        <ele>89.7</ele>
        <time>2018-02-04T11:12:21Z</time>
      </trkpt>
      <trkpt lat="47.99122" lon="-0.76744">
        <ele>89.7</ele>
        <time>2018-02-04T11:12:25Z</time>
      </trkpt>
      <trkpt lat="47.99118" lon="-0.76719">
        <ele>89.4</ele>
        <time>2018-02-04T11:12:29Z</time>
      </trkpt>
      <trkpt lat="47.99114" lon="-0.76692">
        <ele>88.8</ele>
        <time>2018-02-04T11:12:33Z</time>
      </trkpt>
      <trkpt lat="47.99109" lon="-0.76662">
        <ele>87.8</ele>
        <time>2018-02-04T11:12:37Z</time>
      </trkpt>
      <trkpt lat="47.99103" lon="-0.76629">
        <ele>86.4</ele>
        <time>2018-02-04T11:12:41Z</time>
      </trkpt>
      <trkpt lat="47.99097" lon="-0.76592">
        <ele>84.5</ele>
        <time>2018-02-04T11:12:45Z</time>
      </trkpt>
      <trkpt lat="47.99091" lon="-0.76551">
        <ele>83.1</ele>
        <time>2018-02-04T11:12:49Z</time>
      </trkpt>
      <trkpt lat="47.99086" lon="-0.76514">
        <ele>81.6</ele>
        <time>2018-02-04T11:12:53Z</time>
      </trkpt>
      <trkpt lat="47.99081" lon="-0.76483">
        <ele>81</ele>
        <time>2018-02-04T11:12:57Z</time>
      </trkpt>
      <trkpt lat="47.99076" lon="-0.76453">
        <ele>79.6</ele>
        <time>2018-02-04T11:13:01Z</time>
      </trkpt>
      <trkpt lat="47.99074" lon="-0.76425">
        <ele>78.5</ele>
        <time>2018-02-04T11:13:05Z</time>
      </trkpt>
      <trkpt lat="47.99069" lon="-0.76395">
        <ele>77.2</ele>
        <time>2018-02-04T11:13:09Z</time>
      </trkpt>
      <trkpt lat="47.99061" lon="-0.76362">
        <ele>74.9</ele>
        <time>2018-02-04T11:13:13Z</time>
      </trkpt>
      <trkpt lat="47.99056" lon="-0.7633">
        <ele>73.8</ele>
        <time>2018-02-04T11:13:17Z</time>
      </trkpt>
      <trkpt lat="47.99054" lon="-0.76295">
        <ele>71.3</ele>
        <time>2018-02-04T11:13:21Z</time>
      </trkpt>
      <trkpt lat="47.99056" lon="-0.76258">
        <ele>69.3</ele>
        <time>2018-02-04T11:13:25Z</time>
      </trkpt>
      <trkpt lat="47.99062" lon="-0.76219">
        <ele>67.2</ele>
        <time>2018-02-04T11:13:29Z</time>
      </trkpt>
      <trkpt lat="47.99074" lon="-0.76175">
        <ele>64.2</ele>
        <time>2018-02-04T11:13:33Z</time>
      </trkpt>
      <trkpt lat="47.99076" lon="-0.76119">
        <ele>61.7</ele>
        <time>2018-02-04T11:13:37Z</time>
      </trkpt>
      <trkpt lat="47.99058" lon="-0.76076">
        <ele>59.8</ele>
        <time>2018-02-04T11:13:41Z</time>
      </trkpt>
      <trkpt lat="47.99037" lon="-0.76046">
        <ele>58.5</ele>
        <time>2018-02-04T11:13:45Z</time>
      </trkpt>
      <trkpt lat="47.9901" lon="-0.76013">
        <ele>57.2</ele>
        <time>2018-02-04T11:13:49Z</time>
      </trkpt>
      <trkpt lat="47.98968" lon="-0.75985">
        <ele>54.4</ele>
        <time>2018-02-04T11:13:53Z</time>
      </trkpt>
      <trkpt lat="47.98928" lon="-0.75969">
        <ele>48.5</ele>
        <time>2018-02-04T11:13:57Z</time>
      </trkpt>
      <trkpt lat="47.98895" lon="-0.75938">
        <ele>45</ele>
        <time>2018-02-04T11:14:01Z</time>
      </trkpt>
      <trkpt lat="47.98877" lon="-0.75898">
        <ele>43.3</ele>
        <time>2018-02-04T11:14:05Z</time>
      </trkpt>
      <trkpt lat="47.9887" lon="-0.75856">
        <ele>44.9</ele>
        <time>2018-02-04T11:14:09Z</time>
      </trkpt>
      <trkpt lat="47.98865" lon="-0.75817">
        <ele>47.3</ele>
        <time>2018-02-04T11:14:13Z</time>
      </trkpt>
      <trkpt lat="47.98861" lon="-0.75794">
        <ele>48.8</ele>
        <time>2018-02-04T11:14:17Z</time>
      </trkpt>
      <trkpt lat="47.98858" lon="-0.75776">
        <ele>50.1</ele>
        <time>2018-02-04T11:14:21Z</time>
      </trkpt>
      <trkpt lat="47.98855" lon="-0.75762">
        <ele>51</ele>
        <time>2018-02-04T11:14:25Z</time>
      </trkpt>
      <trkpt lat="47.98852" lon="-0.75751">
        <ele>51.9</ele>
        <time>2018-02-04T11:14:29Z</time>
      </trkpt>
      <trkpt lat="47.9885" lon="-0.75742">
        <ele>52.6</ele>
        <time>2018-02-04T11:14:33Z</time>
      </trkpt>
      <trkpt lat="47.98847" lon="-0.75731">
        <ele>53.3</ele>
        <time>2018-02-04T11:14:37Z</time>
      </trkpt>
      <trkpt lat="47.98844" lon="-0.75722">
        <ele>54</ele>
        <time>2018-02-04T11:14:41Z</time>
      </trkpt>
      <trkpt lat="47.9884" lon="-0.75713">
        <ele>54.7</ele>
        <time>2018-02-04T11:14:45Z</time>
      </trkpt>
      <trkpt lat="47.98835" lon="-0.75705">
        <ele>55.3</ele>
        <time>2018-02-04T11:14:49Z</time>
      </trkpt>
      <trkpt lat="47.9883" lon="-0.75696">
        <ele>55.9</ele>
        <time>2018-02-04T11:14:53Z</time>
      </trkpt>
      <trkpt lat="47.98826" lon="-0.75688">
        <ele>56.5</ele>
        <time>2018-02-04T11:14:57Z</time>
      </trkpt>
      <trkpt lat="47.98821" lon="-0.7568">
        <ele>57.1</ele>
        <time>2018-02-04T11:15:01Z</time>
      </trkpt>
      <trkpt lat="47.98816" lon="-0.75672">
        <ele>57.5</ele>
        <time>2018-02-04T11:15:05Z</time>
      </trkpt>
      <trkpt lat="47.98812" lon="-0.75665">
        <ele>57.7</ele>
        <time>2018-02-04T11:15:09Z</time>
      </trkpt>
      <trkpt lat="47.98808" lon="-0.75658">
        <ele>58.3</ele>
        <time>2018-02-04T11:15:13Z</time>
      </trkpt>
      <trkpt lat="47.98806" lon="-0.75654">
        <ele>58.9</ele>
        <time>2018-02-04T11:15:17Z</time>
      </trkpt>
      <trkpt lat="47.98801" lon="-0.75646">
        <ele>59.8</ele>
        <time>2018-02-04T11:15:21Z</time>
      </trkpt>
      <trkpt lat="47.98798" lon="-0.7564">
        <ele>60.6</ele>
        <time>2018-02-04T11:15:25Z</time>
      </trkpt>
      <trkpt lat="47.98794" lon="-0.75631">
        <ele>61</ele>
        <time>2018-02-04T11:15:29Z</time>
      </trkpt>
      <trkpt lat="47.9879" lon="-0.75624">
        <ele>61.2</ele>
        <time>2018-02-04T11:15:33Z</time>
      </trkpt>
      <trkpt lat="47.98786" lon="-0.75617">
        <ele>61.3</ele>
        <time>2018-02-04T11:15:37Z</time>
      </trkpt>
      <trkpt lat="47.98782" lon="-0.75609">
        <ele>61.5</ele>
        <time>2018-02-04T11:15:41Z</time>
      </trkpt>
      <trkpt lat="47.98776" lon="-0.75603">
        <ele>61.8</ele>
        <time>2018-02-04T11:15:45Z</time>
      </trkpt>
      <trkpt lat="47.9877" lon="-0.75596">
        <ele>62.4</ele>
        <time>2018-02-04T11:15:49Z</time>
      </trkpt>
      <trkpt lat="47.98765" lon="-0.75591">
        <ele>62.8</ele>
        <time>2018-02-04T11:15:53Z</time>
      </trkpt>
      <trkpt lat="47.98762" lon="-0.75586">
        <ele>63.2</ele>
        <time>2018-02-04T11:15:57Z</time>
      </trkpt>
      <trkpt lat="47.98758" lon="-0.75581">
        <ele>63.5</ele>
        <time>2018-02-04T11:16:01Z</time>
      </trkpt>
      <trkpt lat="47.98754" lon="-0.75578">
        <ele>63.9</ele>
        <time>2018-02-04T11:16:05Z</time>
      </trkpt>
      <trkpt lat="47.98749" lon="-0.75574">
        <ele>64.4</ele>
        <time>2018-02-04T11:16:09Z</time>
      </trkpt>
      <trkpt lat="47.98744" lon="-0.75571">
        <ele>64.7</ele>
        <time>2018-02-04T11:16:13Z</time>
      </trkpt>
      <trkpt lat="47.9874" lon="-0.75565">
        <ele>65.1</ele>
        <time>2018-02-04T11:16:17Z</time>
      </trkpt>
      <trkpt lat="47.98738" lon="-0.75563">
        <ele>65.3</ele>
        <time>2018-02-04T11:16:21Z</time>
      </trkpt>
      <trkpt lat="47.98734" lon="-0.75559">
        <ele>65.5</ele>
        <time>2018-02-04T11:16:25Z</time>
      </trkpt>
      <trkpt lat="47.98725" lon="-0.75555">
        <ele>65.3</ele>
        <time>2018-02-04T11:17:01Z</time>
      </trkpt>
      <trkpt lat="47.98724" lon="-0.75551">
        <ele>65.7</ele>
        <time>2018-02-04T11:17:05Z</time>
      </trkpt>
      <trkpt lat="47.9872" lon="-0.75547">
        <ele>66.1</ele>
        <time>2018-02-04T11:17:13Z</time>
      </trkpt>
      <trkpt lat="47.98719" lon="-0.75547">
        <ele>66.1</ele>
        <time>2018-02-04T11:18:05Z</time>
      </trkpt>
      <trkpt lat="47.98713" lon="-0.75543">
        <ele>66.5</ele>
        <time>2018-02-04T11:18:09Z</time>
      </trkpt>
      <trkpt lat="47.98707" lon="-0.75538">
        <ele>67</ele>
        <time>2018-02-04T11:18:13Z</time>
      </trkpt>
      <trkpt lat="47.987" lon="-0.75533">
        <ele>67.5</ele>
        <time>2018-02-04T11:18:17Z</time>
      </trkpt>
      <trkpt lat="47.98694" lon="-0.75529">
        <ele>67.8</ele>
        <time>2018-02-04T11:18:21Z</time>
      </trkpt>
      <trkpt lat="47.98686" lon="-0.75525">
        <ele>67.6</ele>
        <time>2018-02-04T11:18:25Z</time>
      </trkpt>
      <trkpt lat="47.98679" lon="-0.75521">
        <ele>67.5</ele>
        <time>2018-02-04T11:18:29Z</time>
      </trkpt>
      <trkpt lat="47.98675" lon="-0.75519">
        <ele>67.4</ele>
        <time>2018-02-04T11:18:33Z</time>
      </trkpt>
      <trkpt lat="47.98668" lon="-0.75514">
        <ele>67.6</ele>
        <time>2018-02-04T11:18:37Z</time>
      </trkpt>
      <trkpt lat="47.98661" lon="-0.75509">
        <ele>67.6</ele>
        <time>2018-02-04T11:18:41Z</time>
      </trkpt>
      <trkpt lat="47.98655" lon="-0.75505">
        <ele>67.6</ele>
        <time>2018-02-04T11:18:45Z</time>
      </trkpt>
      <trkpt lat="47.98649" lon="-0.755">
        <ele>67.8</ele>
        <time>2018-02-04T11:18:49Z</time>
      </trkpt>
      <trkpt lat="47.98642" lon="-0.75492">
        <ele>67.8</ele>
        <time>2018-02-04T11:18:53Z</time>
      </trkpt>
      <trkpt lat="47.98636" lon="-0.75486">
        <ele>67.8</ele>
        <time>2018-02-04T11:18:57Z</time>
      </trkpt>
      <trkpt lat="47.98629" lon="-0.75478">
        <ele>67.9</ele>
        <time>2018-02-04T11:19:01Z</time>
      </trkpt>
      <trkpt lat="47.98623" lon="-0.75471">
        <ele>68</ele>
        <time>2018-02-04T11:19:05Z</time>
      </trkpt>
      <trkpt lat="47.98619" lon="-0.75465">
        <ele>68.1</ele>
        <time>2018-02-04T11:19:09Z</time>
      </trkpt>
      <trkpt lat="47.98614" lon="-0.75459">
        <ele>68.2</ele>
        <time>2018-02-04T11:19:13Z</time>
      </trkpt>
      <trkpt lat="47.98609" lon="-0.75453">
        <ele>68.2</ele>
        <time>2018-02-04T11:19:17Z</time>
      </trkpt>
      <trkpt lat="47.98604" lon="-0.75442">
        <ele>68.5</ele>
        <time>2018-02-04T11:19:21Z</time>
      </trkpt>
      <trkpt lat="47.98596" lon="-0.7543">
        <ele>68.4</ele>
        <time>2018-02-04T11:19:25Z</time>
      </trkpt>
      <trkpt lat="47.98589" lon="-0.7542">
        <ele>68.3</ele>
        <time>2018-02-04T11:19:29Z</time>
      </trkpt>
      <trkpt lat="47.98583" lon="-0.75413">
        <ele>68.1</ele>
        <time>2018-02-04T11:19:33Z</time>
      </trkpt>
      <trkpt lat="47.98575" lon="-0.75403">
        <ele>67.6</ele>
        <time>2018-02-04T11:19:37Z</time>
      </trkpt>
      <trkpt lat="47.98569" lon="-0.75392">
        <ele>67.4</ele>
        <time>2018-02-04T11:19:41Z</time>
      </trkpt>
      <trkpt lat="47.98564" lon="-0.75379">
        <ele>67.2</ele>
        <time>2018-02-04T11:19:45Z</time>
      </trkpt>
      <trkpt lat="47.9856" lon="-0.75367">
        <ele>67.3</ele>
        <time>2018-02-04T11:19:49Z</time>
      </trkpt>
      <trkpt lat="47.98557" lon="-0.75356">
        <ele>67.4</ele>
        <time>2018-02-04T11:19:53Z</time>
      </trkpt>
      <trkpt lat="47.98554" lon="-0.75343">
        <ele>67.6</ele>
        <time>2018-02-04T11:19:57Z</time>
      </trkpt>
      <trkpt lat="47.98551" lon="-0.75332">
        <ele>68</ele>
        <time>2018-02-04T11:20:01Z</time>
      </trkpt>
      <trkpt lat="47.98549" lon="-0.7532">
        <ele>68.7</ele>
        <time>2018-02-04T11:20:05Z</time>
      </trkpt>
      <trkpt lat="47.98547" lon="-0.75309">
        <ele>69.5</ele>
        <time>2018-02-04T11:20:09Z</time>
      </trkpt>
      <trkpt lat="47.98545" lon="-0.75296">
        <ele>70.2</ele>
        <time>2018-02-04T11:20:13Z</time>
      </trkpt>
      <trkpt lat="47.98543" lon="-0.75285">
        <ele>70.7</ele>
        <time>2018-02-04T11:20:17Z</time>
      </trkpt>
      <trkpt lat="47.98541" lon="-0.75274">
        <ele>71.1</ele>
        <time>2018-02-04T11:20:21Z</time>
      </trkpt>
      <trkpt lat="47.98539" lon="-0.75263">
        <ele>71.6</ele>
        <time>2018-02-04T11:20:25Z</time>
      </trkpt>
      <trkpt lat="47.98537" lon="-0.75253">
        <ele>72.1</ele>
        <time>2018-02-04T11:20:29Z</time>
      </trkpt>
      <trkpt lat="47.98533" lon="-0.75242">
        <ele>72.8</ele>
        <time>2018-02-04T11:20:33Z</time>
      </trkpt>
      <trkpt lat="47.98531" lon="-0.75232">
        <ele>73.4</ele>
        <time>2018-02-04T11:20:37Z</time>
      </trkpt>
      <trkpt lat="47.98528" lon="-0.75223">
        <ele>73.9</ele>
        <time>2018-02-04T11:20:41Z</time>
      </trkpt>
      <trkpt lat="47.98523" lon="-0.75211">
        <ele>74.6</ele>
        <time>2018-02-04T11:20:45Z</time>
      </trkpt>
      <trkpt lat="47.9852" lon="-0.75203">
        <ele>74.9</ele>
        <time>2018-02-04T11:20:49Z</time>
      </trkpt>
      <trkpt lat="47.98517" lon="-0.75193">
        <ele>75.3</ele>
        <time>2018-02-04T11:20:53Z</time>
      </trkpt>
      <trkpt lat="47.98512" lon="-0.75181">
        <ele>75.8</ele>
        <time>2018-02-04T11:20:57Z</time>
      </trkpt>
      <trkpt lat="47.98508" lon="-0.75171">
        <ele>76.2</ele>
        <time>2018-02-04T11:21:01Z</time>
      </trkpt>
      <trkpt lat="47.98504" lon="-0.7516">
        <ele>76.8</ele>
        <time>2018-02-04T11:21:05Z</time>
      </trkpt>
      <trkpt lat="47.98501" lon="-0.75149">
        <ele>77.3</ele>
        <time>2018-02-04T11:21:09Z</time>
      </trkpt>
      <trkpt lat="47.98497" lon="-0.75138">
        <ele>77.8</ele>
        <time>2018-02-04T11:21:13Z</time>
      </trkpt>
      <trkpt lat="47.98494" lon="-0.75129">
        <ele>78.2</ele>
        <time>2018-02-04T11:21:17Z</time>
      </trkpt>
      <trkpt lat="47.9849" lon="-0.75121">
        <ele>78.3</ele>
        <time>2018-02-04T11:21:21Z</time>
      </trkpt>
      <trkpt lat="47.98487" lon="-0.75114">
        <ele>78.4</ele>
        <time>2018-02-04T11:21:25Z</time>
      </trkpt>
      <trkpt lat="47.98482" lon="-0.75104">
        <ele>78.7</ele>
        <time>2018-02-04T11:21:29Z</time>
      </trkpt>
      <trkpt lat="47.98479" lon="-0.75097">
        <ele>79.1</ele>
        <time>2018-02-04T11:21:33Z</time>
      </trkpt>
      <trkpt lat="47.98475" lon="-0.75088">
        <ele>79.7</ele>
        <time>2018-02-04T11:21:37Z</time>
      </trkpt>
      <trkpt lat="47.9847" lon="-0.7508">
        <ele>79.7</ele>
        <time>2018-02-04T11:21:41Z</time>
      </trkpt>
      <trkpt lat="47.98466" lon="-0.75072">
        <ele>79.2</ele>
        <time>2018-02-04T11:21:45Z</time>
      </trkpt>
      <trkpt lat="47.98461" lon="-0.75063">
        <ele>78.6</ele>
        <time>2018-02-04T11:21:49Z</time>
      </trkpt>
      <trkpt lat="47.98454" lon="-0.75054">
        <ele>78.2</ele>
        <time>2018-02-04T11:21:53Z</time>
      </trkpt>
      <trkpt lat="47.9845" lon="-0.75045">
        <ele>78.4</ele>
        <time>2018-02-04T11:21:57Z</time>
      </trkpt>
      <trkpt lat="47.98448" lon="-0.75032">
        <ele>79.1</ele>
        <time>2018-02-04T11:22:01Z</time>
      </trkpt>
      <trkpt lat="47.98446" lon="-0.75021">
        <ele>79.4</ele>
        <time>2018-02-04T11:22:05Z</time>
      </trkpt>
      <trkpt lat="47.98443" lon="-0.75011">
        <ele>79.4</ele>
        <time>2018-02-04T11:22:09Z</time>
      </trkpt>
      <trkpt lat="47.98441" lon="-0.75001">
        <ele>79.6</ele>
        <time>2018-02-04T11:22:13Z</time>
      </trkpt>
      <trkpt lat="47.98439" lon="-0.74991">
        <ele>79.7</ele>
        <time>2018-02-04T11:22:17Z</time>
      </trkpt>
      <trkpt lat="47.98436" lon="-0.74981">
        <ele>79.8</ele>
        <time>2018-02-04T11:22:21Z</time>
      </trkpt>
      <trkpt lat="47.98435" lon="-0.74969">
        <ele>80</ele>
        <time>2018-02-04T11:22:25Z</time>
      </trkpt>
      <trkpt lat="47.98436" lon="-0.7496">
        <ele>80.4</ele>
        <time>2018-02-04T11:22:29Z</time>
      </trkpt>
      <trkpt lat="47.98433" lon="-0.74943">
        <ele>80.4</ele>
        <time>2018-02-04T11:22:33Z</time>
      </trkpt>
      <trkpt lat="47.98428" lon="-0.74922">
        <ele>80.1</ele>
        <time>2018-02-04T11:22:37Z</time>
      </trkpt>
      <trkpt lat="47.98425" lon="-0.74906">
        <ele>79.9</ele>
        <time>2018-02-04T11:22:41Z</time>
      </trkpt>
      <trkpt lat="47.98424" lon="-0.74894">
        <ele>79.8</ele>
        <time>2018-02-04T11:22:45Z</time>
      </trkpt>
      <trkpt lat="47.98423" lon="-0.74884">
        <ele>79.8</ele>
        <time>2018-02-04T11:22:49Z</time>
      </trkpt>
      <trkpt lat="47.98422" lon="-0.74872">
        <ele>80.2</ele>
        <time>2018-02-04T11:22:53Z</time>
      </trkpt>
      <trkpt lat="47.98422" lon="-0.74862">
        <ele>80.5</ele>
        <time>2018-02-04T11:22:57Z</time>
      </trkpt>
      <trkpt lat="47.9842" lon="-0.74849">
        <ele>80.3</ele>
        <time>2018-02-04T11:23:01Z</time>
      </trkpt>
      <trkpt lat="47.98418" lon="-0.74836">
        <ele>80.2</ele>
        <time>2018-02-04T11:23:05Z</time>
      </trkpt>
      <trkpt lat="47.98416" lon="-0.74826">
        <ele>80.5</ele>
        <time>2018-02-04T11:23:09Z</time>
      </trkpt>
      <trkpt lat="47.98418" lon="-0.74816">
        <ele>81.3</ele>
        <time>2018-02-04T11:23:13Z</time>
      </trkpt>
      <trkpt lat="47.98415" lon="-0.74801">
        <ele>81.7</ele>
        <time>2018-02-04T11:23:17Z</time>
      </trkpt>
      <trkpt lat="47.98409" lon="-0.74767">
        <ele>80.2</ele>
        <time>2018-02-04T11:23:21Z</time>
      </trkpt>
      <trkpt lat="47.9841" lon="-0.74749">
        <ele>80.1</ele>
        <time>2018-02-04T11:23:25Z</time>
      </trkpt>
      <trkpt lat="47.98412" lon="-0.7474">
        <ele>80</ele>
        <time>2018-02-04T11:23:29Z</time>
      </trkpt>
      <trkpt lat="47.98413" lon="-0.7473">
        <ele>79.7</ele>
        <time>2018-02-04T11:23:37Z</time>
      </trkpt>
      <trkpt lat="47.98414" lon="-0.74726">
        <ele>79.8</ele>
        <time>2018-02-04T11:23:41Z</time>
      </trkpt>
      <trkpt lat="47.98416" lon="-0.74717">
        <ele>80.3</ele>
        <time>2018-02-04T11:23:45Z</time>
      </trkpt>
      <trkpt lat="47.98417" lon="-0.74711">
        <ele>80.8</ele>
        <time>2018-02-04T11:23:49Z</time>
      </trkpt>
      <trkpt lat="47.98419" lon="-0.74704">
        <ele>81.5</ele>
        <time>2018-02-04T11:23:53Z</time>
      </trkpt>
      <trkpt lat="47.98421" lon="-0.74694">
        <ele>82.3</ele>
        <time>2018-02-04T11:23:57Z</time>
      </trkpt>
      <trkpt lat="47.98421" lon="-0.74685">
        <ele>83</ele>
        <time>2018-02-04T11:24:01Z</time>
      </trkpt>
      <trkpt lat="47.98422" lon="-0.74677">
        <ele>83.6</ele>
        <time>2018-02-04T11:24:05Z</time>
      </trkpt>
      <trkpt lat="47.98423" lon="-0.74669">
        <ele>84.3</ele>
        <time>2018-02-04T11:24:09Z</time>
      </trkpt>
      <trkpt lat="47.98422" lon="-0.74662">
        <ele>84.8</ele>
        <time>2018-02-04T11:24:13Z</time>
      </trkpt>
      <trkpt lat="47.98423" lon="-0.74658">
        <ele>85.3</ele>
        <time>2018-02-04T11:24:17Z</time>
      </trkpt>
      <trkpt lat="47.98423" lon="-0.74651">
        <ele>86.1</ele>
        <time>2018-02-04T11:24:21Z</time>
      </trkpt>
      <trkpt lat="47.98422" lon="-0.74641">
        <ele>87</ele>
        <time>2018-02-04T11:24:25Z</time>
      </trkpt>
      <trkpt lat="47.98419" lon="-0.74635">
        <ele>87.4</ele>
        <time>2018-02-04T11:24:29Z</time>
      </trkpt>
      <trkpt lat="47.98414" lon="-0.7463">
        <ele>87.5</ele>
        <time>2018-02-04T11:24:33Z</time>
      </trkpt>
      <trkpt lat="47.98409" lon="-0.74626">
        <ele>87.8</ele>
        <time>2018-02-04T11:24:37Z</time>
      </trkpt>
      <trkpt lat="47.98403" lon="-0.74621">
        <ele>88.1</ele>
        <time>2018-02-04T11:24:41Z</time>
      </trkpt>
      <trkpt lat="47.984" lon="-0.74614">
        <ele>88.7</ele>
        <time>2018-02-04T11:24:45Z</time>
      </trkpt>
      <trkpt lat="47.98396" lon="-0.74608">
        <ele>89.2</ele>
        <time>2018-02-04T11:24:49Z</time>
      </trkpt>
      <trkpt lat="47.9839" lon="-0.74602">
        <ele>89.6</ele>
        <time>2018-02-04T11:24:53Z</time>
      </trkpt>
      <trkpt lat="47.98387" lon="-0.74596">
        <ele>90.1</ele>
        <time>2018-02-04T11:24:57Z</time>
      </trkpt>
      <trkpt lat="47.98383" lon="-0.74591">
        <ele>90.3</ele>
        <time>2018-02-04T11:25:01Z</time>
      </trkpt>
      <trkpt lat="47.98379" lon="-0.74584">
        <ele>90.6</ele>
        <time>2018-02-04T11:25:05Z</time>
      </trkpt>
      <trkpt lat="47.98376" lon="-0.74581">
        <ele>90.6</ele>
        <time>2018-02-04T11:25:09Z</time>
      </trkpt>
      <trkpt lat="47.98373" lon="-0.74571">
        <ele>90.9</ele>
        <time>2018-02-04T11:25:13Z</time>
      </trkpt>
      <trkpt lat="47.98368" lon="-0.74561">
        <ele>91</ele>
        <time>2018-02-04T11:25:57Z</time>
      </trkpt>
      <trkpt lat="47.98366" lon="-0.74552">
        <ele>91.4</ele>
        <time>2018-02-04T11:26:01Z</time>
      </trkpt>
      <trkpt lat="47.98363" lon="-0.74544">
        <ele>91.9</ele>
        <time>2018-02-04T11:26:05Z</time>
      </trkpt>
      <trkpt lat="47.9836" lon="-0.74535">
        <ele>92.5</ele>
        <time>2018-02-04T11:26:09Z</time>
      </trkpt>
      <trkpt lat="47.98355" lon="-0.74522">
        <ele>92.8</ele>
        <time>2018-02-04T11:26:13Z</time>
      </trkpt>
      <trkpt lat="47.98351" lon="-0.74511">
        <ele>92.6</ele>
        <time>2018-02-04T11:26:17Z</time>
      </trkpt>
      <trkpt lat="47.98347" lon="-0.74495">
        <ele>92.6</ele>
        <time>2018-02-04T11:26:21Z</time>
      </trkpt>
      <trkpt lat="47.98344" lon="-0.74481">
        <ele>92.8</ele>
        <time>2018-02-04T11:26:25Z</time>
      </trkpt>
      <trkpt lat="47.98341" lon="-0.74464">
        <ele>93</ele>
        <time>2018-02-04T11:26:29Z</time>
      </trkpt>
      <trkpt lat="47.98336" lon="-0.74444">
        <ele>93</ele>
        <time>2018-02-04T11:26:33Z</time>
      </trkpt>
      <trkpt lat="47.9833" lon="-0.74425">
        <ele>93</ele>
        <time>2018-02-04T11:26:37Z</time>
      </trkpt>
      <trkpt lat="47.98329" lon="-0.74408">
        <ele>92.7</ele>
        <time>2018-02-04T11:26:41Z</time>
      </trkpt>
      <trkpt lat="47.98337" lon="-0.74397">
        <ele>92.3</ele>
        <time>2018-02-04T11:26:45Z</time>
      </trkpt>
      <trkpt lat="47.98349" lon="-0.74388">
        <ele>92</ele>
        <time>2018-02-04T11:26:49Z</time>
      </trkpt>
      <trkpt lat="47.9836" lon="-0.74372">
        <ele>91.4</ele>
        <time>2018-02-04T11:26:53Z</time>
      </trkpt>
      <trkpt lat="47.98369" lon="-0.74358">
        <ele>91</ele>
        <time>2018-02-04T11:26:57Z</time>
      </trkpt>
      <trkpt lat="47.98383" lon="-0.74342">
        <ele>90.5</ele>
        <time>2018-02-04T11:27:01Z</time>
      </trkpt>
      <trkpt lat="47.98375" lon="-0.74321">
        <ele>89.8</ele>
        <time>2018-02-04T11:27:05Z</time>
      </trkpt>
      <trkpt lat="47.98368" lon="-0.743">
        <ele>89.3</ele>
        <time>2018-02-04T11:27:09Z</time>
      </trkpt>
      <trkpt lat="47.98358" lon="-0.74273">
        <ele>89</ele>
        <time>2018-02-04T11:27:13Z</time>
      </trkpt>
      <trkpt lat="47.98346" lon="-0.74246">
        <ele>89</ele>
        <time>2018-02-04T11:27:17Z</time>
      </trkpt>
      <trkpt lat="47.98335" lon="-0.74219">
        <ele>88.9</ele>
        <time>2018-02-04T11:27:21Z</time>
      </trkpt>
      <trkpt lat="47.98324" lon="-0.74199">
        <ele>89.4</ele>
        <time>2018-02-04T11:27:25Z</time>
      </trkpt>
      <trkpt lat="47.9831" lon="-0.7418">
        <ele>89.8</ele>
        <time>2018-02-04T11:27:29Z</time>
      </trkpt>
      <trkpt lat="47.98296" lon="-0.74163">
        <ele>90</ele>
        <time>2018-02-04T11:27:33Z</time>
      </trkpt>
      <trkpt lat="47.98281" lon="-0.74143">
        <ele>89.2</ele>
        <time>2018-02-04T11:27:37Z</time>
      </trkpt>
      <trkpt lat="47.98266" lon="-0.7412">
        <ele>89.4</ele>
        <time>2018-02-04T11:27:41Z</time>
      </trkpt>
      <trkpt lat="47.98252" lon="-0.74091">
        <ele>89.1</ele>
        <time>2018-02-04T11:27:45Z</time>
      </trkpt>
      <trkpt lat="47.9824" lon="-0.74063">
        <ele>88.6</ele>
        <time>2018-02-04T11:27:49Z</time>
      </trkpt>
      <trkpt lat="47.9823" lon="-0.74034">
        <ele>88.3</ele>
        <time>2018-02-04T11:27:53Z</time>
      </trkpt>
      <trkpt lat="47.98221" lon="-0.74006">
        <ele>88</ele>
        <time>2018-02-04T11:27:57Z</time>
      </trkpt>
      <trkpt lat="47.98213" lon="-0.7398">
        <ele>88.5</ele>
        <time>2018-02-04T11:28:01Z</time>
      </trkpt>
      <trkpt lat="47.98204" lon="-0.73953">
        <ele>88.4</ele>
        <time>2018-02-04T11:28:05Z</time>
      </trkpt>
      <trkpt lat="47.98196" lon="-0.73927">
        <ele>88.6</ele>
        <time>2018-02-04T11:28:09Z</time>
      </trkpt>
      <trkpt lat="47.98191" lon="-0.73906">
        <ele>88.9</ele>
        <time>2018-02-04T11:28:13Z</time>
      </trkpt>
      <trkpt lat="47.98182" lon="-0.73884">
        <ele>88.6</ele>
        <time>2018-02-04T11:28:17Z</time>
      </trkpt>
      <trkpt lat="47.98173" lon="-0.73862">
        <ele>88.2</ele>
        <time>2018-02-04T11:28:21Z</time>
      </trkpt>
      <trkpt lat="47.98159" lon="-0.73843">
        <ele>87.5</ele>
        <time>2018-02-04T11:28:25Z</time>
      </trkpt>
      <trkpt lat="47.98141" lon="-0.7383">
        <ele>86.3</ele>
        <time>2018-02-04T11:28:29Z</time>
      </trkpt>
      <trkpt lat="47.98117" lon="-0.73818">
        <ele>84.5</ele>
        <time>2018-02-04T11:28:33Z</time>
      </trkpt>
      <trkpt lat="47.98096" lon="-0.73805">
        <ele>80.8</ele>
        <time>2018-02-04T11:28:37Z</time>
      </trkpt>
      <trkpt lat="47.98093" lon="-0.73781">
        <ele>82.8</ele>
        <time>2018-02-04T11:28:41Z</time>
      </trkpt>
      <trkpt lat="47.98098" lon="-0.73767">
        <ele>83.5</ele>
        <time>2018-02-04T11:28:45Z</time>
      </trkpt>
      <trkpt lat="47.98105" lon="-0.73751">
        <ele>84.4</ele>
        <time>2018-02-04T11:28:49Z</time>
      </trkpt>
      <trkpt lat="47.98114" lon="-0.73738">
        <ele>85.2</ele>
        <time>2018-02-04T11:28:53Z</time>
      </trkpt>
      <trkpt lat="47.98121" lon="-0.73722">
        <ele>85.7</ele>
        <time>2018-02-04T11:28:57Z</time>
      </trkpt>
      <trkpt lat="47.98132" lon="-0.73708">
        <ele>86</ele>
        <time>2018-02-04T11:29:01Z</time>
      </trkpt>
      <trkpt lat="47.98143" lon="-0.73695">
        <ele>86.2</ele>
        <time>2018-02-04T11:29:05Z</time>
      </trkpt>
      <trkpt lat="47.98157" lon="-0.73683">
        <ele>86.3</ele>
        <time>2018-02-04T11:29:09Z</time>
      </trkpt>
      <trkpt lat="47.98169" lon="-0.73671">
        <ele>86.2</ele>
        <time>2018-02-04T11:29:13Z</time>
      </trkpt>
      <trkpt lat="47.98182" lon="-0.73658">
        <ele>86.2</ele>
        <time>2018-02-04T11:29:17Z</time>
      </trkpt>
      <trkpt lat="47.98197" lon="-0.73647">
        <ele>86.4</ele>
        <time>2018-02-04T11:29:21Z</time>
      </trkpt>
      <trkpt lat="47.98207" lon="-0.73636">
        <ele>86.4</ele>
        <time>2018-02-04T11:29:25Z</time>
      </trkpt>
      <trkpt lat="47.9822" lon="-0.73619">
        <ele>86.2</ele>
        <time>2018-02-04T11:29:29Z</time>
      </trkpt>
      <trkpt lat="47.98224" lon="-0.73598">
        <ele>85.5</ele>
        <time>2018-02-04T11:29:33Z</time>
      </trkpt>
      <trkpt lat="47.98219" lon="-0.73573">
        <ele>84.6</ele>
        <time>2018-02-04T11:29:37Z</time>
      </trkpt>
      <trkpt lat="47.9821" lon="-0.73545">
        <ele>83.5</ele>
        <time>2018-02-04T11:29:41Z</time>
      </trkpt>
      <trkpt lat="47.98199" lon="-0.73518">
        <ele>81.8</ele>
        <time>2018-02-04T11:29:45Z</time>
      </trkpt>
      <trkpt lat="47.98192" lon="-0.73492">
        <ele>80.6</ele>
        <time>2018-02-04T11:29:49Z</time>
      </trkpt>
      <trkpt lat="47.98197" lon="-0.73478">
        <ele>80.2</ele>
        <time>2018-02-04T11:29:53Z</time>
      </trkpt>
      <trkpt lat="47.98204" lon="-0.73469">
        <ele>79.8</ele>
        <time>2018-02-04T11:29:57Z</time>
      </trkpt>
      <trkpt lat="47.98211" lon="-0.7346">
        <ele>79.3</ele>
        <time>2018-02-04T11:30:01Z</time>
      </trkpt>
      <trkpt lat="47.98218" lon="-0.73447">
        <ele>78.4</ele>
        <time>2018-02-04T11:30:05Z</time>
      </trkpt>
      <trkpt lat="47.98232" lon="-0.73433">
        <ele>77.1</ele>
        <time>2018-02-04T11:30:09Z</time>
      </trkpt>
      <trkpt lat="47.98247" lon="-0.73423">
        <ele>75.7</ele>
        <time>2018-02-04T11:30:13Z</time>
      </trkpt>
      <trkpt lat="47.98262" lon="-0.73413">
        <ele>73.8</ele>
        <time>2018-02-04T11:30:17Z</time>
      </trkpt>
      <trkpt lat="47.98272" lon="-0.73399">
        <ele>71.5</ele>
        <time>2018-02-04T11:30:21Z</time>
      </trkpt>
      <trkpt lat="47.98273" lon="-0.7338">
        <ele>69.6</ele>
        <time>2018-02-04T11:30:25Z</time>
      </trkpt>
      <trkpt lat="47.98272" lon="-0.73357">
        <ele>68.1</ele>
        <time>2018-02-04T11:30:29Z</time>
      </trkpt>
      <trkpt lat="47.9827" lon="-0.73334">
        <ele>67.2</ele>
        <time>2018-02-04T11:30:33Z</time>
      </trkpt>
      <trkpt lat="47.98265" lon="-0.73318">
        <ele>66</ele>
        <time>2018-02-04T11:30:37Z</time>
      </trkpt>
      <trkpt lat="47.98259" lon="-0.73296">
        <ele>62.9</ele>
        <time>2018-02-04T11:30:41Z</time>
      </trkpt>
      <trkpt lat="47.98251" lon="-0.73272">
        <ele>58.2</ele>
        <time>2018-02-04T11:30:45Z</time>
      </trkpt>
      <trkpt lat="47.98242" lon="-0.7324">
        <ele>56.8</ele>
        <time>2018-02-04T11:30:49Z</time>
      </trkpt>
      <trkpt lat="47.98239" lon="-0.73209">
        <ele>54.9</ele>
        <time>2018-02-04T11:30:53Z</time>
      </trkpt>
      <trkpt lat="47.98235" lon="-0.73175">
        <ele>51.3</ele>
        <time>2018-02-04T11:30:57Z</time>
      </trkpt>
      <trkpt lat="47.98228" lon="-0.73138">
        <ele>45.6</ele>
        <time>2018-02-04T11:31:01Z</time>
      </trkpt>
      <trkpt lat="47.9823" lon="-0.73109">
        <ele>44.9</ele>
        <time>2018-02-04T11:31:05Z</time>
      </trkpt>
      <trkpt lat="47.98229" lon="-0.73083">
        <ele>42</ele>
        <time>2018-02-04T11:31:09Z</time>
      </trkpt>
      <trkpt lat="47.98236" lon="-0.73065">
        <ele>42.1</ele>
        <time>2018-02-04T11:31:13Z</time>
      </trkpt>
      <trkpt lat="47.98243" lon="-0.73046">
        <ele>41.8</ele>
        <time>2018-02-04T11:31:17Z</time>
      </trkpt>
      <trkpt lat="47.98244" lon="-0.73015">
        <ele>41.1</ele>
        <time>2018-02-04T11:31:21Z</time>
      </trkpt>
      <trkpt lat="47.98245" lon="-0.72984">
        <ele>40.9</ele>
        <time>2018-02-04T11:31:25Z</time>
      </trkpt>
      <trkpt lat="47.9825" lon="-0.72963">
        <ele>39</ele>
        <time>2018-02-04T11:31:29Z</time>
      </trkpt>
      <trkpt lat="47.98259" lon="-0.72949">
        <ele>37.8</ele>
        <time>2018-02-04T11:31:33Z</time>
      </trkpt>
      <trkpt lat="47.98272" lon="-0.72943">
        <ele>37.7</ele>
        <time>2018-02-04T11:31:37Z</time>
      </trkpt>
      <trkpt lat="47.98288" lon="-0.72931">
        <ele>37.4</ele>
        <time>2018-02-04T11:31:41Z</time>
      </trkpt>
      <trkpt lat="47.98304" lon="-0.72917">
        <ele>37.9</ele>
        <time>2018-02-04T11:31:45Z</time>
      </trkpt>
      <trkpt lat="47.9832" lon="-0.72906">
        <ele>37.5</ele>
        <time>2018-02-04T11:31:49Z</time>
      </trkpt>
      <trkpt lat="47.98334" lon="-0.72904">
        <ele>37.5</ele>
        <time>2018-02-04T11:31:53Z</time>
      </trkpt>
      <trkpt lat="47.98348" lon="-0.72914">
        <ele>37.4</ele>
        <time>2018-02-04T11:31:57Z</time>
      </trkpt>
      <trkpt lat="47.98361" lon="-0.72928">
        <ele>37.4</ele>
        <time>2018-02-04T11:32:01Z</time>
      </trkpt>
      <trkpt lat="47.98374" lon="-0.72945">
        <ele>37.1</ele>
        <time>2018-02-04T11:32:05Z</time>
      </trkpt>
      <trkpt lat="47.98386" lon="-0.72965">
        <ele>37.5</ele>
        <time>2018-02-04T11:32:09Z</time>
      </trkpt>
      <trkpt lat="47.98397" lon="-0.72986">
        <ele>37.4</ele>
        <time>2018-02-04T11:32:13Z</time>
      </trkpt>
      <trkpt lat="47.98409" lon="-0.73009">
        <ele>36.8</ele>
        <time>2018-02-04T11:32:17Z</time>
      </trkpt>
      <trkpt lat="47.9842" lon="-0.7303">
        <ele>36.9</ele>
        <time>2018-02-04T11:32:21Z</time>
      </trkpt>
      <trkpt lat="47.98432" lon="-0.73051">
        <ele>36.4</ele>
        <time>2018-02-04T11:32:25Z</time>
      </trkpt>
      <trkpt lat="47.98442" lon="-0.73073">
        <ele>36.7</ele>
        <time>2018-02-04T11:32:29Z</time>
      </trkpt>
      <trkpt lat="47.98451" lon="-0.73096">
        <ele>36.4</ele>
        <time>2018-02-04T11:32:33Z</time>
      </trkpt>
      <trkpt lat="47.98461" lon="-0.73118">
        <ele>36.2</ele>
        <time>2018-02-04T11:32:37Z</time>
      </trkpt>
      <trkpt lat="47.98471" lon="-0.73141">
        <ele>37.1</ele>
        <time>2018-02-04T11:32:41Z</time>
      </trkpt>
      <trkpt lat="47.98481" lon="-0.73165">
        <ele>37.3</ele>
        <time>2018-02-04T11:32:45Z</time>
      </trkpt>
      <trkpt lat="47.98491" lon="-0.73186">
        <ele>37.1</ele>
        <time>2018-02-04T11:32:49Z</time>
      </trkpt>
      <trkpt lat="47.98505" lon="-0.73207">
        <ele>37.2</ele>
        <time>2018-02-04T11:32:53Z</time>
      </trkpt>
      <trkpt lat="47.98516" lon="-0.73229">
        <ele>37.1</ele>
        <time>2018-02-04T11:32:57Z</time>
      </trkpt>
      <trkpt lat="47.98526" lon="-0.73253">
        <ele>37.2</ele>
        <time>2018-02-04T11:33:01Z</time>
      </trkpt>
      <trkpt lat="47.98536" lon="-0.73279">
        <ele>37.4</ele>
        <time>2018-02-04T11:33:05Z</time>
      </trkpt>
      <trkpt lat="47.98545" lon="-0.73306">
        <ele>36.8</ele>
        <time>2018-02-04T11:33:09Z</time>
      </trkpt>
      <trkpt lat="47.98553" lon="-0.73333">
        <ele>37.1</ele>
        <time>2018-02-04T11:33:13Z</time>
      </trkpt>
      <trkpt lat="47.98561" lon="-0.73358">
        <ele>37.5</ele>
        <time>2018-02-04T11:33:17Z</time>
      </trkpt>
      <trkpt lat="47.98568" lon="-0.73385">
        <ele>37.1</ele>
        <time>2018-02-04T11:33:21Z</time>
      </trkpt>
      <trkpt lat="47.98575" lon="-0.73413">
        <ele>36.6</ele>
        <time>2018-02-04T11:33:25Z</time>
      </trkpt>
      <trkpt lat="47.9858" lon="-0.73445">
        <ele>37.2</ele>
        <time>2018-02-04T11:33:29Z</time>
      </trkpt>
      <trkpt lat="47.98587" lon="-0.73473">
        <ele>36.9</ele>
        <time>2018-02-04T11:33:33Z</time>
      </trkpt>
      <trkpt lat="47.9859" lon="-0.73501">
        <ele>37.5</ele>
        <time>2018-02-04T11:33:37Z</time>
      </trkpt>
      <trkpt lat="47.98587" lon="-0.73528">
        <ele>37.7</ele>
        <time>2018-02-04T11:33:41Z</time>
      </trkpt>
      <trkpt lat="47.98589" lon="-0.73551">
        <ele>38.3</ele>
        <time>2018-02-04T11:33:45Z</time>
      </trkpt>
      <trkpt lat="47.98585" lon="-0.73578">
        <ele>37.3</ele>
        <time>2018-02-04T11:33:49Z</time>
      </trkpt>
      <trkpt lat="47.98581" lon="-0.736">
        <ele>37.7</ele>
        <time>2018-02-04T11:33:53Z</time>
      </trkpt>
      <trkpt lat="47.98574" lon="-0.73617">
        <ele>40</ele>
        <time>2018-02-04T11:33:57Z</time>
      </trkpt>
      <trkpt lat="47.98558" lon="-0.73637">
        <ele>42</ele>
        <time>2018-02-04T11:34:01Z</time>
      </trkpt>
      <trkpt lat="47.98541" lon="-0.73649">
        <ele>43.2</ele>
        <time>2018-02-04T11:34:05Z</time>
      </trkpt>
      <trkpt lat="47.98531" lon="-0.73664">
        <ele>39.6</ele>
        <time>2018-02-04T11:34:09Z</time>
      </trkpt>
      <trkpt lat="47.98522" lon="-0.73684">
        <ele>39.4</ele>
        <time>2018-02-04T11:34:13Z</time>
      </trkpt>
      <trkpt lat="47.9852" lon="-0.73703">
        <ele>38.2</ele>
        <time>2018-02-04T11:34:17Z</time>
      </trkpt>
      <trkpt lat="47.98517" lon="-0.7373">
        <ele>37.3</ele>
        <time>2018-02-04T11:34:21Z</time>
      </trkpt>
      <trkpt lat="47.98524" lon="-0.73756">
        <ele>36.3</ele>
        <time>2018-02-04T11:34:25Z</time>
      </trkpt>
      <trkpt lat="47.98525" lon="-0.73785">
        <ele>36.4</ele>
        <time>2018-02-04T11:34:29Z</time>
      </trkpt>
      <trkpt lat="47.98534" lon="-0.73811">
        <ele>36</ele>
        <time>2018-02-04T11:34:33Z</time>
      </trkpt>
      <trkpt lat="47.98539" lon="-0.73846">
        <ele>36.8</ele>
        <time>2018-02-04T11:34:37Z</time>
      </trkpt>
      <trkpt lat="47.98546" lon="-0.73873">
        <ele>38.2</ele>
        <time>2018-02-04T11:34:41Z</time>
      </trkpt>
      <trkpt lat="47.98557" lon="-0.73897">
        <ele>36.6</ele>
        <time>2018-02-04T11:34:45Z</time>
      </trkpt>
      <trkpt lat="47.98566" lon="-0.73922">
        <ele>38.3</ele>
        <time>2018-02-04T11:34:49Z</time>
      </trkpt>
      <trkpt lat="47.98578" lon="-0.73942">
        <ele>37.9</ele>
        <time>2018-02-04T11:34:53Z</time>
      </trkpt>
      <trkpt lat="47.98595" lon="-0.73959">
        <ele>37.5</ele>
        <time>2018-02-04T11:34:57Z</time>
      </trkpt>
      <trkpt lat="47.9861" lon="-0.73984">
        <ele>37.5</ele>
        <time>2018-02-04T11:35:01Z</time>
      </trkpt>
      <trkpt lat="47.98626" lon="-0.74003">
        <ele>38</ele>
        <time>2018-02-04T11:35:05Z</time>
      </trkpt>
      <trkpt lat="47.98646" lon="-0.74017">
        <ele>37.5</ele>
        <time>2018-02-04T11:35:09Z</time>
      </trkpt>
      <trkpt lat="47.98666" lon="-0.74027">
        <ele>37</ele>
        <time>2018-02-04T11:35:13Z</time>
      </trkpt>
      <trkpt lat="47.98682" lon="-0.74037">
        <ele>37.3</ele>
        <time>2018-02-04T11:35:17Z</time>
      </trkpt>
      <trkpt lat="47.98701" lon="-0.74046">
        <ele>37.3</ele>
        <time>2018-02-04T11:35:21Z</time>
      </trkpt>
      <trkpt lat="47.98724" lon="-0.74053">
        <ele>37.7</ele>
        <time>2018-02-04T11:35:25Z</time>
      </trkpt>
      <trkpt lat="47.98741" lon="-0.74064">
        <ele>37.2</ele>
        <time>2018-02-04T11:35:29Z</time>
      </trkpt>
      <trkpt lat="47.98759" lon="-0.74074">
        <ele>37.7</ele>
        <time>2018-02-04T11:35:33Z</time>
      </trkpt>
      <trkpt lat="47.98775" lon="-0.74083">
        <ele>39.7</ele>
        <time>2018-02-04T11:35:37Z</time>
      </trkpt>
      <trkpt lat="47.9879" lon="-0.74089">
        <ele>38.3</ele>
        <time>2018-02-04T11:35:41Z</time>
      </trkpt>
      <trkpt lat="47.98805" lon="-0.74095">
        <ele>36.1</ele>
        <time>2018-02-04T11:35:45Z</time>
      </trkpt>
      <trkpt lat="47.9882" lon="-0.74102">
        <ele>37.7</ele>
        <time>2018-02-04T11:35:49Z</time>
      </trkpt>
      <trkpt lat="47.98836" lon="-0.7411">
        <ele>39.8</ele>
        <time>2018-02-04T11:35:53Z</time>
      </trkpt>
      <trkpt lat="47.98852" lon="-0.74117">
        <ele>39.4</ele>
        <time>2018-02-04T11:35:57Z</time>
      </trkpt>
      <trkpt lat="47.98867" lon="-0.74124">
        <ele>39.3</ele>
        <time>2018-02-04T11:36:01Z</time>
      </trkpt>
      <trkpt lat="47.98882" lon="-0.74131">
        <ele>39.5</ele>
        <time>2018-02-04T11:36:05Z</time>
      </trkpt>
      <trkpt lat="47.98898" lon="-0.74138">
        <ele>39.6</ele>
        <time>2018-02-04T11:36:09Z</time>
      </trkpt>
      <trkpt lat="47.98913" lon="-0.74145">
        <ele>41.1</ele>
        <time>2018-02-04T11:36:13Z</time>
      </trkpt>
      <trkpt lat="47.98931" lon="-0.74154">
        <ele>42.2</ele>
        <time>2018-02-04T11:36:17Z</time>
      </trkpt>
      <trkpt lat="47.98946" lon="-0.74163">
        <ele>42.1</ele>
        <time>2018-02-04T11:36:21Z</time>
      </trkpt>
      <trkpt lat="47.98964" lon="-0.74171">
        <ele>42</ele>
        <time>2018-02-04T11:36:25Z</time>
      </trkpt>
      <trkpt lat="47.98985" lon="-0.74182">
        <ele>42.4</ele>
        <time>2018-02-04T11:36:29Z</time>
      </trkpt>
      <trkpt lat="47.99006" lon="-0.742">
        <ele>42</ele>
        <time>2018-02-04T11:36:33Z</time>
      </trkpt>
      <trkpt lat="47.99026" lon="-0.74213">
        <ele>42.1</ele>
        <time>2018-02-04T11:36:37Z</time>
      </trkpt>
      <trkpt lat="47.99044" lon="-0.74224">
        <ele>41.4</ele>
        <time>2018-02-04T11:36:41Z</time>
      </trkpt>
      <trkpt lat="47.99062" lon="-0.74232">
        <ele>42.3</ele>
        <time>2018-02-04T11:36:45Z</time>
      </trkpt>
      <trkpt lat="47.99079" lon="-0.74241">
        <ele>42.8</ele>
        <time>2018-02-04T11:36:49Z</time>
      </trkpt>
      <trkpt lat="47.99096" lon="-0.74249">
        <ele>42.1</ele>
        <time>2018-02-04T11:36:53Z</time>
      </trkpt>
      <trkpt lat="47.99115" lon="-0.7426">
        <ele>42.9</ele>
        <time>2018-02-04T11:36:57Z</time>
      </trkpt>
      <trkpt lat="47.99126" lon="-0.74274">
        <ele>44.3</ele>
        <time>2018-02-04T11:37:01Z</time>
      </trkpt>
      <trkpt lat="47.99149" lon="-0.74286">
        <ele>41.8</ele>
        <time>2018-02-04T11:37:05Z</time>
      </trkpt>
      <trkpt lat="47.99163" lon="-0.74296">
        <ele>41.4</ele>
        <time>2018-02-04T11:37:09Z</time>
      </trkpt>
      <trkpt lat="47.99184" lon="-0.74299">
        <ele>40.1</ele>
        <time>2018-02-04T11:37:13Z</time>
      </trkpt>
      <trkpt lat="47.99205" lon="-0.74302">
        <ele>39.4</ele>
        <time>2018-02-04T11:37:17Z</time>
      </trkpt>
      <trkpt lat="47.99227" lon="-0.743">
        <ele>38.8</ele>
        <time>2018-02-04T11:37:21Z</time>
      </trkpt>
      <trkpt lat="47.99249" lon="-0.74297">
        <ele>38.7</ele>
        <time>2018-02-04T11:37:25Z</time>
      </trkpt>
      <trkpt lat="47.99271" lon="-0.74294">
        <ele>38.6</ele>
        <time>2018-02-04T11:37:29Z</time>
      </trkpt>
      <trkpt lat="47.99292" lon="-0.7429">
        <ele>38.9</ele>
        <time>2018-02-04T11:37:33Z</time>
      </trkpt>
      <trkpt lat="47.99312" lon="-0.74286">
        <ele>39.4</ele>
        <time>2018-02-04T11:37:37Z</time>
      </trkpt>
      <trkpt lat="47.99331" lon="-0.74279">
        <ele>39.1</ele>
        <time>2018-02-04T11:37:41Z</time>
      </trkpt>
      <trkpt lat="47.99351" lon="-0.74273">
        <ele>38.8</ele>
        <time>2018-02-04T11:37:45Z</time>
      </trkpt>
      <trkpt lat="47.99369" lon="-0.74267">
        <ele>38.8</ele>
        <time>2018-02-04T11:37:49Z</time>
      </trkpt>
      <trkpt lat="47.99388" lon="-0.7426">
        <ele>38.7</ele>
        <time>2018-02-04T11:37:53Z</time>
      </trkpt>
      <trkpt lat="47.99405" lon="-0.74253">
        <ele>38.7</ele>
        <time>2018-02-04T11:37:57Z</time>
      </trkpt>
      <trkpt lat="47.99424" lon="-0.74243">
        <ele>38.8</ele>
        <time>2018-02-04T11:38:01Z</time>
      </trkpt>
      <trkpt lat="47.99441" lon="-0.74237">
        <ele>38.5</ele>
        <time>2018-02-04T11:38:05Z</time>
      </trkpt>
      <trkpt lat="47.99459" lon="-0.7423">
        <ele>38.8</ele>
        <time>2018-02-04T11:38:09Z</time>
      </trkpt>
      <trkpt lat="47.99477" lon="-0.74222">
        <ele>39</ele>
        <time>2018-02-04T11:38:13Z</time>
      </trkpt>
      <trkpt lat="47.99495" lon="-0.74213">
        <ele>38.7</ele>
        <time>2018-02-04T11:38:17Z</time>
      </trkpt>
      <trkpt lat="47.99514" lon="-0.74206">
        <ele>38.4</ele>
        <time>2018-02-04T11:38:21Z</time>
      </trkpt>
      <trkpt lat="47.99531" lon="-0.742">
        <ele>38.3</ele>
        <time>2018-02-04T11:38:25Z</time>
      </trkpt>
      <trkpt lat="47.99549" lon="-0.74195">
        <ele>38.8</ele>
        <time>2018-02-04T11:38:29Z</time>
      </trkpt>
      <trkpt lat="47.99566" lon="-0.74189">
        <ele>38.8</ele>
        <time>2018-02-04T11:38:33Z</time>
      </trkpt>
      <trkpt lat="47.99583" lon="-0.74183">
        <ele>38.6</ele>
        <time>2018-02-04T11:38:37Z</time>
      </trkpt>
      <trkpt lat="47.996" lon="-0.74177">
        <ele>39</ele>
        <time>2018-02-04T11:38:41Z</time>
      </trkpt>
      <trkpt lat="47.99617" lon="-0.74172">
        <ele>39.2</ele>
        <time>2018-02-04T11:38:45Z</time>
      </trkpt>
      <trkpt lat="47.99633" lon="-0.74167">
        <ele>39</ele>
        <time>2018-02-04T11:38:49Z</time>
      </trkpt>
      <trkpt lat="47.99645" lon="-0.7417">
        <ele>39.8</ele>
        <time>2018-02-04T11:38:53Z</time>
      </trkpt>
      <trkpt lat="47.99656" lon="-0.74175">
        <ele>40.9</ele>
        <time>2018-02-04T11:38:57Z</time>
      </trkpt>
      <trkpt lat="47.99661" lon="-0.74186">
        <ele>41.5</ele>
        <time>2018-02-04T11:39:01Z</time>
      </trkpt>
      <trkpt lat="47.99664" lon="-0.74201">
        <ele>42.1</ele>
        <time>2018-02-04T11:39:05Z</time>
      </trkpt>
      <trkpt lat="47.99666" lon="-0.74214">
        <ele>42.7</ele>
        <time>2018-02-04T11:39:09Z</time>
      </trkpt>
      <trkpt lat="47.99668" lon="-0.74227">
        <ele>43.7</ele>
        <time>2018-02-04T11:39:13Z</time>
      </trkpt>
      <trkpt lat="47.99669" lon="-0.7424">
        <ele>45.2</ele>
        <time>2018-02-04T11:39:17Z</time>
      </trkpt>
      <trkpt lat="47.99671" lon="-0.74252">
        <ele>46.4</ele>
        <time>2018-02-04T11:39:21Z</time>
      </trkpt>
      <trkpt lat="47.99672" lon="-0.74264">
        <ele>46.9</ele>
        <time>2018-02-04T11:39:25Z</time>
      </trkpt>
      <trkpt lat="47.99673" lon="-0.74275">
        <ele>47.3</ele>
        <time>2018-02-04T11:39:29Z</time>
      </trkpt>
      <trkpt lat="47.99675" lon="-0.74284">
        <ele>48.2</ele>
        <time>2018-02-04T11:39:33Z</time>
      </trkpt>
      <trkpt lat="47.9968" lon="-0.74293">
        <ele>49.1</ele>
        <time>2018-02-04T11:39:37Z</time>
      </trkpt>
      <trkpt lat="47.99685" lon="-0.74296">
        <ele>49.4</ele>
        <time>2018-02-04T11:39:41Z</time>
      </trkpt>
      <trkpt lat="47.99688" lon="-0.7429">
        <ele>49.2</ele>
        <time>2018-02-04T11:39:45Z</time>
      </trkpt>
      <trkpt lat="47.99689" lon="-0.74277">
        <ele>48.6</ele>
        <time>2018-02-04T11:39:49Z</time>
      </trkpt>
      <trkpt lat="47.99689" lon="-0.74262">
        <ele>48</ele>
        <time>2018-02-04T11:39:53Z</time>
      </trkpt>
      <trkpt lat="47.99688" lon="-0.7424">
        <ele>46.7</ele>
        <time>2018-02-04T11:39:57Z</time>
      </trkpt>
      <trkpt lat="47.99686" lon="-0.74216">
        <ele>44.7</ele>
        <time>2018-02-04T11:40:01Z</time>
      </trkpt>
      <trkpt lat="47.99683" lon="-0.74192">
        <ele>43.1</ele>
        <time>2018-02-04T11:40:05Z</time>
      </trkpt>
      <trkpt lat="47.9968" lon="-0.74169">
        <ele>42.1</ele>
        <time>2018-02-04T11:40:09Z</time>
      </trkpt>
      <trkpt lat="47.99678" lon="-0.74147">
        <ele>39.5</ele>
        <time>2018-02-04T11:40:13Z</time>
      </trkpt>
      <trkpt lat="47.99674" lon="-0.74127">
        <ele>38.2</ele>
        <time>2018-02-04T11:40:17Z</time>
      </trkpt>
      <trkpt lat="47.99671" lon="-0.74106">
        <ele>38</ele>
        <time>2018-02-04T11:40:21Z</time>
      </trkpt>
      <trkpt lat="47.99668" lon="-0.74084">
        <ele>38</ele>
        <time>2018-02-04T11:40:25Z</time>
      </trkpt>
      <trkpt lat="47.99664" lon="-0.74063">
        <ele>38</ele>
        <time>2018-02-04T11:40:29Z</time>
      </trkpt>
      <trkpt lat="47.9966" lon="-0.7404">
        <ele>39</ele>
        <time>2018-02-04T11:40:33Z</time>
      </trkpt>
      <trkpt lat="47.99657" lon="-0.74018">
        <ele>40.4</ele>
        <time>2018-02-04T11:40:37Z</time>
      </trkpt>
      <trkpt lat="47.99654" lon="-0.73995">
        <ele>41.8</ele>
        <time>2018-02-04T11:40:41Z</time>
      </trkpt>
      <trkpt lat="47.9965" lon="-0.73972">
        <ele>43.6</ele>
        <time>2018-02-04T11:40:45Z</time>
      </trkpt>
      <trkpt lat="47.99648" lon="-0.73948">
        <ele>45.1</ele>
        <time>2018-02-04T11:40:49Z</time>
      </trkpt>
      <trkpt lat="47.99646" lon="-0.73925">
        <ele>46.3</ele>
        <time>2018-02-04T11:40:53Z</time>
      </trkpt>
      <trkpt lat="47.99643" lon="-0.73905">
        <ele>47.3</ele>
        <time>2018-02-04T11:40:57Z</time>
      </trkpt>
      <trkpt lat="47.99636" lon="-0.73889">
        <ele>47.9</ele>
        <time>2018-02-04T11:41:01Z</time>
      </trkpt>
      <trkpt lat="47.99628" lon="-0.7387">
        <ele>48.3</ele>
        <time>2018-02-04T11:41:05Z</time>
      </trkpt>
      <trkpt lat="47.99636" lon="-0.73853">
        <ele>48.9</ele>
        <time>2018-02-04T11:41:09Z</time>
      </trkpt>
      <trkpt lat="47.99646" lon="-0.73838">
        <ele>49.2</ele>
        <time>2018-02-04T11:41:13Z</time>
      </trkpt>
      <trkpt lat="47.99652" lon="-0.73821">
        <ele>50.1</ele>
        <time>2018-02-04T11:41:17Z</time>
      </trkpt>
      <trkpt lat="47.99657" lon="-0.73806">
        <ele>51</ele>
        <time>2018-02-04T11:41:21Z</time>
      </trkpt>
      <trkpt lat="47.99663" lon="-0.73792">
        <ele>51.5</ele>
        <time>2018-02-04T11:41:25Z</time>
      </trkpt>
      <trkpt lat="47.99669" lon="-0.73781">
        <ele>51.9</ele>
        <time>2018-02-04T11:41:29Z</time>
      </trkpt>
      <trkpt lat="47.99676" lon="-0.73769">
        <ele>52.6</ele>
        <time>2018-02-04T11:41:33Z</time>
      </trkpt>
      <trkpt lat="47.99682" lon="-0.73758">
        <ele>53.5</ele>
        <time>2018-02-04T11:41:37Z</time>
      </trkpt>
      <trkpt lat="47.99689" lon="-0.73745">
        <ele>54.2</ele>
        <time>2018-02-04T11:41:41Z</time>
      </trkpt>
      <trkpt lat="47.99695" lon="-0.73733">
        <ele>54.6</ele>
        <time>2018-02-04T11:41:45Z</time>
      </trkpt>
      <trkpt lat="47.99701" lon="-0.7372">
        <ele>54.8</ele>
        <time>2018-02-04T11:41:49Z</time>
      </trkpt>
      <trkpt lat="47.99708" lon="-0.73709">
        <ele>55.2</ele>
        <time>2018-02-04T11:41:53Z</time>
      </trkpt>
      <trkpt lat="47.99714" lon="-0.73697">
        <ele>55.8</ele>
        <time>2018-02-04T11:41:57Z</time>
      </trkpt>
      <trkpt lat="47.9972" lon="-0.73685">
        <ele>56.3</ele>
        <time>2018-02-04T11:42:01Z</time>
      </trkpt>
      <trkpt lat="47.99727" lon="-0.73674">
        <ele>56.7</ele>
        <time>2018-02-04T11:42:05Z</time>
      </trkpt>
      <trkpt lat="47.99733" lon="-0.73663">
        <ele>57.1</ele>
        <time>2018-02-04T11:42:09Z</time>
      </trkpt>
      <trkpt lat="47.99739" lon="-0.73652">
        <ele>57.5</ele>
        <time>2018-02-04T11:42:13Z</time>
      </trkpt>
      <trkpt lat="47.99746" lon="-0.7364">
        <ele>58</ele>
        <time>2018-02-04T11:42:17Z</time>
      </trkpt>
      <trkpt lat="47.99752" lon="-0.7363">
        <ele>58.3</ele>
        <time>2018-02-04T11:42:21Z</time>
      </trkpt>
      <trkpt lat="47.99759" lon="-0.73619">
        <ele>58.7</ele>
        <time>2018-02-04T11:42:25Z</time>
      </trkpt>
      <trkpt lat="47.99765" lon="-0.73609">
        <ele>59.1</ele>
        <time>2018-02-04T11:42:29Z</time>
      </trkpt>
      <trkpt lat="47.99772" lon="-0.73599">
        <ele>59.4</ele>
        <time>2018-02-04T11:42:33Z</time>
      </trkpt>
      <trkpt lat="47.9978" lon="-0.7359">
        <ele>59.8</ele>
        <time>2018-02-04T11:42:37Z</time>
      </trkpt>
      <trkpt lat="47.99786" lon="-0.7358">
        <ele>60.5</ele>
        <time>2018-02-04T11:42:41Z</time>
      </trkpt>
      <trkpt lat="47.99792" lon="-0.73568">
        <ele>61.3</ele>
        <time>2018-02-04T11:42:45Z</time>
      </trkpt>
      <trkpt lat="47.99799" lon="-0.73558">
        <ele>61.9</ele>
        <time>2018-02-04T11:42:49Z</time>
      </trkpt>
      <trkpt lat="47.99806" lon="-0.73547">
        <ele>62.4</ele>
        <time>2018-02-04T11:42:53Z</time>
      </trkpt>
      <trkpt lat="47.99813" lon="-0.73536">
        <ele>63.1</ele>
        <time>2018-02-04T11:42:57Z</time>
      </trkpt>
      <trkpt lat="47.99819" lon="-0.73525">
        <ele>63.6</ele>
        <time>2018-02-04T11:43:01Z</time>
      </trkpt>
      <trkpt lat="47.99825" lon="-0.73514">
        <ele>63.9</ele>
        <time>2018-02-04T11:43:05Z</time>
      </trkpt>
      <trkpt lat="47.99831" lon="-0.73504">
        <ele>64</ele>
        <time>2018-02-04T11:43:09Z</time>
      </trkpt>
      <trkpt lat="47.99836" lon="-0.73493">
        <ele>64.3</ele>
        <time>2018-02-04T11:43:13Z</time>
      </trkpt>
      <trkpt lat="47.99841" lon="-0.7348">
        <ele>65</ele>
        <time>2018-02-04T11:43:17Z</time>
      </trkpt>
      <trkpt lat="47.99848" lon="-0.73467">
        <ele>65.5</ele>
        <time>2018-02-04T11:43:21Z</time>
      </trkpt>
      <trkpt lat="47.99853" lon="-0.73451">
        <ele>65.7</ele>
        <time>2018-02-04T11:43:25Z</time>
      </trkpt>
      <trkpt lat="47.99857" lon="-0.73434">
        <ele>66.2</ele>
        <time>2018-02-04T11:43:29Z</time>
      </trkpt>
      <trkpt lat="47.99862" lon="-0.73418">
        <ele>67</ele>
        <time>2018-02-04T11:43:33Z</time>
      </trkpt>
      <trkpt lat="47.99865" lon="-0.73402">
        <ele>67.7</ele>
        <time>2018-02-04T11:43:37Z</time>
      </trkpt>
      <trkpt lat="47.99869" lon="-0.73385">
        <ele>68.3</ele>
        <time>2018-02-04T11:43:41Z</time>
      </trkpt>
      <trkpt lat="47.99873" lon="-0.73369">
        <ele>68.4</ele>
        <time>2018-02-04T11:43:45Z</time>
      </trkpt>
      <trkpt lat="47.99877" lon="-0.73354">
        <ele>68.9</ele>
        <time>2018-02-04T11:43:49Z</time>
      </trkpt>
      <trkpt lat="47.99881" lon="-0.73338">
        <ele>69.5</ele>
        <time>2018-02-04T11:43:53Z</time>
      </trkpt>
      <trkpt lat="47.99884" lon="-0.73322">
        <ele>70.2</ele>
        <time>2018-02-04T11:43:57Z</time>
      </trkpt>
      <trkpt lat="47.99888" lon="-0.73307">
        <ele>70.9</ele>
        <time>2018-02-04T11:44:01Z</time>
      </trkpt>
      <trkpt lat="47.99892" lon="-0.73294">
        <ele>71</ele>
        <time>2018-02-04T11:44:05Z</time>
      </trkpt>
      <trkpt lat="47.99895" lon="-0.7328">
        <ele>71.2</ele>
        <time>2018-02-04T11:44:09Z</time>
      </trkpt>
      <trkpt lat="47.99899" lon="-0.73265">
        <ele>71.4</ele>
        <time>2018-02-04T11:44:13Z</time>
      </trkpt>
      <trkpt lat="47.99904" lon="-0.73249">
        <ele>71.6</ele>
        <time>2018-02-04T11:44:17Z</time>
      </trkpt>
      <trkpt lat="47.9991" lon="-0.73233">
        <ele>72.5</ele>
        <time>2018-02-04T11:44:21Z</time>
      </trkpt>
      <trkpt lat="47.99915" lon="-0.73217">
        <ele>73.2</ele>
        <time>2018-02-04T11:44:25Z</time>
      </trkpt>
      <trkpt lat="47.99921" lon="-0.73201">
        <ele>73.9</ele>
        <time>2018-02-04T11:44:29Z</time>
      </trkpt>
      <trkpt lat="47.99928" lon="-0.73185">
        <ele>74.8</ele>
        <time>2018-02-04T11:44:33Z</time>
      </trkpt>
      <trkpt lat="47.99934" lon="-0.73169">
        <ele>75.3</ele>
        <time>2018-02-04T11:44:37Z</time>
      </trkpt>
      <trkpt lat="47.99942" lon="-0.73152">
        <ele>75.6</ele>
        <time>2018-02-04T11:44:41Z</time>
      </trkpt>
      <trkpt lat="47.99947" lon="-0.73136">
        <ele>76.2</ele>
        <time>2018-02-04T11:44:45Z</time>
      </trkpt>
      <trkpt lat="47.99955" lon="-0.73119">
        <ele>76.6</ele>
        <time>2018-02-04T11:44:49Z</time>
      </trkpt>
      <trkpt lat="47.99961" lon="-0.73101">
        <ele>76.5</ele>
        <time>2018-02-04T11:44:53Z</time>
      </trkpt>
      <trkpt lat="47.99969" lon="-0.73085">
        <ele>76.2</ele>
        <time>2018-02-04T11:44:57Z</time>
      </trkpt>
      <trkpt lat="47.99976" lon="-0.73067">
        <ele>76.7</ele>
        <time>2018-02-04T11:45:01Z</time>
      </trkpt>
      <trkpt lat="47.99982" lon="-0.73048">
        <ele>77.1</ele>
        <time>2018-02-04T11:45:05Z</time>
      </trkpt>
      <trkpt lat="47.9999" lon="-0.73027">
        <ele>76.7</ele>
        <time>2018-02-04T11:45:09Z</time>
      </trkpt>
      <trkpt lat="48.00001" lon="-0.73006">
        <ele>76.1</ele>
        <time>2018-02-04T11:45:13Z</time>
      </trkpt>
      <trkpt lat="48.0001" lon="-0.72982">
        <ele>76.5</ele>
        <time>2018-02-04T11:45:17Z</time>
      </trkpt>
      <trkpt lat="48.0002" lon="-0.72959">
        <ele>75.8</ele>
        <time>2018-02-04T11:45:21Z</time>
      </trkpt>
      <trkpt lat="48.0003" lon="-0.72934">
        <ele>75</ele>
        <time>2018-02-04T11:45:25Z</time>
      </trkpt>
      <trkpt lat="48.0004" lon="-0.72909">
        <ele>74.3</ele>
        <time>2018-02-04T11:45:29Z</time>
      </trkpt>
      <trkpt lat="48.00052" lon="-0.72883">
        <ele>72.9</ele>
        <time>2018-02-04T11:45:33Z</time>
      </trkpt>
      <trkpt lat="48.00062" lon="-0.72854">
        <ele>72.3</ele>
        <time>2018-02-04T11:45:37Z</time>
      </trkpt>
      <trkpt lat="48.00073" lon="-0.72827">
        <ele>70.9</ele>
        <time>2018-02-04T11:45:41Z</time>
      </trkpt>
      <trkpt lat="48.00086" lon="-0.72795">
        <ele>68.6</ele>
        <time>2018-02-04T11:45:45Z</time>
      </trkpt>
      <trkpt lat="48.00097" lon="-0.72761">
        <ele>66.6</ele>
        <time>2018-02-04T11:45:49Z</time>
      </trkpt>
      <trkpt lat="48.00109" lon="-0.7272">
        <ele>63.9</ele>
        <time>2018-02-04T11:45:53Z</time>
      </trkpt>
      <trkpt lat="48.00115" lon="-0.72681">
        <ele>62.2</ele>
        <time>2018-02-04T11:45:57Z</time>
      </trkpt>
      <trkpt lat="48.00119" lon="-0.72642">
        <ele>61.3</ele>
        <time>2018-02-04T11:46:01Z</time>
      </trkpt>
      <trkpt lat="48.00132" lon="-0.72612">
        <ele>61.8</ele>
        <time>2018-02-04T11:46:05Z</time>
      </trkpt>
      <trkpt lat="48.00145" lon="-0.72589">
        <ele>62.4</ele>
        <time>2018-02-04T11:46:09Z</time>
      </trkpt>
      <trkpt lat="48.00155" lon="-0.72567">
        <ele>62.3</ele>
        <time>2018-02-04T11:46:13Z</time>
      </trkpt>
      <trkpt lat="48.00168" lon="-0.72555">
        <ele>62</ele>
        <time>2018-02-04T11:46:17Z</time>
      </trkpt>
      <trkpt lat="48.00183" lon="-0.72553">
        <ele>62.5</ele>
        <time>2018-02-04T11:46:21Z</time>
      </trkpt>
      <trkpt lat="48.00192" lon="-0.72534">
        <ele>61.5</ele>
        <time>2018-02-04T11:46:25Z</time>
      </trkpt>
      <trkpt lat="48.00187" lon="-0.72504">
        <ele>59.5</ele>
        <time>2018-02-04T11:46:29Z</time>
      </trkpt>
      <trkpt lat="48.00175" lon="-0.72467">
        <ele>56.9</ele>
        <time>2018-02-04T11:46:33Z</time>
      </trkpt>
      <trkpt lat="48.00153" lon="-0.72436">
        <ele>56.4</ele>
        <time>2018-02-04T11:46:37Z</time>
      </trkpt>
      <trkpt lat="48.00124" lon="-0.72412">
        <ele>54.7</ele>
        <time>2018-02-04T11:46:41Z</time>
      </trkpt>
      <trkpt lat="48.00094" lon="-0.72397">
        <ele>52.6</ele>
        <time>2018-02-04T11:46:45Z</time>
      </trkpt>
      <trkpt lat="48.00072" lon="-0.72402">
        <ele>52</ele>
        <time>2018-02-04T11:46:49Z</time>
      </trkpt>
      <trkpt lat="48.00074" lon="-0.72377">
        <ele>51.2</ele>
        <time>2018-02-04T11:46:53Z</time>
      </trkpt>
      <trkpt lat="48.00086" lon="-0.72346">
        <ele>50.2</ele>
        <time>2018-02-04T11:46:57Z</time>
      </trkpt>
      <trkpt lat="48.0009" lon="-0.72317">
        <ele>49.1</ele>
        <time>2018-02-04T11:47:01Z</time>
      </trkpt>
      <trkpt lat="48.00073" lon="-0.72297">
        <ele>48.7</ele>
        <time>2018-02-04T11:47:05Z</time>
      </trkpt>
      <trkpt lat="48.00057" lon="-0.7228">
        <ele>48.2</ele>
        <time>2018-02-04T11:47:09Z</time>
      </trkpt>
      <trkpt lat="48.00042" lon="-0.72265">
        <ele>47.3</ele>
        <time>2018-02-04T11:47:13Z</time>
      </trkpt>
      <trkpt lat="48.00031" lon="-0.72245">
        <ele>47</ele>
        <time>2018-02-04T11:47:17Z</time>
      </trkpt>
      <trkpt lat="48.00021" lon="-0.72224">
        <ele>46.2</ele>
        <time>2018-02-04T11:47:21Z</time>
      </trkpt>
      <trkpt lat="48.00009" lon="-0.72205">
        <ele>46.2</ele>
        <time>2018-02-04T11:47:25Z</time>
      </trkpt>
      <trkpt lat="47.99997" lon="-0.72183">
        <ele>46.4</ele>
        <time>2018-02-04T11:47:29Z</time>
      </trkpt>
      <trkpt lat="47.99986" lon="-0.72162">
        <ele>44</ele>
        <time>2018-02-04T11:47:33Z</time>
      </trkpt>
      <trkpt lat="47.99978" lon="-0.72141">
        <ele>44.8</ele>
        <time>2018-02-04T11:47:37Z</time>
      </trkpt>
      <trkpt lat="47.99968" lon="-0.72118">
        <ele>46</ele>
        <time>2018-02-04T11:47:41Z</time>
      </trkpt>
      <trkpt lat="47.99958" lon="-0.72096">
        <ele>45.5</ele>
        <time>2018-02-04T11:47:45Z</time>
      </trkpt>
      <trkpt lat="47.99948" lon="-0.72075">
        <ele>45.6</ele>
        <time>2018-02-04T11:47:49Z</time>
      </trkpt>
      <trkpt lat="47.9994" lon="-0.72056">
        <ele>46.5</ele>
        <time>2018-02-04T11:47:53Z</time>
      </trkpt>
      <trkpt lat="47.99933" lon="-0.72039">
        <ele>46.1</ele>
        <time>2018-02-04T11:47:57Z</time>
      </trkpt>
      <trkpt lat="47.99926" lon="-0.72022">
        <ele>47.1</ele>
        <time>2018-02-04T11:48:01Z</time>
      </trkpt>
      <trkpt lat="47.9992" lon="-0.72007">
        <ele>48.3</ele>
        <time>2018-02-04T11:48:05Z</time>
      </trkpt>
      <trkpt lat="47.99916" lon="-0.71992">
        <ele>49</ele>
        <time>2018-02-04T11:48:09Z</time>
      </trkpt>
      <trkpt lat="47.99911" lon="-0.71976">
        <ele>49</ele>
        <time>2018-02-04T11:48:13Z</time>
      </trkpt>
      <trkpt lat="47.99907" lon="-0.7196">
        <ele>49.4</ele>
        <time>2018-02-04T11:48:17Z</time>
      </trkpt>
      <trkpt lat="47.99904" lon="-0.71944">
        <ele>50</ele>
        <time>2018-02-04T11:48:21Z</time>
      </trkpt>
      <trkpt lat="47.99902" lon="-0.71927">
        <ele>50.3</ele>
        <time>2018-02-04T11:48:25Z</time>
      </trkpt>
      <trkpt lat="47.999" lon="-0.71911">
        <ele>50.5</ele>
        <time>2018-02-04T11:48:29Z</time>
      </trkpt>
      <trkpt lat="47.99898" lon="-0.71893">
        <ele>50.9</ele>
        <time>2018-02-04T11:48:33Z</time>
      </trkpt>
      <trkpt lat="47.99898" lon="-0.71875">
        <ele>50.8</ele>
        <time>2018-02-04T11:48:37Z</time>
      </trkpt>
      <trkpt lat="47.99898" lon="-0.71858">
        <ele>50.8</ele>
        <time>2018-02-04T11:48:41Z</time>
      </trkpt>
      <trkpt lat="47.99898" lon="-0.71841">
        <ele>51.4</ele>
        <time>2018-02-04T11:48:45Z</time>
      </trkpt>
      <trkpt lat="47.99899" lon="-0.71823">
        <ele>51.6</ele>
        <time>2018-02-04T11:48:49Z</time>
      </trkpt>
      <trkpt lat="47.999" lon="-0.71805">
        <ele>51.6</ele>
        <time>2018-02-04T11:48:53Z</time>
      </trkpt>
      <trkpt lat="47.99901" lon="-0.71787">
        <ele>51.9</ele>
        <time>2018-02-04T11:48:57Z</time>
      </trkpt>
      <trkpt lat="47.99901" lon="-0.71768">
        <ele>52.2</ele>
        <time>2018-02-04T11:49:01Z</time>
      </trkpt>
      <trkpt lat="47.99901" lon="-0.71751">
        <ele>52.6</ele>
        <time>2018-02-04T11:49:05Z</time>
      </trkpt>
      <trkpt lat="47.999" lon="-0.71734">
        <ele>52.8</ele>
        <time>2018-02-04T11:49:09Z</time>
      </trkpt>
      <trkpt lat="47.999" lon="-0.71717">
        <ele>53.1</ele>
        <time>2018-02-04T11:49:13Z</time>
      </trkpt>
      <trkpt lat="47.999" lon="-0.71702">
        <ele>53.4</ele>
        <time>2018-02-04T11:49:17Z</time>
      </trkpt>
      <trkpt lat="47.99901" lon="-0.71688">
        <ele>53.6</ele>
        <time>2018-02-04T11:49:21Z</time>
      </trkpt>
      <trkpt lat="47.99904" lon="-0.71678">
        <ele>53.4</ele>
        <time>2018-02-04T11:49:25Z</time>
      </trkpt>
      <trkpt lat="47.99911" lon="-0.71672">
        <ele>53.2</ele>
        <time>2018-02-04T11:49:29Z</time>
      </trkpt>
      <trkpt lat="47.99913" lon="-0.71664">
        <ele>53.1</ele>
        <time>2018-02-04T11:49:33Z</time>
      </trkpt>
      <trkpt lat="47.99916" lon="-0.71657">
        <ele>53.1</ele>
        <time>2018-02-04T11:51:09Z</time>
      </trkpt>
      <trkpt lat="47.99918" lon="-0.71661">
        <ele>53</ele>
        <time>2018-02-04T11:51:13Z</time>
      </trkpt>
      <trkpt lat="47.99915" lon="-0.71666">
        <ele>53</ele>
        <time>2018-02-04T11:51:17Z</time>
      </trkpt>
      <trkpt lat="47.99911" lon="-0.71674">
        <ele>53.2</ele>
        <time>2018-02-04T11:51:21Z</time>
      </trkpt>
      <trkpt lat="47.999" lon="-0.71678">
        <ele>53.6</ele>
        <time>2018-02-04T11:51:25Z</time>
      </trkpt>
      <trkpt lat="47.99894" lon="-0.71676">
        <ele>53.8</ele>
        <time>2018-02-04T11:51:29Z</time>
      </trkpt>
      <trkpt lat="47.99888" lon="-0.71674">
        <ele>54</ele>
        <time>2018-02-04T11:51:33Z</time>
      </trkpt>
      <trkpt lat="47.99885" lon="-0.71672">
        <ele>54</ele>
        <time>2018-02-04T11:51:37Z</time>
      </trkpt>
    </trkseg>
  </trk>
</gpx>